     2              OBSERVATION DATA    G (GPS)             RINEX VERSION / TYPE
ASRINEXO V2.9.7 UX USGS/MENLO_PARK 06-OCT-00 13:14          PGM / RUN BY / DATE
                                                            COMMENT
National Earthquake Hazard Reduction Program                COMMENT
Crustal Strain Project                                      COMMENT
345 Middlefield Road, MS/977                                COMMENT
U.S. Geological Survey, Menlo Park, California 94025        COMMENT
Contact: kwendt@isdmnl.wr.usgs.gov (Ph: 650-329-4866)       COMMENT
HI's are vertical to base of antenna                        COMMENT
BIT 2 OF LLI (+4) FLAGS DATA COLLECTED UNDER "AS" CONDITION COMMENT
02fs                                                        MARKER NAME
WRT                                                         OBSERVER / AGENCY
175 ASHTECH Z-XII3 CD00                                     REC # / TYPE / VERS
CR16374 ASH700936E_C NONE                                   ANT # / TYPE
 -2512359.0000 -4174436.0000  4104720.0000                  APPROX POSITION XYZ
        0.5107        0.0000        0.0000                  ANTENNA: DELTA H/E/N
     1     1                                                WAVELENGTH FACT L1/2
     5    C1    L1    L2    P1    P2                        # / TYPES OF OBSERV
    30                                                      INTERVAL
  2000     9    14     0     0   30.000000                  TIME OF FIRST OBS
                                                            END OF HEADER
 00  9 14  0  0 30.0000000  0  9 13 08 01 28 03 20 27 19 22
  21596542.549   -18116637.666 9 -14097543.29547  21596542.835    21596550.6614
  23862708.658    -1143013.074 7   -866109.94945  23862708.182    23862723.0004
  20539261.657   -20955164.562 9 -16315949.22948  20539261.355    20539270.2704
  20949502.063   -21641933.017 9 -16527045.73847  20949501.742    20949509.4694
  23989600.725    -3450389.045 7  -2676565.47945  23989600.825    23989613.7514
  23110155.464    -7679872.582 8  -5714762.44445  23110155.032    23110166.8974
  22074977.649   -13345169.248 8 -10380309.46547  22074977.431    22074987.7174
  20509143.777   -23762750.517 9 -18495452.85647  20509143.595    20509152.6044
  22554080.234    -9701400.184 8  -7543303.44046  22554079.416    22554090.2864
 00  9 14  0  1  0.0000000  0  9 13 08 01 28 03 20 27 19 22
  21584695.139   -18178896.258 9 -14146056.44847  21584695.386    21584703.1364
  23845796.838    -1231884.681 8   -935360.31145  23845796.449    23845811.0974
  20543262.312   -20934140.938 9 -16299567.18848  20543262.006    20543270.9364
  20952306.611   -21627194.731 9 -16515561.35247  20952306.320    20952314.0724
  23978296.266    -3509793.805 7  -2722854.74445  23978296.281    23978309.1784
  23130811.721    -7571324.652 8  -5630179.85145  23130811.173    23130823.1584
  22063956.385   -13403086.198 8 -10425439.49447  22063956.171    22063966.3814
  20505713.196   -23780778.223 9 -18509500.40247  20505713.070    20505722.0544
  22571152.106    -9611686.211 8  -7473396.51646  22571151.447    22571162.3104
 00  9 14  0  1 30.0000000  0  9 13 08 01 28 03 20 27 19 22
  21572893.309   -18240915.272 9 -14194382.91247  21572893.537    21572901.2664
  23828911.560    -1320616.597 7  -1004501.83645  23828911.068    23828925.6024
  20547333.085   -20912748.854 9 -16282898.03447  20547332.758    20547341.6984
  20955218.579   -21611892.106 9 -16503637.21647  20955218.264    20955226.0624
  23967053.216    -3568875.933 7  -2768892.61845  23967053.234    23967066.0244
  23151502.538    -7462593.696 8  -5545454.59745  23151502.129    23151514.1044
  22052972.682   -13460805.739 8 -10470415.69147  22052972.445    22052982.5804
  20502337.962   -23798515.326 9 -18523321.49947  20502337.807    20502346.8084
  22588294.033    -9521605.383 8  -7403203.72146  22588293.320    22588304.1654
 00  9 14  0  2  0.0000000  0  9 13 08 01 28 03 20 27 19 22
  21561135.579   -18302702.617 9 -14242528.85747  21561135.756    21561143.4714
  23812051.297    -1409217.072 8  -1073540.95445  23812050.840    23812065.3124
  20551472.449   -20890996.396 9 -16265948.06947  20551472.122    20551481.0444
  20958236.210   -21596034.549 9 -16491280.66647  20958235.865    20958243.6524
  23955870.287    -3627641.423 8  -2814683.73445  23955870.306    23955883.2704
  23172226.093    -7353691.045 8  -5460595.57045  23172225.682    23172237.6894
  22042024.925   -13518336.356 8 -10515244.66247  22042024.684    22042034.7864
  20499016.319   -23815970.782 9 -18536923.12847  20499016.157    20499025.0994
  22605503.520    -9431168.730 8  -7332733.68546  22605502.846    22605513.7074
 00  9 14  0  2 30.0000000  0  9 13 08 01 28 03 20 27 19 22
  21549421.952   -18364258.152 9 -14290494.16747  21549422.076    21549429.8814
  23795215.805    -1497687.467 7  -1142478.67445  23795215.336    23795229.6234
  20555680.133   -20868884.983 9 -16248718.40547  20555679.809    20555688.7224
  20961358.852   -21579624.894 9 -16478493.91947  20961358.503    20961366.2564
  23944747.892    -3686089.392 7  -2860227.39445  23944747.796    23944760.9894
  23192981.354    -7244621.460 8  -5375606.47845  23192981.033    23192993.0674
  22031112.707   -13575680.070 8 -10559928.03347  22031112.528    22031122.5664
  20495747.818   -23833146.771 9 -18550307.00347  20495747.649    20495756.5914
  22622779.963    -9340380.898 8  -7261989.98646  22622779.296    22622790.1044
 00  9 14  0  3  0.0000000  0  9 13 08 01 28 03 20 27 19 22
  21537753.176   -18425577.644 9 -14338275.54547  21537753.304    21537761.1394
  23778405.399    -1586024.617 8  -1211312.65145  23778405.103    23778419.5054
  20559956.739   -20846411.258 9 -16231206.40947  20559956.398    20559965.3074
  20964586.909   -21562661.361 9 -16465275.57147  20964586.539    20964594.2814
  23933686.913    -3744214.305 7  -2905519.39345  23933686.905    23933700.0844
  23213768.640    -7135385.143 8  -5290487.46345  23213768.233    23213780.3624
  22020236.687   -13632833.981 8 -10604463.50047  22020236.498    22020246.4394
  20492533.014   -23850040.729 9 -18563471.10247  20492532.835    20492541.7584
  22640123.143    -9249242.128 8  -7190972.83246  22640122.459    22640133.3394
 00  9 14  0  3 30.0000000  0  9 13 08 01 28 03 20 27 19 22
  21526129.748   -18486658.662 9 -14385871.10647  21526129.930    21526137.8124
  23761620.831    -1674227.251 8  -1280041.80145  23761620.563    23761634.9084
  20564302.526   -20823574.177 9 -16213411.28947  20564302.200    20564311.0944
  20967920.259   -21545144.343 9 -16451625.94347  20967919.941    20967927.6294
  23922688.170    -3802013.013 7  -2950557.24345  23922687.929    23922701.1234
  23234587.216    -7025984.013 8  -5205240.03745  23234586.760    23234598.9374
  22009396.989   -13689797.191 8 -10648850.35547  22009396.762    22009406.6444
  20489371.878   -23866652.398 9 -18576415.24047  20489371.703    20489380.6744
  22657532.509    -9157755.156 8  -7119684.34446  22657531.947    22657542.7464
 00  9 14  0  4  0.0000000  0  9 13 08 01 28 03 20 27 19 22
  21514552.232   -18547498.712 9 -14433278.90647  21514552.435    21514560.2944
  23744862.090    -1762294.164 8  -1348665.17245  23744861.875    23744875.9534
  20568717.640   -20800372.505 9 -16195332.07147  20568717.353    20568726.2414
  20971358.995   -21527073.881 9 -16437545.06047  20971358.670    20971366.3084
  23911751.826    -3859482.164 7  -2995338.28045  23911751.639    23911764.8494
  23255436.771    -6916420.418 8  -5119866.00145  23255436.226    23255448.4454
  21998593.604   -13746568.995 8 -10693088.06847  21998593.421    21998603.2154
  20486264.556   -23882981.500 9 -18589139.20547  20486264.404    20486273.3094
  22675007.833    -9065922.118 8  -7048126.20846  22675007.239    22675018.1204
 00  9 14  0  4 30.0000000  0  9 13 08 01 28 03 20 27 19 22
  21503020.715   -18608097.481 9 -14480498.69047  21503020.868    21503028.6984
  23728129.189    -1850226.445 8  -1417183.64145  23728128.849    23728142.8494
  20573202.013   -20776806.933 9 -16176969.29347  20573201.729    20573210.6334
  20974902.572   -21508452.495 9 -16423034.88447  20974902.217    20974909.8334
  23900878.705    -3916619.933 7  -3039861.05445  23900878.536    23900891.8384
  23276316.267    -6806698.412 8  -5034368.54345  23276315.761    23276328.0254
  21987826.408   -13803150.586 8 -10737177.58047  21987826.245    21987836.0084
  20483210.706   -23899029.576 9 -18601644.18647  20483210.558    20483219.4664
  22692548.227    -8973746.660 8  -6976301.25946  22692547.617    22692558.5774
 00  9 14  0  5  0.0000000  0  9 13 08 01 28 03 20 27 19 22
  21491535.488   -18668452.583 9 -14527528.59847  21491535.630    21491543.5014
  23711422.007    -1938022.576 8  -1485596.05645  23711421.674    23711435.6284
  20577755.853   -20752876.346 9 -16158322.09147  20577755.556    20577764.4594
  20978550.904   -21489280.269 9 -16408095.47847  20978550.562    20978558.1874
  23890069.389    -3973423.070 7  -3084123.10945  23890069.069    23890082.3574
  23297225.457    -6696820.069 8  -4948749.26445  23297225.066    23297237.3994
  21977095.551   -13859541.312 8 -10781118.34047  21977095.413    21977105.1934
  20480210.371   -23914796.155 9 -18613929.81447  20480210.256    20480219.1524
  22710153.486    -8881230.976 8  -6904211.19246  22710152.878    22710163.8254
 00  9 14  0  5 30.0000000  0  9 13 08 01 28 03 20 27 19 22
  21480096.736   -18728562.974 9 -14574367.82747  21480096.959    21480104.8144
  23694740.814    -2025682.168 8  -1553902.05945  23694740.453    23694754.2214
  20582379.230   -20728580.371 9 -16139390.16947  20582378.946    20582387.8344
  20982303.824   -21469558.260 9 -16392727.67047  20982303.504    20982311.1794
  23879324.344    -4029889.092 7  -3128122.48945  23879324.148    23879337.1244
  23318164.152    -6586788.226 8  -4863010.36645  23318163.621    23318175.8144
  21966401.105   -13915741.159 8 -10824910.36147  21966400.907    21966410.7124
  20477263.541   -23930281.788 9 -18625996.52547  20477263.416    20477272.3314
  22727822.756    -8788378.255 8  -6831858.49046  22727822.225    22727833.1524
 00  9 14  0  6  0.0000000  0  9 13 08 01 28 03 20 27 19 22
  21468705.125   -18788426.231 9 -14621014.47747  21468705.285    21468713.1844
  23678085.769    -2113204.854 8  -1622101.39045  23678085.303    23678099.1204
  20587072.221   -20703918.475 9 -16120173.11547  20587071.967    20587080.8394
  20986161.131   -21449287.714 9 -16376932.43647  20986160.823    20986168.5064
  23868643.752    -4086015.119 8  -3171856.90845  23868643.633    23868656.7224
  23339131.289    -6476605.770 8  -4777154.13545  23339130.896    23339143.1754
  21955742.912   -13971750.198 8 -10868553.71247  21955742.736    21955752.5604
  20474370.168   -23945486.804 9 -18637844.57447  20474370.019    20474378.8984
  22745555.780    -8695191.779 8  -6759245.72946  22745555.130    22745566.0204
 00  9 14  0  6 30.0000000  0 10 13 08 01 28 03 20 27 19 22 31
  21457360.781   -18848040.552 9 -14667467.15447  21457361.038    21457368.9234
  23661456.722    -2200590.141 8  -1690193.67645  23661456.255    23661470.1124
  20591834.941   -20678890.368 9 -16100670.69747  20591834.650    20591843.5284
  20990122.618   -21428469.921 9 -16360710.77647  20990122.311    20990129.9994
  23858028.510    -4141798.580 7  -3215324.40845  23858028.370    23858041.2184
  23360126.603    -6366275.867 8  -4691182.98745  23360126.151    23360138.3914
  21945121.024   -14027568.602 8 -10912048.53547  21945120.819    21945130.6524
  20471530.104   -23960411.516 9 -18649474.20447  20471529.935    20471538.7884
  22763351.562    -8601674.384 8  -6686375.10646  22763351.010    22763361.8254
  24580326.951    -1879931.131 7  -1433582.95444  24580325.665    24580342.9344
 00  9 14  0  7  0.0000000  0 10 13 08 01 28 03 20 27 19 22 31
  21446064.207   -18907404.495 9 -14713724.73847  21446064.459    21446072.3104
  23644853.854    -2287837.154 8  -1758178.19945  23644853.479    23644867.3934
  20596667.438   -20653495.208 9 -16080882.27647  20596667.214    20596676.0714
  20994188.172   -21407105.142 9 -16344062.88847  20994187.856    20994195.5994
  23847478.940    -4197236.288 7  -3258522.47645  23847478.844    23847491.7994
  23381149.629    -6255800.656 8  -4605098.63245  23381149.176    23381161.4554
  21934535.534   -14083195.788 8 -10955394.36247  21934535.287    21934545.1124
  20468743.388   -23975055.639 9 -18660885.19647  20468743.224    20468752.0814
  22781210.015    -8507828.024 8  -6613248.16046  22781209.507    22781220.3274
  24562614.138    -1973010.194 7  -1506111.76844  24562611.978    24562630.0974
 00  9 14  0  7 30.0000000  0 10 13 08 01 28 03 20 27 19 22 31
  21434815.558   -18966516.718 9 -14759786.16047  21434815.786    21434823.5804
  23628277.459    -2374945.648 8  -1826054.81345  23628277.145    23628291.0294
  20601569.877   -20627732.823 9 -16060807.69647  20601569.660    20601578.4934
  20998357.456   -21385194.930 9 -16326989.98947  20998357.170    20998364.9774
  23836995.512    -4252325.618 7  -3301449.08245  23836995.542    23837008.3844
  23402199.519    -6145183.149 8  -4518903.38045  23402199.194    23402211.2804
  21923986.297   -14138631.742 8 -10998591.13047  21923986.090    21923995.9294
  20466009.914   -23989419.933 9 -18672078.13447  20466009.786    20466018.6364
  22799130.483    -8413655.871 8  -6539867.34246  22799129.900    22799140.6914
  24544904.793    -2066071.531 7  -1578626.71144  24544903.166    24544920.6214
 00  9 14  0  8  0.0000000  0 10 13 08 01 28 03 20 27 19 22 31
  21423615.306   -19025374.463 9 -14805649.30047  21423615.520    21423623.2944
  23611727.778    -2461914.363 8  -1893822.50145  23611727.402    23611741.0824
  20606542.516   -20601601.709 9 -16040445.80747  20606542.268    20606551.0794
  21002630.520   -21362739.411 9 -16309492.17247  21002630.282    21002638.0944
  23826579.195    -4307063.546 8  -3344101.84545  23826579.033    23826591.8904
  23423276.252    -6034425.353 8  -4432598.82145  23423275.863    23423288.0104
  21913473.632   -14193875.839 8 -11041638.44247  21913473.438    21913483.2174
  20463329.840   -24003503.793 9 -18683052.56247  20463329.732    20463338.5524
  22817112.440    -8319160.377 8  -6466234.56346  22817111.912    22817122.6474
  24527199.446    -2159111.004 7  -1651124.66844  24527198.474    24527215.4404
 00  9 14  0  8 30.0000000  0 10 13 08 01 28 03 20 27 19 22 31
  21412463.718   -19083976.352 9 -14851313.07047  21412463.940    21412471.6854
  23595204.822    -2548743.476 8  -1961481.40145  23595204.370    23595217.9874
  20611585.253   -20575102.036 9 -16019796.72347  20611584.967    20611593.8154
  21007007.021   -21339740.663 9 -16291571.05847  21007006.782    21007014.6064
  23816230.107    -4361447.815 8  -3386479.03045  23816230.007    23816242.8984
  23444378.812    -5923530.813 8  -4346187.72945  23444378.465    23444390.8194
  21902997.509   -14248928.541 8 -11084536.60347  21902997.271    21903007.0074
  20460702.949   -24017308.348 9 -18693809.34247  20460702.810    20460711.6494
  22835155.398    -8224345.195 8  -6392352.68046  22835154.701    22835165.4704
  24509499.016    -2252126.258 7  -1723603.74144  24509498.177    24509514.7964
 00  9 14  0  9  0.0000000  0 10 13 08 01 28 03 20 27 19 22 31
  21401361.097   -19142320.534 9 -14896776.02347  21401361.356    21401369.1114
  23578708.415    -2635432.126 8  -2029030.88445  23578707.901    23578721.5904
  20616698.113   -20548233.527 9 -15998860.23647  20616697.837    20616706.7194
  21011486.705   -21316199.593 9 -16273227.36147  21011486.491    21011494.3054
  23805948.982    -4415475.606 7  -3428578.48845  23805948.765    23805961.4604
  23465507.094    -5812502.097 8  -4259672.07745  23465506.717    23465518.9624
  21892557.777   -14303789.623 8 -11127285.44847  21892557.528    21892567.2754
  20458129.204   -24030833.497 9 -18704348.40547  20458129.082    20458137.8924
  22853258.370    -8129212.827 8  -6318223.64846  22853257.839    22853268.7164
  24491803.890    -2345114.133 7  -1796061.44345  24491803.008    24491819.7644
 00  9 14  0  9 30.0000000  0 10 13 08 01 28 03 20 27 19 22 31
  21390307.794   -19200405.922 9 -14942037.32247  21390308.028    21390315.8174
  23562238.757    -2721980.532 8  -2096471.07345  23562238.302    23562251.8204
  20621881.185   -20520996.047 9 -15977636.23747  20621880.919    20621889.8534
  21016069.399   -21292117.624 9 -16254462.18547  21016069.158    21016076.9414
  23795736.048    -4469144.725 8  -3470398.38045  23795735.835    23795748.4284
  23486660.229    -5701342.579 8  -4173054.52145  23486659.764    23486672.1504
  21882154.414   -14358459.489 8 -11169885.28747  21882154.180    21882163.9004
  20455608.395   -24044080.119 9 -18714670.43447  20455608.277    20455617.1024
  22871421.502    -8033766.270 8  -6243849.79246  22871420.834    22871431.7384
  24474114.368    -2438071.589 7  -1868495.48545  24474113.683    24474130.2934
 00  9 14  0 10  0.0000000  0 10 13 08 01 28 03 20 27 19 22 31
  21379304.038   -19258230.571 9 -14987095.44447  21379304.296    21379312.1024
  23545795.819    -2808387.632 8  -2163801.12645  23545795.366    23545808.9024
  20627134.683   -20493388.696 9 -15956124.03247  20627134.452    20627143.3834
  21020754.798   -21267495.663 9 -16235276.23647  21020754.574    21020762.3634
  23785591.995    -4522452.014 7  -3511936.39445  23785591.688    23785604.2964
  23507837.679    -5590054.633 8  -4086336.86845  23507837.163    23507849.5584
  21871787.555   -14412937.570 8 -11212335.68647  21871787.297    21871796.9404
  20453140.661   -24057048.038 9 -18724775.29547  20453140.565    20453149.4114
  22889643.790    -7938008.024 8  -6169233.04946  22889643.169    22889654.0654
  24456431.246    -2530995.436 7  -1940903.30945  24456430.895    24456447.0264
 00  9 14  0 10 30.0000000  0 10 13 08 01 28 03 20 27 19 22 31
  21368350.331   -19315792.163 9 -15031948.58747  21368350.629    21368358.4364
  23529380.012    -2894652.784 8  -2231020.61545  23529379.639    23529392.9934
  20632458.714   -20465410.967 9 -15934323.21947  20632458.466    20632467.3814
  21025542.742   -21242334.874 9 -16215670.42247  21025542.540    21025550.2974
  23775517.026    -4575395.049 7  -3553190.53445  23775516.773    23775529.3244
  23529039.055    -5478640.811 8  -3999521.16545  23529038.615    23529051.2214
  21861457.099   -14467223.723 8 -11254636.53147  21861456.908    21861466.4634
  20450725.935   -24069737.361 9 -18734663.06247  20450725.837    20450734.7084
  22907924.696    -7841941.361 8  -6094375.98746  22907924.094    22907935.0344
  24438755.298    -2623882.226 7  -2013282.30645  24438754.963    24438771.2164
 00  9 14  0 11  0.0000000  0 10 13 08 01 28 03 20 27 19 22 31
  21357446.987   -19373089.462 9 -15076595.79347  21357447.287    21357455.0674
  23512991.298    -2980775.943 8  -2298129.40545  23512990.885    23513004.1584
  20637853.201   -20437062.677 9 -15912233.66447  20637852.962    20637861.8624
  21030433.039   -21216636.465 9 -16195645.68247  21030432.764    21030440.5504
  23765511.874    -4627971.325 7  -3594158.90845  23765511.659    23765524.2844
  23550264.010    -5367104.037 8  -3912609.62145  23550263.402    23550276.0404
  21851163.281   -14521318.180 8 -11296788.01047  21851163.065    21851172.5964
  20448364.180   -24082148.647 9 -18744334.18147  20448364.052    20448372.9454
  22926263.828    -7745569.269 8  -6019280.93346  22926263.118    22926274.1734
  24421086.864    -2716729.251 7  -2085630.31245  24421086.694    24421102.8094
 00  9 14  0 11 30.0000000  0 10 13 08 01 28 03 20 27 19 22 31
  21346594.388   -19430120.387 9 -15121035.43247  21346594.630    21346602.3924
  23496629.647    -3066755.943 8  -2365126.64045  23496629.392    23496642.5774
  20643318.348   -20408343.148 9 -15889854.82147  20643318.108    20643326.9964
  21035425.369   -21190401.341 9 -16175202.72147  21035425.108    21035432.8904
  23755577.065    -4680177.738 7  -3634839.07045  23755576.937    23755589.9144
  23571511.812    -5255446.826 8  -3825604.22545  23571511.112    23571523.8534
  21840906.037   -14575220.419 8 -11338789.70947  21840905.796    21840915.2824
  20446055.267   -24094281.966 9 -18753788.69747  20446055.151    20446064.0144
  22944660.597    -7648893.882 8  -5943949.55246  22944659.892    22944670.9544
  24403426.716    -2809533.019 7  -2157944.56145  24403426.350    24403442.3954
 00  9 14  0 12  0.0000000  0 10 13 08 01 28 03 20 27 19 22 31
  21335792.544   -19486884.181 9 -15165266.92447  21335792.818    21335800.5444
  23480295.158    -3152593.277 8  -2432012.76045  23480294.871    23480308.1044
  20648854.081   -20379252.670 9 -15867186.92447  20648853.816    20648862.7454
  21040519.522   -21163631.431 9 -16154343.05747  21040519.242    21040527.0414
  23745713.206    -4732012.349 8  -3675229.56445  23745713.065    23745725.9274
  23592781.760    -5143672.695 8  -3738507.77045  23592781.187    23592793.9704
  21830685.175   -14628931.003 8 -11380642.05747  21830684.991    21830694.5214
  20443799.115   -24106138.212 9 -18763027.31847  20443798.992    20443807.8624
  22963114.420    -7551918.537 8  -5868384.43346  22963113.717    22963124.7584
  24385775.338    -2902290.789 7  -2230223.04645  24385774.870    24385790.7494
 00  9 14  0 12 30.0000000  0 10 13 08 01 28 03 20 27 19 22 31
  21325042.064   -19543378.306 9 -15209288.28047  21325042.300    21325050.0364
  23463987.970    -3238287.444 8  -2498787.25945  23463987.610    23464000.9374
  20654460.537   -20349790.798 9 -15844229.63447  20654460.255    20654469.1894
  21045715.143   -21136328.035 9 -16133067.68147  21045714.885    21045722.6954
  23735920.695    -4783472.520 8  -3715328.26845  23735920.455    23735933.2504
  23614073.452    -5031784.429 7  -3651322.35145  23614072.878    23614085.9624
  21820500.859   -14682449.921 8 -11422345.06447  21820500.632    21820510.1734
  20441595.581   -24117717.633 9 -18772050.22347  20441595.478    20441604.3534
  22981624.861    -7454646.354 8  -5792588.00946  22981624.083    22981635.1364
  24368133.296    -2994999.429 8  -2302463.24045  24368132.673    24368148.5914
 00  9 14  0 13  0.0000000  0 10 13 08 01 28 03 20 27 19 22 31
  21314343.155   -19599601.130 9 -15253098.23647  21314343.387    21314351.1604
  23447708.207    -3323837.683 8  -2565449.64945  23447707.770    23447721.1514
  20660137.727   -20319957.182 9 -15820982.67247  20660137.414    20660146.3504
  21051012.034   -21108492.572 9 -16111377.71047  21051011.798    21051019.6134
  23726199.635    -4834555.812 7  -3755133.25745  23726199.335    23726212.2124
  23635386.495    -4919784.712 8  -3564050.09745  23635386.013    23635399.0654
  21810353.021   -14735777.093 8 -11463898.65447  21810352.777    21810362.3504
  20439444.688   -24129020.584 9 -18780857.69647  20439444.577    20439453.4574
  23000191.103    -7357080.678 8  -5716562.89646  23000190.320    23000201.3234
  24350500.990    -3087655.787 7  -2374662.66445  24350500.630    24350516.6364
 00  9 14  0 13 30.0000000  0 10 13 08 01 28 03 20 27 19 22 31
  21303696.212   -19655551.242 9 -15296695.69647  21303696.428    21303704.1674
  23431455.905    -3409243.339 8  -2631999.33745  23431455.501    23431468.8504
  20665885.784   -20289750.946 9 -15797445.35547  20665885.505    20665894.4364
  21056410.153   -21080125.790 9 -16089273.71947  21056409.861    21056417.6774
  23716550.871    -4885259.321 7  -3794642.36845  23716550.504    23716563.2924
  23656720.251    -4807675.904 7  -3476692.86245  23656719.673    23656732.8484
  21800241.753   -14788912.013 9 -11505302.44447  21800241.507    21800251.0384
  20437346.469   -24140046.745 9 -18789449.49247  20437346.370    20437355.2504
  23018812.423    -7259223.679 8  -5640310.76646  23018811.808    23018822.9614
  24332879.069    -3180256.249 7  -2446818.58645  24332878.900    24332895.0724
 00  9 14  0 14  0.0000000  0 10 13 08 01 28 03 20 27 19 22 31
  21293101.590   -19711225.841 9 -15340078.47547  21293101.852    21293109.5584
  23415231.258    -3494503.858 8  -2698435.95645  23415230.823    23415244.1894
  20671704.798   -20259171.768 9 -15773617.44247  20671704.547    20671713.4954
  21061909.014   -21051229.011 9 -16066756.75747  21061908.714    21061916.5264
  23706974.889    -4935580.611 7  -3833853.64345  23706974.564    23706987.2834
  23678074.224    -4695460.929 8  -3389252.82545  23678073.830    23678086.7384
  21790167.113   -14841854.600 8 -11546556.38347  21790166.851    21790176.3484
  20435300.864   -24150796.204 9 -18797825.68147  20435300.776    20435309.6694
  23037489.190    -7161077.787 8  -5563833.53046  23037488.458    23037499.6494
  24315268.634    -3272797.720 7  -2518928.57045  24315268.521    24315284.8794
 00  9 14  0 14 30.0000000  0 10 13 08 01 28 03 20 27 19 22 31
  21282559.561   -19766624.573 9 -15383246.28447  21282559.791    21282567.5314
  23399034.287    -3579619.131 8  -2764759.37645  23399033.906    23399046.9544
  20677594.776   -20228219.821 9 -15749499.05247  20677594.489    20677603.4684
  21067508.402   -21021804.048 9 -16043828.21447  21067508.068    21067515.9074
  23697471.998    -4985517.284 8  -3872765.20245  23697471.832    23697484.6004
  23699447.876    -4583143.021 8  -3301732.67545  23699447.423    23699460.5974
  21780128.898   -14894605.181 9 -11587660.68247  21780128.671    21780138.1514
  20433307.728   -24161269.889 9 -18805986.97647  20433307.695    20433316.5494
  23056220.207    -7062646.258 8  -5487133.73146  23056219.372    23056230.6114
  24297670.179    -3365277.376 7  -2590990.31445  24297669.994    24297686.2824
 00  9 14  0 15  0.0000000  0 10 13 08 01 28 03 20 27 19 22 31
  21272070.584   -19821744.285 9 -15426196.69047  21272070.842    21272078.5534
  23382865.080    -3664587.788 8  -2830968.51945  23382864.810    23382877.8714
  20683555.952   -20196893.549 9 -15725088.98147  20683555.672    20683564.6434
  21073208.195   -20991851.297 9 -16020488.41547  21073207.882    21073215.7214
  23688043.218    -5035065.888 7  -3911374.36545  23688043.010    23688055.8844
  23720840.902    -4470723.587 8  -3214133.37445  23720840.383    23720853.6124
  21770127.508   -14947162.712 8 -11628614.55447  21770127.235    21770136.7724
  20431367.305   -24171467.186 9 -18813932.91047  20431367.229    20431376.0224
  23075005.039    -6963931.298 8  -5410213.05646  23075004.317    23075015.5244
  24280084.290    -3457691.115 7  -2663000.75245  24280084.078    24280100.3034
 00  9 14  0 15 30.0000000  0 10 13 08 01 28 03 20 27 19 22 31
  21261634.655   -19876584.957 9 -15468929.64847  21261634.986    21261642.7214
  23366723.829    -3749410.831 8  -2897064.25445  23366723.534    23366736.5154
  20689588.169   -20165194.113 9 -15700388.13047  20689587.896    20689596.8644
  21079007.952   -20961373.477 9 -15996739.47047  21079007.627    21079015.4574
  23678688.207    -5084225.309 7  -3949680.35945  23678688.035    23678700.9684
  23742252.242    -4358206.895 8  -3126458.30845  23742251.921    23742265.2434
  21760162.588   -14999528.600 8 -11669419.09847  21760162.343    21760171.8494
  20429479.061   -24181389.763 9 -18821664.76847  20429478.976    20429487.7764
  23093843.022    -6864937.469 8  -5333075.12445  23093842.176    23093853.5164
  24262511.254    -3550037.260 7  -2734958.53345  24262510.933    24262527.2044
 00  9 14  0 16  0.0000000  0 10 13 08 01 28 03 20 27 19 22 31
  21251252.405   -19931143.782 9 -15511442.99347  21251252.764    21251260.4564
  23350610.371    -3834087.307 8  -2963045.77145  23350610.020    23350622.8514
  20695691.612   -20133120.822 9 -15675395.96547  20695691.311    20695700.2154
  21084907.495   -20930371.641 9 -15972582.20547  21084907.112    21084914.9584
  23669408.142    -5132992.473 7  -3987680.60445  23669407.820    23669420.6294
  23763681.768    -4245595.547 8  -3038709.51945  23763681.394    23763694.7464
  21750234.294   -15051702.154 8 -11710073.75547  21750234.037    21750243.5404
  20427643.135   -24191037.432 9 -18829182.41647  20427643.087    20427651.8554
  23112733.531    -6765666.878 8  -5255721.50145  23112732.778    23112744.0644
  24244951.787    -3642311.979 7  -2806860.69845  24244951.449    24244967.4924
 00  9 14  0 16 30.0000000  0 10 13 08 01 28 03 20 27 19 22 31
  21240924.059   -19985419.573 9 -15553735.78547  21240924.394    21240932.1154
  23334524.844    -3918617.124 8  -3028912.94745  23334524.365    23334537.2344
  20701866.120   -20100673.764 9 -15650112.55947  20701865.806    20701874.6694
  21090906.336   -20898847.288 9 -15948017.78347  21090906.009    21090913.8554
  23660203.089    -5181365.277 8  -4025373.56445  23660202.833    23660215.4804
  23785129.014    -4132892.552 7  -2950889.26145  23785128.408    23785141.6914
  21740342.482   -15103683.742 9 -11750578.83647  21740342.204    21740351.6934
  20425859.454   -24200410.817 9 -18836486.33747  20425859.362    20425868.1604
  23131676.341    -6666122.247 8  -5178154.35445  23131675.464    23131686.9224
  24227406.601    -3734512.393 7  -2878704.96545  24227406.107    24227422.1534
 00  9 14  0 17  0.0000000  0 10 13 08 01 28 03 20 27 19 22 31
  21230650.105   -20039409.687 9 -15595805.97947  21230650.437    21230658.1174
  23318467.306    -4002999.018 8  -3094664.89045  23318466.782    23318479.7004
  20708111.935   -20067851.934 9 -15624537.12847  20708111.613    20708120.5034
  21097004.456   -20866801.537 9 -15923047.07347  21097004.138    21097011.9864
  23651073.536    -5229340.891 7  -4062757.03245  23651073.283    23651085.8094
  23806592.844    -4020100.119 8  -2862999.35245  23806592.179    23806605.5984
  21730487.374   -15155472.816 8 -11790933.90947  21730487.097    21730496.5094
  20424127.957   -24209509.703 9 -18843576.35947  20424127.871    20424136.6754
  23150670.634    -6566306.045 8  -5100375.59945  23150669.855    23150681.4014
  24209875.813    -3826634.652 7  -2950488.33745  24209875.552    24209891.6404
 00  9 14  0 17 30.0000000  0 10 13 08 01 28 03 20 27 19 22 31
  21220430.927   -20093111.850 9 -15637651.79547  21220431.271    21220438.9144
  23302437.919    -4087232.575 8  -3160301.30845  23302437.478    23302450.4404
  20714429.116   -20034654.815 9 -15598669.25847  20714428.819    20714437.7334
  21103201.637   -20834235.334 9 -15897670.81347  21103201.298    21103209.1324
  23642020.261    -5276916.544 7  -4099828.86245  23642020.060    23642032.4324
  23828073.203    -3907220.544 7  -2775041.50745  23828072.679    23828086.2804
  21720668.917   -15207068.902 8 -11831138.59447  21720668.614    21720678.0304
  20422448.749   -24218334.083 9 -18850452.48647  20422448.683    20422457.4224
  23169716.233    -6466221.208 7  -5022387.50845  23169715.390    23169726.9234
  24192360.990    -3918675.339 7  -3022208.11345  24192360.627    24192376.6844
 00  9 14  0 18  0.0000000  0 10 13 08 01 28 03 20 27 19 22 31
  21210266.623   -20146525.731 9 -15679272.97347  21210266.918    21210274.5334
  23286437.037    -4171317.607 8  -3225821.93945  23286436.626    23286449.4704
  20720817.730   -20001082.413 9 -15572508.95347  20720817.457    20720826.3684
  21109497.467   -20801150.688 9 -15871890.58047  21109497.139    21109504.9464
  23633043.163    -5324090.315 7  -4136587.54645  23633043.055    23633055.5674
  23849569.387    -3794257.181 7  -2687018.40845  23849568.896    23849582.7504
  21710886.978   -15258472.522 8 -11871193.32347  21710886.766    21710896.1564
  20420821.589   -24226884.861 9 -18857115.41647  20420821.509    20420830.2344
  23188812.366    -6365871.179 7  -4944192.77545  23188811.580    23188822.9844
  24174862.075    -4010631.655 7  -3093862.15245  24174861.772    24174877.6974
 00  9 14  0 18 30.0000000  0 10 13 08 01 28 03 20 27 19 22 31
  21200157.604   -20199649.073 9 -15720667.76047  21200157.836    21200165.4554
  23270464.207    -4255253.432 8  -3291226.28645  23270463.943    23270476.8204
  20727277.887   -19967134.227 9 -15546055.83747  20727277.624    20727286.5414
  21115891.683   -20767548.980 9 -15845707.43847  21115891.333    21115899.1264
  23624143.051    -5370859.395 7  -4173030.88045  23624143.026    23624155.5634
  23871081.592    -3681212.637 7  -2598932.04245  23871080.964    23871094.5944
  21701141.857   -15309683.363 8 -11911097.84347  21701141.642    21701151.0364
  20419246.462   -24235162.096 9 -18863565.19447  20419246.380    20419255.1124
  23207958.371    -6265257.995 8  -4865793.00345  23207957.634    23207969.0724
  24157379.905    -4102500.042 7  -3165447.67545  24157379.535    24157395.4774
 00  9 14  0 19  0.0000000  0 10 13 08 01 28 03 20 27 19 22 31
  21190104.079   -20252480.720 9 -15761835.24347  21190104.306    21190111.8914
  23254520.065    -4339040.789 8  -3356514.99245  23254519.741    23254532.4234
  20733809.352   -19932811.182 9 -15519310.62747  20733809.083    20733818.0164
  21122383.801   -20733432.536 9 -15819123.20547  21122383.458    21122391.2734
  23615320.611    -5417222.285 7  -4209157.71345  23615320.474    23615332.9054
  23892608.095    -3568090.583 7  -2510785.27645  23892607.621    23892621.3374
  21691433.252   -15360702.268 8 -11950852.78547  21691433.023    21691442.3934
  20417723.213   -24243166.688 9 -18869802.51747  20417723.134    20417731.8984
  23227154.183    -6164385.457 8  -4787191.13445  23227153.226    23227164.5544
  24139915.040    -4194278.377 7  -3236963.03245  24139914.675    24139930.4584
 00  9 14  0 19 30.0000000  0 10 13 08 01 28 03 20 27 19 22 31
  21180106.527   -20305017.931 9 -15802773.30847  21180106.787    21180114.3824
  23238604.309    -4422677.799 8  -3421686.56745  23238603.990    23238616.6604
  20740412.459   -19898111.613 9 -15492272.02147  20740412.162    20740421.1434
  21128973.858   -20698801.472 9 -15792137.97147  21128973.536    21128981.3234
  23606575.999    -5463175.326 7  -4244965.17645  23606575.768    23606588.1154
  23914149.070    -3454892.371 7  -2422579.18045  23914148.520    23914162.5804
  21681761.421   -15411527.877 8 -11990457.11947  21681761.199    21681770.5944
  20416252.031   -24250897.547 9 -18875826.55447  20416251.963    20416260.7184
  23246398.617    -6063255.078 8  -4708388.34245  23246397.813    23246409.1984
  24122468.047    -4285962.171 7  -3308404.77745  24122467.663    24122483.3264
 00  9 14  0 20  0.0000000  0 10 13 08 01 28 03 20 27 19 22 31
  21170165.133   -20357259.663 9 -15843481.12247  21170165.460    21170173.0634
  23222717.137    -4506165.020 8  -3486741.36345  23222716.798    23222729.3814
  20747087.030   -19863036.358 9 -15464940.66647  20747086.751    20747095.7664
  21135661.303   -20663658.671 9 -15764753.97447  21135660.996    21135668.7524
  23597909.610    -5508717.086 8  -4280452.15345  23597909.487    23597921.6264
  23935703.930    -3341621.960 7  -2334316.78645  23935703.467    23935717.3364
  21672126.195   -15462161.259 9 -12029911.65247  21672125.979    21672135.2994
  20414832.755   -24258356.254 9 -18881638.52047  20414832.616    20414841.3614
  23265691.658    -5961871.355 8  -4629388.14445  23265690.647    23265702.0184
  24105039.465    -4377549.234 7  -3379771.10545  24105039.000    24105054.3864
 00  9 14  0 20 30.0000000  0 10 13 08 01 28 03 20 27 19 22 31
  21160280.521   -20409203.810 9 -15883957.04447  21160280.803    21160288.4004
  23206858.386    -4589501.924 8  -3551679.08645  23206858.147    23206870.7074
  20753833.170   -19827585.019 9 -15437316.25547  20753832.920    20753841.9694
  21142445.940   -20628005.277 9 -15736972.10547  21142445.580    21142453.3364
  23589322.101    -5553844.999 7  -4315616.66245  23589321.963    23589333.8514
  23957271.723    -3228281.789 7  -2246000.08645  23957271.176    23957285.5924
  21662527.643   -15512602.175 8 -12069216.21647  21662527.405    21662536.6494
  20413465.193   -24265542.700 9 -18887238.33047  20413465.072    20413473.8454
  23285032.191    -5860236.741 7  -4550192.45045  23285031.148    23285042.5334
  24087629.873    -4469036.077 7  -3451059.29945  24087629.482    24087644.7594
 00  9 14  0 21  0.0000000  0 10 13 08 01 28 03 20 27 19 22 31
  21150453.002   -20460847.685 9 -15924198.99047  21150453.266    21150460.8594
  23191029.050    -4672686.114 8  -3616497.77445  23191028.755    23191041.1064
  20760651.306   -19791755.525 9 -15409397.19747  20760651.070    20760660.1074
  21149327.756   -20591840.962 9 -15708792.13847  21149327.435    21149335.1754
  23580813.962    -5598554.941 8  -4350455.49145  23580813.742    23580825.8104
  23978853.094    -3114872.765 7  -2157629.70845  23978852.495    23978866.7164
  21652966.009   -15562848.539 8 -12108369.20047  21652965.774    21652975.0594
  20412149.683   -24272455.611 9 -18892625.01647  20412149.583    20412158.3534
  23304420.216    -5758351.716 8  -4470801.62345  23304419.237    23304430.5974
  24070240.731    -4560417.629 7  -3522265.42445  24070239.831    24070255.1724
 00  9 14  0 21 30.0000000  0 10 13 08 01 28 03 20 27 19 22 31
  21140682.684   -20512190.609 9 -15964206.43147  21140683.010    21140690.5824
  23175228.067    -4755719.428 8  -3681198.86445  23175227.754    23175240.2704
  20767541.031   -19755550.001 9 -15381185.11647  20767540.801    20767549.7844
  21156306.014   -20555169.795 9 -15680217.20747  21156305.734    21156313.4444
  23572385.409    -5642846.874 7  -4384968.58945  23572385.277    23572397.4464
  24000446.751    -3001399.927 7  -2069209.64445  24000446.037    24000459.9724
  21643440.966   -15612902.628 8 -12147372.33547  21643440.748    21643450.0924
  20410885.774   -24279097.590 9 -18897800.57747  20410885.648    20410894.4454
  23323854.953    -5656221.392 8  -4391219.66345  23323854.042    23323865.5254
  24052871.422    -4651692.806 7  -3593388.74145  24052870.684    24052886.0294
 00  9 14  0 22  0.0000000  0 10 13 08 01 28 03 20 27 19 22 31
  21130970.148   -20563230.633 9 -16003977.84247  21130970.424    21130977.9664
  23159456.324    -4838601.031 8  -3745781.79845  23159455.973    23159468.4124
  20774502.456   -19718967.611 9 -15352679.37747  20774502.221    20774511.1894
  21163380.595   -20517992.704 9 -15651248.04547  21163380.297    21163388.0304
  23564037.059    -5686717.794 7  -4419153.62545  23564036.946    23564049.0594
  24022051.809    -2887865.518 7  -1980741.53144  24022051.170    24022064.7874
  21633952.612   -15662763.831 8 -12186225.18547  21633952.407    21633961.7604
  20409673.439   -24285468.136 9 -18902764.63347  20409673.337    20409682.1724
  23343335.943    -5553848.201 7  -4311448.44245  23343335.056    23343346.4984
  24035523.122    -4742857.866 7  -3664426.20645  24035522.535    24035537.7184
 00  9 14  0 22 30.0000000  0 10 13 08 01 28 03 20 27 19 22 31
  21121315.584   -20613965.581 9 -16043511.52847  21121315.857    21121323.3964
  23143713.328    -4921329.780 8  -3810245.58445  23143712.932    23143725.5134
  20781535.712   -19682007.510 9 -15323879.31847  20781535.472    20781544.4534
  21170551.209   -20480310.753 9 -15621885.49347  21170550.913    21170558.6924
  23555769.281    -5730164.833 8  -4453008.36745  23555769.140    23555781.3454
  24043668.177    -2774271.695 7  -1892227.20245  24043667.365    24043681.6964
  21624501.125   -15712431.623 9 -12224927.31547  21624500.930    21624510.2594
  20408512.882   -24291567.028 9 -18907517.01547  20408512.791    20408521.5704
  23362862.320    -5451234.802 8  -4231490.05245  23362861.707    23362873.2844
  24018196.558    -4833908.819 7  -3735374.75445  24018195.980    24018211.1294
 00  9 14  0 23  0.0000000  0 10 13 08 01 28 03 20 27 19 22 31
  21111719.374   -20664393.747 9 -16082806.16047  21111719.661    21111727.2204
  23127999.643    -5003905.402 8  -3874590.09845  23127999.219    23128011.7284
  20788640.959   -19644669.330 9 -15294784.64747  20788640.703    20788649.6954
  21177817.629   -20442125.336 9 -15592130.63347  21177817.372    21177825.1454
  23547582.724    -5773185.683 8  -4486531.02945  23547582.608    23547594.7154
  24065295.393    -2660621.091 7  -1803668.57644  24065294.633    24065308.6444
  21615086.542   -15761905.615 8 -12263478.43647  21615086.327    21615095.5874
  20407403.917   -24297394.611 9 -18912057.98647  20407403.848    20407412.5844
  23382434.170    -5348383.635 8  -4151346.38845  23382433.698    23382445.2974
  24000892.050    -4924842.305 7  -3806231.79145  24000891.548    24000906.9834
 00  9 14  0 23 30.0000000  0 10 13 08 01 28 03 20 27 19 22 31
  21102181.662   -20714514.394 9 -16121861.17047  21102181.963    21102189.5464
  23112314.979    -5086328.322 8  -3938815.60645  23112314.518    23112326.9014
  20795817.966   -19606954.031 9 -15265396.11847  20795817.695    20795826.6654
  21185179.354   -20403439.415 9 -15561985.77247  21185179.086    21185186.8434
  23539477.485    -5815778.957 8  -4519720.50345  23539477.358    23539489.3934
  24086932.659    -2546917.597 7  -1715068.79044  24086932.154    24086946.4914
  21605708.540   -15811186.929 8 -12301879.42447  21605708.359    21605717.5864
  20406346.323   -24302952.220 9 -18916388.58747  20406346.241    20406354.9624
  23402050.844    -5245298.346 8  -4071020.30245  23402050.337    23402061.8874
  23983610.789    -5015656.576 7  -3876995.91945  23983610.172    23983625.2344
 00  9 14  0 24  0.0000000  0 10 13 08 01 28 03 20 27 19 22 31
  21092703.125   -20764324.321 9 -16160674.05347  21092703.435    21092711.0374
  23096659.499    -5168597.304 8  -4002921.19245  23096659.126    23096671.4134
  20803066.968   -19568860.626 9 -15235712.96547  20803066.627    20803075.5874
  21192636.186   -20364253.572 9 -15531451.35747  21192635.874    21192643.6664
  23531454.213    -5857941.731 8  -4552574.49745  23531453.983    23531465.9564
  24108579.610    -2433163.016 7  -1626429.17544  24108579.117    24108593.3994
  21596367.405   -15860274.579 8 -12340129.48447  21596367.256    21596376.4804
  20405340.224   -24308239.176 9 -18920508.27747  20405340.157    20405348.9024
  23421711.671    -5141980.599 8  -3990513.05545  23421711.127    23421722.7394
  23966352.975    -5106347.217 7  -3947663.71945  23966352.251    23966367.2354
 00  9 14  0 24 30.0000000  0 10 13 08 01 28 03 20 27 19 22 31
  21083283.733   -20813823.313 9 -16199244.65547  21083284.036    21083291.6404
  23081033.403    -5250712.638 8  -4066906.98246  23081033.023    23081045.4014
  20810387.690   -19530389.931 9 -15205735.82547  20810387.399    20810396.3424
  21200187.631   -20324570.415 8 -15500529.42847  21200187.326    21200195.1514
  23523513.059    -5899672.616 8  -4585091.97345  23523512.911    23523524.6904
  24130235.797    -2319360.858 7  -1537752.49844  24130235.155    24130249.1374
  21587063.029   -15909169.448 8 -12378229.33947  21587062.857    21587072.0784
  20404385.408   -24313256.640 9 -18924417.98247  20404385.338    20404394.0784
  23441416.014    -5038434.606 8  -3909827.96845  23441415.365    23441426.8594
  23949118.512    -5196911.983 7  -4018233.41745  23949117.951    23949133.1874
 00  9 14  0 25  0.0000000  0 10 13 08 01 28 03 20 27 19 22 31
  21073924.248   -20863007.757 9 -16237570.15747  21073924.536    21073932.1284
  23065437.006    -5332672.998 8  -4130772.09846  23065436.541    23065448.7654
  20817780.498   -19491540.538 9 -15175463.59647  20817780.201    20817789.1474
  21207833.625   -20284390.417 9 -15469220.35047  21207833.313    21207841.1434
  23515654.669    -5940968.000 8  -4617270.08845  23515654.491    23515666.3064
  24151900.364    -2205512.566 7  -1449039.90844  24151899.618    24151913.9514
  21577795.576   -15957870.255 9 -12416177.99047  21577795.363    21577804.5264
  20403482.031   -24318003.731 9 -18928117.00547  20403481.953    20403490.7174
  23461163.500    -4934662.120 8  -3828966.37945  23461162.755    23461174.2324
  23931909.383    -5287345.866 7  -4088701.13745  23931908.905    23931923.8664
 00  9 14  0 25 30.0000000  0 10 13 08 01 28 03 20 27 19 22 31
  21064624.694   -20911877.402 9 -16275650.35947  21064624.934    21064632.4854
  23049869.578    -5414479.041 8  -4194516.93546  23049869.078    23049881.4784
  20825245.140   -19452313.609 9 -15144897.17547  20825244.843    20825253.8064
  21215573.598   -20243716.709 9 -15437526.55747  21215573.324    21215581.1414
  23507879.439    -5981827.230 8  -4649108.35945  23507879.184    23507890.7144
  24173573.454    -2091622.347 7  -1360294.57544  24173573.083    24173587.1174
  21568564.794   -16006378.149 9 -12453976.30047  21568564.544    21568573.7434
  20402629.837   -24322482.188 9 -18931606.70147  20402629.773    20402638.5134
  23480953.161    -4830666.873 8  -3747931.22145  23480952.574    23480963.9474
  23914725.217    -5377647.433 7  -4159065.70345  23914724.721    23914739.8334
 00  9 14  0 26  0.0000000  0 10 13 08 01 28 03 20 27 19 22 31
  21055385.539   -20960429.290 9 -16313482.96647  21055385.800    21055393.3004
  23034331.818    -5496129.128 8  -4258140.26346  23034331.424    23034343.8644
  20832782.017   -19412707.435 9 -15114035.25347  20832781.695    20832790.6284
  21223407.527   -20202549.335 9 -15405448.10447  21223407.231    21223415.0044
  23500187.688    -6022246.400 7  -4680603.73845  23500187.529    23500199.1264
  24195253.826    -1977691.416 7  -1271517.64644  24195253.643    24195268.2144
  21559370.957   -16054691.632 8 -12491623.12647  21559370.738    21559379.9484
  20401829.004   -24326690.639 9 -18934886.00647  20401828.928    20401837.6664
  23500785.208    -4726449.921 8  -3666723.29245  23500784.615    23500795.7994
  23897567.554    -5467811.760 7  -4229323.42545  23897566.909    23897581.7824
 00  9 14  0 26 30.0000000  0 10 13 08 01 28 03 20 27 19 22 31
  21046207.075   -21008662.163 9 -16351066.97747  21046207.354    21046214.8634
  23018823.982    -5577623.441 8  -4321642.18646  23018823.490    23018835.8224
  20840390.827   -19372722.889 9 -15082878.48547  20840390.518    20840399.4514
  21231334.831   -20160890.925 9 -15372987.01147  21231334.573    21231342.3184
  23492580.032    -6062223.953 8  -4711754.98045  23492579.875    23492591.6564
  24216941.576    -1863723.314 7  -1182711.65444  24216941.439    24216956.1844
  21550214.054   -16102811.485 9 -12529119.07347  21550213.808    21550223.0524
  20401079.320   -24330630.094 9 -18937955.69247  20401079.237    20401088.0244
  23520658.678    -4622014.793 8  -3585345.36245  23520658.147    23520669.2164
  23880436.214    -5557836.105 7  -4299472.04945  23880435.580    23880450.3544
 00  9 14  0 27  0.0000000  0 10 13 08 01 28 03 20 27 19 22 31
  21037089.628   -21056574.688 9 -16388401.38447  21037089.906    21037097.3694
  23003345.707    -5658961.704 8  -4385022.54746  23003345.296    23003357.5364
  20848071.687   -19332359.826 9 -15051426.77547  20848071.380    20848080.3214
  21239355.345   -20118743.247 9 -15340144.67947  21239355.050    21239362.7624
  23485057.006    -6101757.646 8  -4742560.37245  23485056.853    23485068.6674
  24238636.046    -1749720.401 7  -1093878.56344  24238635.822    24238650.7644
  21541094.018   -16150737.663 9 -12566464.11047  21541093.731    21541102.9664
  20400380.752   -24334300.859 9 -18940816.01547  20400380.670    20400389.4724
  23540572.982    -4517364.770 8  -3503799.98845  23540572.451    23540583.5684
  23863331.889    -5647717.383 7  -4369509.18945  23863331.380    23863346.3394
 00  9 14  0 27 30.0000000  0 10 13 08 01 28 03 20 27 19 22 31
  21028033.592   -21104164.574 9 -16425484.37947  21028033.845    21028041.2654
  22987897.214    -5740143.311 8  -4448280.83746  22987896.821    22987909.0624
  20855824.591   -19291618.196 9 -15019680.07447  20855824.253    20855833.2364
  21247468.588   -20076108.093 9 -15306922.49947  21247468.294    21247475.9884
  23477618.449    -6140845.741 8  -4773018.53745  23477618.413    23477630.2884
  24260336.472    -1635685.795 7  -1005020.84644  24260336.496    24260351.0104
  21532010.764   -16198470.100 8 -12603658.16947  21532010.499    21532019.7524
  20399733.305   -24337703.480 9 -18943467.39347  20399733.189    20399741.9554
  23560527.675    -4412502.721 8  -3422089.37945  23560527.096    23560538.2534
  23846255.485    -5737452.405 7  -4439432.32745  23846255.012    23846270.1684
 00  9 14  0 28  0.0000000  0 10 13 08 01 28 03 20 27 19 22 31
  21019039.239   -21151429.806 9 -16462314.40347  21019039.522    21019046.9384
  22972478.680    -5821167.953 8  -4511416.82146  22972478.334    22972490.5034
  20863649.545   -19250497.745 9 -14987638.19647  20863649.266    20863658.2674
  21255674.250   -20032987.081 9 -15273321.73147  21255673.943    21255681.6534
  23470265.536    -6179485.570 8  -4803127.38945  23470265.413    23470277.1104
  24282042.307    -1521621.944 7   -916140.25444  24282042.461    24282057.0964
  21522964.465   -16246008.477 9 -12640701.01947  21522964.212    21522973.4914
  20399136.827   -24340837.855 9 -18945909.75147  20399136.722    20399145.4834
  23580522.484    -4307430.763 8  -3340215.22845  23580521.805    23580533.0044
  23829207.893    -5827037.305 7  -4509238.53545  23829207.433    23829222.5324
 00  9 14  0 28 30.0000000  0 10 13 08 01 28 03 20 27 19 22 31
  21010106.855   -21198369.653 9 -16498890.88247  21010107.146    21010114.5374
  22957090.074    -5902035.645 8  -4574430.51246  22957089.657    22957101.7534
  20871546.430   -19208999.361 9 -14955301.81947  20871546.149    20871555.1804
  21263971.973   -19989382.516 9 -15239344.15947  21263971.619    21263979.3394
  23462998.135    -6217676.237 8  -4832886.27245  23462997.994    23463009.5204
  24303753.439    -1407532.210 7   -827239.50745  24303753.151    24303768.2024
  21513955.008   -16293353.569 8 -12677593.26447  21513954.749    21513963.9694
  20398591.141   -24343705.267 9 -18948144.08447  20398591.069    20398599.8294
  23600556.078    -4202152.267 8  -3258180.12845  23600555.625    23600566.8504
  23812189.663    -5916469.889 7  -4578926.06645  23812189.095    23812203.8604
 00  9 14  0 29  0.0000000  0 10 13 08 01 28 03 20 27 19 22 31
  21001236.743   -21244982.286 9 -16535212.39047  21001237.006    21001244.3874
  22941731.329    -5982746.251 8  -4637321.75246  22941730.910    22941742.8564
  20879515.284   -19167122.715 9 -14922670.69947  20879515.072    20879524.0794
  21272361.222   -19945296.385 9 -15204991.34547  21272360.951    21272368.6734
  23455816.688    -6255415.416 8  -4862293.33845  23455816.407    23455828.0094
  24325468.574    -1293419.294 7   -738320.72145  24325468.428    24325483.4954
  21504982.321   -16340505.271 8 -12714334.82147  21504982.081    21504991.2644
  20398096.258   -24346306.016 9 -18950170.63047  20398096.132    20398104.9234
  23620628.690    -4096670.164 8  -3175986.37045  23620628.229    23620639.6064
  23795200.675    -6005746.785 8  -4648492.26045  23795200.226    23795214.9154
 00  9 14  0 29 30.0000000  0 10 13 08 01 28 03 20 27 19 22 31
  20992429.369   -21291264.986 9 -16571276.80647  20992429.644    20992437.0804
  22926402.830    -6063298.092 8  -4700089.28846  22926402.423    22926414.2804
  20887556.417   -19124866.510 9 -14889743.81947  20887556.176    20887565.1974
  21280842.097   -19900729.345 9 -15170263.80047  21280841.830    21280849.5414
  23448721.480    -6292699.683 8  -4891345.93145  23448721.209    23448732.9424
  24347188.338    -1179284.836 7   -649385.14445  24347187.782    24347203.2304
  21496046.739   -16387462.201 9 -12750924.60247  21496046.447    21496055.6354
  20397652.207   -24348638.887 9 -18951988.44247  20397652.119    20397660.9344
  23640739.777    -3990986.309 8  -3093635.39445  23640739.296    23640750.6184
  23778242.346    -6094863.347 7  -4717933.56245  23778242.026    23778256.3534
 00  9 14  0 30  0.0000000  0 10 13 08 01 28 03 20 27 19 22 31
  20983685.140   -21337215.983 9 -16607082.75147  20983685.437    20983692.9004
  22911104.189    -6143691.470 8  -4762733.37446  22911103.863    22911115.6964
  20895669.626   -19082231.454 9 -14856521.72547  20895669.389    20895678.3804
  21289413.984   -19855683.799 9 -15135163.39147  21289413.676    21289421.4284
  23441713.112    -6329527.583 7  -4920042.95245  23441712.901    23441724.6304
  24368911.079    -1065132.210 7   -560435.39445  24368910.454    24368926.0544
  21487148.103   -16434224.950 9 -12787363.07847  21487147.777    21487156.9094
  20397259.096   -24350704.838 9 -18953598.26447  20397259.001    20397267.8084
  23660888.649    -3885104.152 8  -3011129.91445  23660887.928    23660899.3984
  23761314.845    -6183817.374 8  -4787248.13645  23761314.464    23761328.8714
 00  9 14  0 30 30.0000000  0 10 13 08 01 28 03 20 27 19 22 31
  20975004.380   -21382833.760 9 -16642629.05147  20975004.646    20975012.0894
  22895836.141    -6223925.715 8  -4825253.39546  22895835.743    22895847.5264
  20903854.999   -19039217.256 9 -14823004.19547  20903854.772    20903863.7134
  21298076.648   -19810161.358 9 -15099691.38047  21298076.299    21298084.0954
  23434792.257    -6365896.686 8  -4948382.42645  23434791.982    23434803.7364
  24390637.097     -950963.613 7   -471473.22545  24390636.253    24390651.8784
  21478286.344   -16480793.181 9 -12823649.96547  21478286.062    21478295.2904
  20396916.748   -24352503.876 9 -18955000.09647  20396916.638    20396925.4624
  23681074.692    -3779025.646 8  -2928471.44445  23681074.064    23681085.5974
  23744419.042    -6272605.065 8  -4856433.16145  23744418.701    23744433.0214
 00  9 14  0 31  0.0000000  0 10 13 08 01 28 03 20 27 19 22 31
  20966387.208   -21428116.981 9 -16677914.65447  20966387.502    20966394.9374
  22880598.196    -6304001.337 8  -4887649.86346  22880597.792    22880609.4234
  20912112.345   -18995824.781 9 -14789191.90047  20912112.086    20912121.0364
  21306829.492   -19764164.938 9 -15063850.03347  21306829.119    21306836.9824
  23427958.789    -6401806.091 8  -4976363.72645  23427958.711    23427970.4024
  24412365.396     -836782.731 7   -382501.47245  24412364.681    24412380.2554
  21469461.528   -16527167.648 9 -12859785.86547  21469461.252    21469470.5064
  20396624.949   -24354037.158 9 -18956194.84947  20396624.870    20396633.7064
  23701297.519    -3672754.436 8  -2845662.78845  23701296.824    23701308.5414
  23727555.265    -6361223.962 8  -4925486.65445  23727554.965    23727569.4264
 00  9 14  0 31 30.0000000  0 10 13 08 01 28 03 20 27 19 22 31
  20957834.280   -21473063.028 9 -16712937.53147  20957834.573    20957841.9604
  22865390.773    -6383916.174 8  -4949921.06246  22865390.321    22865402.0474
  20920441.922   -18952052.328 9 -14755083.53447  20920441.730    20920450.6824
  21315672.453   -19717694.555 8 -15027639.36647  21315672.127    21315680.0174
  23421213.502    -6437252.344 8  -5003984.09345  23421213.481    23421225.3354
  24434095.759     -722590.539 7   -293520.94345  24434095.117    24434110.5794
  21460673.893   -16573346.771 9 -12895769.55547  21460673.615    21460682.8604
  20396384.047   -24355303.488 9 -18957181.58948  20396383.907    20396392.7104
  23721556.940    -3566291.766 7  -2762704.98545  23721556.018    23721567.8874
  23710724.634    -6449669.209 8  -4994404.85345  23710724.228    23710738.5394
 00  9 14  0 32  0.0000000  0 10 13 08 01 28 03 20 27 19 22 31
  20949345.678   -21517670.813 9 -16747696.82447  20949345.989    20949353.3374
  22850213.678    -6463671.014 8  -5012067.55246  22850213.317    22850225.1034
  20928843.724   -18907900.751 9 -14720679.74647  20928843.533    20928852.5004
  21324605.075   -19670753.101 9 -14991061.63647  21324604.803    21324612.6864
  23414556.882    -6472234.177 8  -5031242.59445  23414556.759    23414568.5074
  24455827.719     -608390.797 7   -204534.50045  24455826.783    24455842.4154
  21451923.294   -16619331.325 9 -12931601.63047  21451923.023    21451932.2924
  20396193.673   -24356303.855 9 -18957961.07848  20396193.519    20396202.3514
  23741851.741    -3459641.789 8  -2679601.21245  23741850.968    23741862.8814
  23693927.471    -6537938.497 8  -5063185.91145  23693926.985    23693941.0744
 00  9 14  0 32 30.0000000  0 10 13 08 01 28 03 20 27 19 22 31
  20940921.750   -21561938.640 9 -16782191.21447  20940922.061    20940929.4134
  22835067.206    -6543265.503 8  -5074089.06446  22835066.802    22835078.6474
  20937317.656   -18863370.477 9 -14685980.86547  20937317.397    20937326.3694
  21333627.031   -19623342.688 9 -14954118.47747  21333626.717    21333634.5654
  23407988.817    -6506749.719 8  -5058137.75545  23407988.597    23408000.3634
  24477560.333     -494186.177 7   -115544.26145  24477559.717    24477574.9124
  21443209.729   -16665121.457 9 -12967282.21547  21443209.435    21443218.6434
  20396053.785   -24357038.848 9 -18958533.79148  20396053.666    20396062.5214
  23762181.810    -3352806.996 7  -2596353.42645  23762180.994    23762192.9534
  23677164.455    -6626028.792 8  -5131827.50845  23677163.871    23677177.7354
 00  9 14  0 33  0.0000000  0 10 13 08 01 28 03 20 27 19 22 31
  20932563.165   -21605863.315 9 -16816418.21247  20932563.478    20932570.7904
  22819951.494    -6622698.520 8  -5135984.76946  22819951.087    22819962.7924
  20945863.710   -18818460.696 9 -14650986.25747  20945863.460    20945872.4654
  21342738.056   -19575464.417 9 -14916810.75547  21342737.690    21342745.4914
  23401509.902    -6540796.262 8  -5084667.46945  23401509.832    23401521.3004
  24499293.271     -379978.713 7    -26551.79845  24499292.932    24499307.9324
  21434533.245   -16710716.239 9 -13002810.57647  21434532.992    21434542.1654
  20395964.525   -24357508.067 9 -18958899.41148  20395964.398    20395973.2364
  23782546.718    -3245788.894 7  -2512962.80645  23782545.896    23782557.7944
  23660436.174    -6713935.668 8  -5200326.18845  23660435.602    23660449.0744
 00  9 14  0 33 30.0000000  0 10 13 08 01 28 03 20 27 19 22 31
  20924269.820   -21649444.828 9 -16850377.80847  20924270.169    20924277.4344
  22804866.202    -6701970.742 8  -5197755.15446  22804865.920    22804877.6944
  20954481.759   -18773172.554 9 -14615696.82347  20954481.524    20954490.5744
  21351937.352   -19527121.227 9 -14879140.75747  21351937.062    21351944.8594
  23395120.471    -6574372.874 8  -5110830.98445  23395120.485    23395131.8524
  24521026.357     -265772.144 7     62439.95045  24521025.846    24521041.5714
  21425893.782   -16756116.940 9 -13038187.70247  21425893.503    21425902.6534
  20395925.530   -24357712.791 9 -18959058.92948  20395925.445    20395934.2564
  23802945.967    -3138591.501 7  -2429432.47045  23802945.054    23802956.8794
  23643742.994    -6801657.109 8  -5268680.35745  23643742.489    23643755.9364
 00  9 14  0 34  0.0000000  0 10 13 08 01 28 03 20 27 19 22 31
  20916042.430   -21692680.326 9 -16884067.78847  20916042.735    20916050.0014
  22789812.238    -6781080.424 8  -5259398.95146  22789811.742    22789823.5944
  20963172.080   -18727504.638 9 -14580111.47147  20963171.848    20963180.9254
  21361225.110   -19478313.729 9 -14841108.96347  21361224.832    21361232.6324
  23388820.968    -6607476.151 8  -5136625.68645  23388821.007    23388832.4254
  24542758.753     -151567.663 7    151430.06345  24542758.391    24542774.1484
  21417291.568   -16801321.811 9 -13073412.23347  21417291.258    21417300.3784
  20395937.117   -24357651.828 9 -18959011.41648  20395937.036    20395945.8424
  23823378.763    -3031216.314 7  -2345763.60945  23823377.998    23823389.8994
  23627086.155    -6889188.030 8  -5336886.07545  23627085.680    23627099.1294
 00  9 14  0 34 30.0000000  0 10 13 08 01 28 03 20 27 19 22 31
  20907880.969   -21735569.126 9 -16917487.60047  20907881.225    20907888.5244
  22774788.814    -6860028.609 8  -5320916.88446  22774788.283    22774800.1604
  20971934.368   -18681458.506 9 -14544231.39547  20971934.102    20971943.2224
  21370600.720   -19429045.247 9 -14802717.95747  21370600.361    21370608.1564
  23382611.525    -6640105.730 8  -5162051.25445  23382611.525    23382623.1844
  24564490.430      -37369.475 7    240415.28544  24564489.867    24564505.7994
  21408726.325   -16846332.348 9 -13108485.32647  21408725.998    21408735.0984
  20395998.978   -24357326.990 9 -18958758.28248  20395998.844    20396007.6414
  23843844.251    -2923667.745 7  -2261959.64845  23843843.860    23843855.8414
  23610465.905    -6976526.897 8  -5404942.16245  23610465.386    23610478.8944
 00  9 14  0 35  0.0000000  0 10 13 08 01 28 03 20 27 19 22 31
  20899786.013   -21778108.195 9 -16950634.90147  20899786.309    20899793.5894
  22759796.388    -6938813.477 8  -5382307.58246  22759795.911    22759807.7004
  20980768.866   -18635032.681 9 -14508055.45647  20980768.616    20980777.8024
  21380063.833   -19379316.298 9 -14763968.14547  21380063.470    21380071.3024
  23376492.912    -6672258.255 8  -5187105.08645  23376492.852    23376504.6864
  24586220.496       76821.371 7    329394.78445  24586220.174    24586236.2634
  21400198.289   -16891147.010 9 -13143405.79747  21400198.001    21400207.1504
  20396111.237   -24356737.080 9 -18958298.60448  20396111.106    20396119.9034
  23864343.126    -2815946.471 7  -2178021.09045  23864342.649    23864354.5174
  23593883.136    -7063668.984 8  -5472844.90145  23593882.725    23593896.2464
 00  9 14  0 35 30.0000000  0 10 13 08 01 28 03 20 27 19 22 31
  20891757.877   -21820296.258 9 -16983508.69447  20891758.177    20891765.4544
  22744835.011    -7017435.536 8  -5443571.39146  22744834.559    22744846.2864
  20989675.470   -18588228.360 9 -14471584.59547  20989675.230    20989684.4414
  21389614.008   -19329129.810 9 -14724861.81347  21389613.649    21389621.5674
  23370465.225    -6703932.682 8  -5211786.40345  23370465.244    23370477.0574
  24607948.537      191001.349 7    418365.75544  24607948.091    24607964.2614
  21391707.362   -16935766.670 9 -13178174.33247  21391707.139    21391716.2664
  20396273.692   -24355883.408 9 -18957633.40348  20396273.574    20396282.3594
  23884874.060    -2708055.942 7  -2093950.66345  23884873.556    23884885.6324
  23577338.056    -7150611.936 7  -5540592.47445  23577337.700    23577351.2974
 00  9 14  0 36  0.0000000  0 10 13 08 01 28 03 20 27 19 22 31
  20883796.836   -21862131.848 9 -17016107.82847  20883797.118    20883804.4134
  22729904.523    -7095894.374 8  -5504708.02746  22729904.185    22729915.9684
  20998654.138   -18541045.505 9 -14434818.76847  20998653.874    20998663.0674
  21399250.892   -19278487.538 8 -14685400.32347  21399250.577    21399258.5334
  23364528.970    -6735127.315 8  -5236093.83945  23364529.022    23364540.7754
  24629673.707      305167.771 7    507326.19144  24629673.392    24629689.5094
  21383253.632   -16980191.056 9 -13212790.70847  21383253.422    21383262.5184
  20396486.302   -24354766.220 9 -18956762.86248  20396486.166    20396494.9394
  23905436.772    -2599998.893 7  -2009750.46045  23905436.111    23905448.2204
  23560831.658    -7237352.065 8  -5608181.98545  23560831.386    23560845.0074
 00  9 14  0 36 30.0000000  0 10 13 08 01 28 03 20 27 19 22 31
  20875903.161   -21903613.105 9 -17048430.85447  20875903.473    20875910.7824
  22715005.351    -7174189.952 8  -5565717.44546  22715004.990    22715016.8584
  21007704.811   -18493484.340 9 -14397758.16047  21007704.499    21007713.6984
  21408974.046   -19227391.986 9 -14645585.63747  21408973.756    21408981.6974
  23358684.449    -6765840.696 8  -5260026.24845  23358684.480    23358696.1354
  24651395.830      419317.674 7    596273.71844  24651395.204    24651412.2244
  21374837.062   -17024420.431 9 -13247255.11647  21374836.838    21374845.9464
  20396749.028   -24353385.819 9 -18955687.21748  20396748.845    20396757.6214
  23926030.185    -2491778.604 7  -1925423.08745  23926029.734    23926041.8674
  23544364.603    -7323886.476 8  -5675611.25945  23544364.336    23544377.7094
 00  9 14  0 37  0.0000000  0 10 13 08 01 28 03 20 27 19 22 31
  20868077.176   -21944738.570 9 -17080476.64247  20868077.521    20868084.8214
  22700137.257    -7252321.704 8  -5626599.19546  22700136.833    22700148.8094
  21016827.345   -18445544.922 9 -14360402.80047  21016827.103    21016836.3064
  21418783.125   -19175844.889 9 -14605419.09147  21418782.865    21418790.7394
  23352931.766    -6796070.658 8  -5283581.98145  23352931.722    23352943.5854
  24673114.872      533448.848 7    685206.66544  24673113.779    24673130.8454
  21366457.585   -17068454.476 9 -13281567.33247  21366457.379    21366466.4924
  20397061.755   -24351742.402 9 -18954406.62948  20397061.578    20397070.3464
  23946654.590    -2383397.733 7  -1840970.56845  23946654.037    23946666.1524
  23527937.363    -7410211.738 8  -5742877.53645  23527937.138    23527950.3134
 00  9 14  0 37 30.0000000  0 10 13 08 01 28 03 20 27 19 22 31
  20860319.356   -21985506.293 9 -17112243.67147  20860319.681    20860326.9604
  22685300.462    -7330288.549 8  -5687352.49946  22685300.104    22685311.9524
  21026022.024   -18397226.774 9 -14322752.33847  21026021.728    21026030.9334
  21428677.956   -19123847.584 9 -14564901.72747  21428677.645    21428685.5204
  23347271.653    -6825814.979 8  -5306759.30045  23347271.670    23347283.2624
  24694829.537      647558.988 6    774123.26444  24694828.584    24694845.2074
  21358115.461   -17112292.599 9 -13315726.88547  21358115.225    21358124.3614
  20397424.541   -24349835.674 9 -18952920.86548  20397424.397    20397433.1814
  23967308.692    -2274857.839 7  -1756394.11945  23967308.497    23967320.7174
  23511550.726    -7496323.879 7  -5809977.73045  23511550.483    23511563.6784
 00  9 14  0 38  0.0000000  0  9 13 08 01 28 03 27 19 22 31
  20852630.045   -22025914.135 9 -17143730.28147  20852630.334    20852637.5534
  22670495.206    -7408090.748 8  -5747977.45146  22670494.733    22670506.6394
  21035288.574   -18348530.545 9 -14284807.26547  21035288.373    21035297.5764
  21438657.896   -19071402.784 9 -14524035.67347  21438657.546    21438665.4224
  23341704.290    -6855072.151 8  -5329557.02145  23341704.204    23341715.7154
  21349810.394   -17155935.344 9 -13349734.19147  21349810.224    21349819.3284
  20397837.334   -24347666.385 9 -18951230.50548  20397837.171    20397846.0074
  23987993.050    -2166161.907 7  -1671696.11745  23987992.678    23988004.9164
  23495205.280    -7582220.106 8  -5876909.69145  23495204.879    23495218.2544
 00  9 14  0 38 30.0000000  0  9 13 08 01 28 03 27 19 22 31
  20845009.254   -22065961.515 9 -17174936.00747  20845009.540    20845016.7344
  22655721.186    -7485728.736 8  -5808474.49046  22655720.751    22655732.4304
  21044626.949   -18299457.006 9 -14246568.18347  21044626.748    21044636.0024
  21448722.502   -19018513.105 8 -14482822.95147  21448722.129    21448730.0424
  23336229.783    -6883841.242 8  -5351974.40245  23336229.664    23336241.2544
  21341542.522   -17199383.188 9 -13383589.61447  21341542.358    21341551.4234
  20398299.915   -24345235.404 9 -18949336.23248  20398299.751    20398308.5894
  24008706.662    -2057313.445 7  -1586879.23945  24008706.138    24008718.1514
  23478901.150    -7667897.725 7  -5943671.34945  23478900.825    23478914.1504
 00  9 14  0 39  0.0000000  0  9 13 08 01 28 03 27 19 22 31
  20837457.549   -22105645.927 9 -17205858.90247  20837457.838    20837465.0394
  22640978.699    -7563200.974 8  -5868842.36846  22640978.207    22640989.8344
  21054037.250   -18250005.475 9 -14208034.56047  21054037.033    21054046.3194
  21458871.522   -18965179.402 8 -14441264.24347  21458871.193    21458879.1404
  23330848.471    -6912119.487 8  -5374009.33845  23330848.430    23330860.0244
  21333311.872   -17242635.025 9 -13417292.29747  21333311.756    21333320.8314
  20398812.348   -24342542.137 9 -18947237.57647  20398812.246    20398821.0594
  24029448.649    -1948314.528 7  -1501945.10245  24029448.059    24029460.0794
  23462639.463    -7753352.838 8  -6010259.57745  23462639.144    23462652.3944
 00  9 14  0 39 30.0000000  0  9 13 08 01 28 03 27 19 22 31
  20829975.313   -22144965.420 9 -17236497.44947  20829975.578    20829982.7694
  22626267.774    -7640507.278 8  -5929080.97646  22626267.221    22626278.7664
  21063519.450   -18200176.304 9 -14169206.67747  21063519.219    21063528.5394
  21469104.683   -18911403.922 9 -14399361.29547  21469104.358    21469112.3234
  23325561.143    -6939905.025 8  -5395660.34445  23325561.070    23325572.5044
  21325118.713   -17285690.755 9 -13450842.20147  21325118.528    21325127.5484
  20399374.745   -24339586.561 9 -18944934.53247  20399374.687    20399383.4294
  24050218.212    -1839167.589 7  -1416895.63745  24050217.901    24050230.1084
  23446420.725    -7838581.843 8  -6076671.62445  23446420.411    23446433.7394
 00  9 14  0 40  0.0000000  0  9 13 08 01 28 03 27 19 22 31
  20822562.847   -22183917.891 9 -17266850.00347  20822563.130    20822570.3244
  22611588.416    -7717646.644 8  -5989189.49146  22611588.024    22611599.5254
  21073073.622   -18149969.032 9 -14130084.17847  21073073.405    21073082.6834
  21479421.596   -18857188.435 9 -14357115.48447  21479421.256    21479429.1894
  23320367.873    -6967195.822 8  -5416925.82145  23320367.675    23320379.2934
  21316962.830   -17328549.863 9 -13484238.88347  21316962.674    21316971.6404
  20399987.148   -24336368.638 9 -18942427.06047  20399987.023    20399995.7624
  24071016.081    -1729874.377 7  -1331732.25545  24071015.613    24071028.0584
  23430245.951    -7923581.179 8  -6142904.74845  23430245.519    23430258.6164
 00  9 14  0 40 30.0000000  0  9 13 08 01 28 03 27 19 22 31
  20815220.361   -22222502.988 9 -17296916.29047  20815220.633    20815227.8454
  22596940.958    -7794620.154 8  -6049168.77246  22596940.583    22596951.8184
  21082699.483   -18099385.293 9 -14090668.31947  21082699.231    21082708.5154
  21489821.545   -18802536.366 8 -14314529.47447  21489821.186    21489829.1834
  23315268.785    -6993991.818 8  -5437805.74045  23315268.615    23315280.1254
  21308844.227   -17371213.617 9 -13517483.34447  21308844.064    21308853.0014
  20400649.074   -24332890.216 9 -18939716.60047  20400648.945    20400657.6984
  24091841.465    -1620439.009 7  -1246458.03045  24091840.695    24091852.9794
  23414115.097    -8008349.048 7  -6208957.48145  23414114.556    23414127.7424
 00  9 14  0 41  0.0000000  0  9 13 08 01 28 03 27 19 22 31
  20807948.173   -22260718.615 9 -17326694.67947  20807948.457    20807955.6254
  22582325.218    -7871426.933 8  -6109018.11346  22582324.792    22582335.9484
  21092396.995   -18048424.674 9 -14050958.79147  21092396.727    21092406.0224
  21500304.314   -18747448.945 9 -14271604.24247  21500304.009    21500311.9834
  23310264.232    -7020290.487 8  -5458298.15345  23310264.040    23310275.5714
  21300762.857   -17413681.278 9 -13550574.99447  21300762.739    21300771.6714
  20401360.573   -24329150.918 9 -18936802.86347  20401360.482    20401369.2894
  24112693.526    -1510863.652 7  -1161074.74645  24112692.380    24112704.7074
  23398028.974    -8092881.085 8  -6274826.45845  23398028.552    23398041.7374
 00  9 14  0 41 30.0000000  0  9 13 08 01 28 03 27 19 22 31
  20800746.611   -22298562.797 9 -17356183.63547  20800746.923    20800754.0964
  22567740.952    -7948067.151 8  -6168737.68246  22567740.509    22567751.7004
  21102166.070   -17997087.922 9 -14010956.17647  21102165.804    21102175.0944
  21510869.444   -18691929.012 9 -14228341.98147  21510869.135    21510877.0864
  23305354.486    -7046090.808 8  -5478402.22445  23305354.299    23305365.9074
  21292718.800   -17455953.350 9 -13583514.23947  21292718.628    21292727.5614
  20402121.646   -24325151.489 9 -18933686.41947  20402121.545    20402130.3444
  24133571.324    -1401151.792 7  -1075585.07645  24133570.017    24133582.2624
  23381988.728    -8177174.472 8  -6340509.47845  23381988.186    23382001.0284
 00  9 14  0 42  0.0000000  0  9 13 08 01 28 03 27 19 22 31
  20793616.305   -22336032.808 9 -17385381.02547  20793616.639    20793623.7754
  22553188.795    -8024538.540 8  -6228325.71446  22553188.363    22553199.6474
  21112007.018   -17945373.416 9 -13970659.19347  21112006.752    21112016.0404
  21521516.814   -18635976.683 8 -14184742.79947  21521516.544    21521524.4554
  23300540.373    -7071389.098 8  -5498115.12345  23300540.191    23300551.8604
  21284712.218   -17498027.848 9 -13616299.53047  21284712.061    21284720.9974
  20402932.594   -24320890.133 9 -18930365.88247  20402932.484    20402941.2604
  24154474.180    -1291303.654 7   -989989.23845  24154473.575    24154485.8524
  23365994.390    -8261224.286 8  -6406002.66945  23365993.969    23366006.8064
 00  9 14  0 42 30.0000000  0  9 13 08 01 28 03 27 19 22 31
  20786557.540   -22373126.978 9 -17414285.55247  20786557.865    20786564.9934
  22538668.845    -8100841.218 8  -6287782.27946  22538668.424    22538679.6314
  21121919.816   -17893281.810 9 -13930068.37047  21121919.529    21121928.7754
  21532246.044   -18579594.810 9 -14140808.90247  21532245.746    21532253.5974
  23295821.957    -7096184.325 8  -5517436.00845  23295821.799    23295833.1894
  21276743.305   -17539905.086 9 -13648931.12047  21276743.097    21276752.0024
  20403793.098   -24316367.979 9 -18926842.12447  20403792.988    20403801.7694
  24175403.390    -1181322.163 7   -904289.46145  24175402.467    24175414.9374
  23350047.073    -8345027.623 8  -6471303.83145  23350046.639    23350059.5014
 00  9 14  0 43  0.0000000  0  9 13 08 01 28 03 27 19 22 31
  20779570.452   -22409844.386 9 -17442896.50247  20779570.752    20779577.8464
  22524180.938    -8176975.351 8  -6347107.50046  22524180.514    22524191.6264
  21131904.230   -17840813.955 9 -13889184.37547  21131903.897    21131913.1234
  21543056.489   -18522785.709 8 -14096542.09947  21543056.163    21543064.0414
  23291199.368    -7120475.760 8  -5536364.33945  23291199.318    23291210.5834
  21268811.740   -17581585.576 9 -13681409.39647  21268811.538    21268820.4694
  20404703.137   -24311585.504 9 -18923115.51847  20404703.058    20404711.8274
  24196357.059    -1071210.399 7   -818488.21845  24196356.121    24196368.7484
  23334147.092    -8428581.822 7  -6536410.84445  23334146.587    23334159.3944
 00  9 14  0 43 30.0000000  0  9 13 08 01 28 03 27 19 22 31
  20772655.322   -22446183.619 9 -17471212.76847  20772655.620    20772662.7124
  22509725.072    -8252940.781 8  -6406301.27946  22509724.642    22509735.7534
  21141960.077   -17787970.466 9 -13848007.66747  21141959.726    21141968.9704
  21553947.689   -18465551.907 8 -14051944.36847  21553947.393    21553955.2974
  23286673.164    -7144261.981 8  -5554898.98445  23286672.962    23286684.2224
  21260917.507   -17623069.425 9 -13713734.43947  21260917.363    21260926.2924
  20405662.621   -24306543.326 9 -18919186.54347  20405662.544    20405671.3074
  24217334.610     -960971.649 7   -732587.97945  24217333.828    24217346.6494
  23318294.925    -8511883.817 7  -6601321.30845  23318294.551    23318307.4744
 00  9 14  0 44  0.0000000  0  9 13 08 01 28 03 27 19 22 31
  20765812.503   -22482142.729 9 -17499232.83647  20765812.807    20765819.8874
  22495301.554    -8328736.849 8  -6465363.08746  22495301.067    22495312.2644
  21152087.343   -17734751.164 9 -13806538.12147  21152087.025    21152096.3364
  21564919.432   -18407895.078 8 -14007017.00247  21564919.147    21564927.0774
  23282243.395    -7167540.836 8  -5573038.30445  23282243.069    23282254.3534
  21253060.935   -17664356.036 9 -13745905.79347  21253060.762    21253069.6724
  20406671.588   -24301241.258 9 -18915055.06247  20406671.495    20406680.2384
  24238336.158     -850608.105 7   -646590.51745  24238335.419    24238348.1974
  23302491.848    -8594930.008 8  -6666032.46445  23302491.332    23302504.1164
 00  9 14  0 44 30.0000000  0  9 13 08 01 28 03 27 19 22 31
  20759043.402   -22517714.424 9 -17526951.01847  20759043.693    20759050.7884
  22480911.262    -8404357.537 8  -6524288.23746  22480910.790    22480922.0934
  21162287.124   -17681150.806 9 -13764771.64647  21162286.864    21162296.2394
  21575972.183   -18349811.955 8 -13961757.46447  21575971.985    21575979.9794
  23277911.166    -7190305.032 8  -5590776.58545  23277910.988    23277922.4884
  21245243.022   -17705439.800 9 -13777919.08147  21245242.795    21245251.6604
  20407731.005   -24295674.010 9 -18910716.94647  20407730.912    20407739.6484
  24259362.303     -740116.232 7   -560493.07645  24259361.513    24259374.1584
  23286738.922    -8677711.434 8  -6730537.33945  23286738.507    23286751.1324
 00  9 14  0 45  0.0000000  0  9 13 08 01 28 03 27 19 22 31
  20752347.155   -22552903.411 9 -17554370.99147  20752347.439    20752354.5504
  22466553.269    -8479809.646 8  -6583082.03346  22466552.709    22466563.9144
  21172558.098   -17627176.734 9 -13722713.96647  21172557.813    21172567.2054
  21587104.405   -18291311.523 8 -13916172.74247  21587104.269    21587112.3144
  23273675.866    -7212560.660 8  -5608118.56645  23273675.710    23273687.3774
  21237462.370   -17746327.611 9 -13809779.68847  21237462.111    21237470.9444
  20408839.500   -24289848.865 9 -18906177.87047  20408839.424    20408848.1584
  24280410.860     -629505.542 7   -474303.00845  24280410.111    24280422.7604
  23271035.558    -8760231.820 8  -6794838.71145  23271035.137    23271047.8814
 00  9 14  0 45 30.0000000  0  9 13 08 01 28 03 27 19 22 31
  20745723.760   -22587709.626 9 -17581492.69747  20745724.024    20745731.1224
  22452227.364    -8555093.525 8  -6641744.73646  22452226.697    22452237.7244
  21182900.017   -17572829.900 9 -13680365.81647  21182899.744    21182909.0954
  21598315.604   -18232396.621 8 -13870265.06347  21598315.407    21598323.5054
  23269537.840    -7234306.558 8  -5625063.36045  23269537.545    23269549.0974
  21229718.735   -17787020.137 9 -13841488.11447  21229718.532    21229727.4314
  20409996.915   -24283766.798 9 -18901438.60048  20409996.813    20410005.5374
  24301481.345     -518779.423 7   -388023.03045  24301480.795    24301493.2994
  23255382.508    -8842488.520 8  -6858934.70345  23255382.223    23255394.6764
 00  9 14  0 46  0.0000000  0  9 13 08 01 28 03 27 19 22 31
  20739173.908   -22622129.413 9 -17608313.28747  20739174.148    20739181.2444
  22437933.507    -8630207.223 8  -6700274.83346  22437932.942    22437944.0184
  21193313.054   -17518109.054 9 -13637726.24047  21193312.775    21193322.1444
  21609605.550   -18173068.128 9 -13824035.09647  21609605.292    21609613.4164
  23265497.280    -7255540.082 8  -5641608.89445  23265496.982    23265508.3804
  21222012.599   -17827515.802 9 -13873043.14447  21222012.387    21222021.3594
  20411203.490   -24277426.472 9 -18896498.08648  20411203.338    20411212.0514
  24322573.765     -407939.188 7   -301654.07945  24322573.064    24322585.7474
  23239780.381    -8924476.897 8  -6922821.56545  23239780.135    23239792.6184
 00  9 14  0 46 30.0000000  0  9 13 08 01 28 03 27 19 22 31
  20732697.853   -22656161.284 9 -17634831.61047  20732698.112    20732705.2134
  22423672.276    -8705150.566 8  -6758672.18046  22423671.715    22423682.7204
  21203797.178   -17463014.924 9 -13594795.79747  21203796.907    21203806.2344
  21620973.736   -18113328.253 9 -13777484.56747  21620973.461    21620981.5804
  23261554.426    -7276259.851 8  -5657754.12045  23261554.151    23261565.3424
  21214343.920   -17867814.584 9 -13904444.76447  21214343.676    21214352.7464
  20412459.046   -24270828.332 9 -18891356.68148  20412458.929    20412467.6404
  24343687.053     -296987.548 7   -215198.39345  24343686.496    24343699.4274
  23224229.953    -9006193.630 8  -6986496.78145  23224229.671    23224242.3694
 00  9 14  0 47  0.0000000  0  9 13 08 01 28 03 27 19 22 31
  20726296.167   -22689802.547 9 -17661045.56547  20726296.384    20726303.4744
  22409443.553    -8779922.233 8  -6816935.75246  22409443.086    22409454.0184
  21214352.416   -17407546.904 9 -13551574.00347  21214352.130    21214361.4534
  21632419.959   -18053178.280 8 -13730614.48747  21632419.657    21632427.7574
  23257709.747    -7296463.361 8  -5673497.04345  23257709.513    23257720.6604
  21206712.944   -17907915.398 9 -13935692.11247  21206712.719    21206721.7764
  20413763.809   -24263971.639 9 -18886013.80048  20413763.705    20413772.4234
  24364821.452     -185925.639 7   -128656.72145  24364820.946    24364833.8024
  23208731.959    -9087634.659 8  -7049957.14845  23208731.799    23208744.4934
 00  9 14  0 47 30.0000000  0  9 13 08 01 28 03 27 19 22 31
  20719968.862   -22723052.258 9 -17686954.40847  20719969.114    20719976.2194
  22395247.595    -8854522.282 8  -6875065.60346  22395247.143    22395257.8974
  21224978.731   -17351705.580 8 -13508061.32347  21224978.403    21224987.7414
  21643943.695   -17992620.747 9 -13683426.82147  21643943.390    21643951.4784
  23253963.579    -7316149.596 8  -5688836.91745  23253963.347    23253974.4754
  21199119.622   -17947818.353 9 -13966785.29147  21199119.425    21199128.4354
  20415117.701   -24256857.126 9 -18880470.02548  20415117.558    20415126.2914
  24385976.462      -74756.129 7    -42031.23045  24385975.820    24385988.9104
  23193287.013    -9168796.993 7  -7113200.35145  23193286.932    23193299.5024
 00  9 14  0 48  0.0000000  0  9 13 08 01 28 03 27 19 22 31
  20713716.388   -22755908.916 9 -17712556.98647  20713716.692    20713723.7634
  22381084.128    -8928950.625 8  -6933061.63746  22381083.718    22381094.5794
  21235675.925   -17295491.537 9 -13464258.21847  21235675.618    21235684.9564
  21655544.562   -17931657.915 8 -13635923.33847  21655544.279    21655552.3444
  23250315.926    -7335317.765 8  -5703773.10945  23250315.672    23250326.7684
  21191564.057   -17987523.630 9 -13997724.44047  21191563.806    21191572.7444
  20416520.570   -24249485.088 9 -18874725.58448  20416520.447    20416529.1524
  24407151.238       36517.981 7     44675.77045  24407150.531    24407163.6994
  23177895.896    -9249677.576 8  -7176224.00145  23177895.707    23177908.3594
 00  9 14  0 48 30.0000000  0  9 13 08 01 28 03 27 19 22 31
  20707539.208   -22788370.295 9 -17737851.54647  20707539.509    20707546.5694
  22366953.887    -9003206.545 8  -6990923.32146  22366953.321    22366964.1714
  21246444.012   -17238904.960 9 -13420164.81847  21246443.723    21246453.0604
  21667222.145   -17870291.975 9 -13588105.74247  21667221.854    21667229.9254
  23246767.133    -7353966.356 8  -5718304.42945  23246766.998    23246778.0874
  21184046.013   -18027030.911 9 -14028509.30047  21184045.790    21184054.7124
  20417972.374   -24241855.694 9 -18868780.60048  20417972.262    20417980.9864
  24428345.535      147894.004 7    131462.20745  24428344.949    24428357.9064
  23162559.085    -9330273.107 8  -7239025.56445  23162558.775    23162571.3844
 00  9 14  0 49  0.0000000  0  9 13 08 01 28 03 27 19 22 31
  20701437.462   -22820435.069 9 -17762837.06547  20701437.753    20701444.8034
  22352856.193    -9077289.680 8  -7048650.37446  22352855.710    22352866.5204
  21257283.006   -17181945.924 9 -13375781.19747  21257282.709    21257292.0344
  21678976.075   -17808524.988 8 -13539975.64847  21678975.737    21678983.7954
  23243317.643    -7372093.775 8  -5732429.62145  23243317.347    23243328.5254
  21176565.755   -18066339.959 9 -14059139.70547  21176565.539    21176574.3994
  20419473.141   -24233969.067 9 -18862635.18048  20419473.013    20419481.7404
  24449558.991      259369.926 7    218326.48145  24449558.283    24449571.1434
  23147277.135    -9410580.137 8  -7301602.28945  23147276.685    23147289.2524
 00  9 14  0 49 30.0000000  0  9 13 08 01 28 03 27 19 22 31
  20695411.610   -22852101.122 9 -17787511.89547  20695411.895    20695418.9384
  22338791.564    -9151199.465 8  -7106242.34546  22338791.077    22338801.8804
  21268192.837   -17124614.709 9 -13331107.57047  21268192.547    21268201.8904
  21690805.882   -17746358.860 8 -13491534.52947  21690805.578    21690813.6164
  23239967.392    -7389698.248 8  -5746147.31745  23239967.146    23239978.5814
  21169123.280   -18105450.494 9 -14089615.41147  21169123.031    21169131.8404
  20421022.946   -24225824.911 9 -18856289.08948  20421022.820    20421031.5554
  24470790.797      370943.906 7    305267.15345  24470790.284    24470803.0144
  23132050.683    -9490594.927 8  -7363951.33045  23132050.185    23132062.6634
 00  9 14  0 50  0.0000000  0  9 13 08 01 28 03 27 19 22 31
  20689461.951   -22883366.933 9 -17811874.84547  20689462.233    20689469.2534
  22324759.967    -9224935.433 8  -7163698.83246  22324759.501    22324770.2694
  21279173.352   -17066911.865 8 -13286144.36547  21279173.065    21279182.4144
  21702711.326   -17683795.813 8 -13442784.12747  21702711.006    21702718.9754
  23236717.117    -7406778.527 8  -5759456.59845  23236716.876    23236728.2284
  21161718.497   -18144362.194 9 -14119936.18447  21161718.327    21161727.1484
  20422621.667   -24217423.489 9 -18849742.53448  20422621.563    20422630.3004
  24492041.195      482613.407 7    392282.25845  24492040.393    24492053.0954
  23116880.467    -9570314.434 8  -7426070.23345  23116879.948    23116892.5384
 00  9 14  0 50 30.0000000  0  9 13 08 01 28 03 27 19 22 31
  20683588.706   -22914230.927 9 -17835924.69848  20683589.009    20683596.0034
  22310761.648    -9298497.273 8  -7221019.65746  22310761.132    22310771.7744
  21290224.471   -17008837.742 8 -13240891.85047  21290224.205    21290233.6194
  21714691.832   -17620837.994 8 -13393726.11247  21714691.502    21714699.4414
  23233566.744    -7423333.192 8  -5772356.28645  23233566.606    23233578.0074
  21154351.739   -18183074.734 9 -14150101.76847  21154351.567    21154360.4024
  20424269.340   -24208764.994 9 -18842995.66347  20424269.203    20424277.9344
  24513308.595      594375.922 7    479369.85445  24513308.130    24513320.9044
  23101767.027    -9649735.224 8  -7487956.40845  23101766.500    23101779.1614
 00  9 14  0 51  0.0000000  0  8 13 08 01 28 03 27 19 31
  20677792.231   -22944691.523 9 -17859660.21648  20677792.542    20677799.5384
  22296796.500    -9371884.618 8  -7278204.50846  22296795.989    22296806.6244
  21301346.201   -16950392.895 8 -13195350.46447  21301345.925    21301355.3794
  21726746.978   -17557487.767 8 -13344362.33047  21726746.706    21726754.6204
  23230516.568    -7439361.515 8  -5784845.82345  23230516.429    23230527.8004
  21147022.887   -18221588.212 9 -14180112.24447  21147022.691    21147031.5114
  20425965.795   -24199849.828 9 -18836048.78647  20425965.678    20425974.4334
  23086711.168    -9728854.180 8  -7549607.39545  23086710.613    23086723.1724
 00  9 14  0 51 30.0000000  0  8 13 08 01 28 03 27 19 31
  20672072.945   -22974746.321 9 -17883079.52948  20672073.272    20672080.2854
  22282864.580    -9445097.007 8  -7335253.05646  22282864.104    22282874.7394
  21312538.476   -16891577.270 8 -13149520.15747  21312538.197    21312547.6654
  21738876.469   -17493746.974 8 -13294694.20447  21738876.169    21738884.1024
  23227567.023    -7454861.498 8  -5796923.67945  23227566.851    23227578.1454
  21139732.001   -18259902.277 9 -14209967.33647  21139731.788    21139740.6014
  20427711.139   -24190677.858 9 -18828901.80148  20427711.080    20427719.7924
  23071713.186    -9807667.511 8  -7611020.19646  23071712.816    23071725.4554
 00  9 14  0 52  0.0000000  0  8 13 08 01 28 03 27 19 31
  20666431.023   -23004395.109 9 -17906182.47848  20666431.317    20666438.3254
  22268965.948    -9518134.361 8  -7392165.19746  22268965.466    22268976.1254
  21323801.145   -16832391.776 8 -13103401.64047  21323800.839    21323810.3354
  21751079.747   -17429618.306 8 -13244723.85047  21751079.481    21751087.4384
  23224718.049    -7469832.501 8  -5808589.33845  23224717.923    23224729.2254
  21132478.959   -18298017.038 9 -14239667.12547  21132478.719    21132487.5624
  20429505.309   -24181249.753 9 -18821555.23648  20429505.218    20429513.8954
  23056774.243    -9886172.535 8  -7672192.78746  23056773.808    23056786.2954
 00  9 14  0 52 30.0000000  0  8 13 08 01 28 03 27 19 31
  20660866.603   -23033636.122 9 -17928967.68748  20660866.919    20660873.8844
  22255100.688    -9590996.435 8  -7448940.77446  22255100.245    22255110.9214
  21335133.996   -16772837.146 8 -13056995.48247  21335133.724    21335143.2504
  21763356.435   -17365104.196 8 -13194453.14447  21763356.142    21763364.1284
  23221969.960    -7484273.634 8  -5819842.12045  23221969.855    23221981.1624
  21125263.910   -18335932.543 9 -14269211.65947  21125263.624    21125272.4484
  20431348.124   -24171565.854 9 -18814009.35148  20431348.002    20431356.6734
  23041894.185    -9964366.032 8  -7733122.61345  23041893.869    23041906.3584
 00  9 14  0 53  0.0000000  0  8 13 08 01 28 03 27 19 31
  20655380.279   -23062466.949 9 -17951433.26048  20655380.588    20655387.5504
  22241268.838    -9663682.741 8  -7505579.36246  22241268.380    22241279.1064
  21346537.001   -16712913.829 8 -13010302.03447  21346536.740    21346546.3434
  21775705.996   -17300206.734 8 -13143883.73647  21775705.743    21775713.7414
  23219322.863    -7498183.480 8  -5830680.92345  23219322.767    23219334.1064
  21118086.749   -18373648.455 9 -14298600.65347  21118086.473    21118095.3314
  20433239.587   -24161626.352 9 -18806264.28847  20433239.433    20433248.1104
  23027074.301   -10042244.660 8  -7793807.08846  23027073.949    23027086.5344
 00  9 14  0 53 30.0000000  0  8 13 08 01 28 03 27 19 31
  20649972.221   -23090886.453 9 -17973578.32047  20649972.522    20649979.4964
  22227470.494    -9736192.864 8  -7562080.67546  22227470.034    22227480.9094
  21358010.170   -16652621.913 8 -12963321.37547  21358009.938    21358019.5754
  21788128.167   -17234927.966 8 -13093017.19247  21788127.863    21788135.8884
  23216777.140    -7511560.958 8  -5841104.87845  23216777.080    23216788.5174
  21110947.654   -18411164.374 9 -14327833.80747  21110947.405    21110956.2314
  20435179.641   -24151430.990 9 -18798319.86547  20435179.550    20435188.2074
  23012314.792   -10119805.383 8  -7854243.86246  23012314.516    23012327.0254
 00  9 14  0 54  0.0000000  0  8 13 08 01 28 03 27 19 31
  20644642.885   -23118892.274 9 -17995401.03248  20644643.201    20644650.1444
  22213705.815    -9808525.678 8  -7618443.80446  22213705.422    22213716.3924
  21369553.492   -16591961.349 8 -12916053.45847  21369553.286    21369562.9324
  21800622.501   -17169269.543 8 -13041854.81447  21800622.213    21800630.3194
  23214333.307    -7524404.031 8  -5851112.41646  23214333.192    23214344.5764
  21103846.764   -18448479.714 9 -14356910.67447  21103846.531    21103855.3274
  20437168.450   -24140979.694 9 -18790176.00547  20437168.363    20437177.0324
  22997616.666   -10197044.075 8  -7914429.69846  22997616.432    22997628.8394
 00  9 14  0 54 30.0000000  0  9 13 08 01 28 03 27 19 10 31
  20639392.443   -23146483.740 9 -18016900.87348  20639392.726    20639399.6544
  22199974.863    -9880681.812 8  -7674669.25146  22199974.478    22199985.5544
  21381166.719   -16530933.849 8 -12868499.62147  21381166.506    21381176.1774
  21813188.485   -17103234.752 8 -12990399.16547  21813188.204    21813196.3774
  23211991.196    -7536712.782 8  -5860703.60346  23211991.132    23212002.2724
  21096783.948   -18485595.144 9 -14385831.76847  21096783.721    21096792.4634
  20439205.771   -24130273.521 9 -18781833.54147  20439205.682    20439214.3434
  24165241.209    -1207628.49244                  24165237.704    24165250.2394
  22982980.350   -10273958.444 8  -7974362.83846  22982980.034    22982992.3344
 00  9 14  0 55  0.0000000  0  9 13 08 01 28 03 27 19 10 31
  20634220.952   -23173659.959 9 -18038077.14148  20634221.236    20634228.1774
  22186277.585    -9952661.466 8  -7730757.17946  22186277.200    22186288.1684
  21392849.538   -16469540.301 8 -12820660.54047  21392849.339    21392859.0364
  21825825.693   -17036826.372 8 -12938652.40447  21825825.355    21825833.5374
  23209750.855    -7548486.638 8  -5869877.98846  23209750.684    23209761.7834
  21089758.999   -18522511.014 9 -14414597.35247  21089758.804    21089767.6264
  20441291.547   -24119313.130 9 -18773292.98147  20441291.379    20441300.0274
  24152022.778    -1631012.89117  -1261754.37345  24152021.563    24152034.2344
  22968406.242   -10350545.877 8  -8034041.19046  22968405.824    22968418.0434
 00  9 14  0 55 30.0000000  0  9 13 08 01 28 03 27 19 10 31
  20629128.717   -23200419.815 9 -18058928.97348  20629129.001    20629135.9654
  22172613.881   -10024464.883 8  -7786707.78746  22172613.429    22172624.2754
  21404601.916   -16407781.697 8 -12772537.00447  21404601.683    21404611.3324
  21838533.394   -16970047.222 8 -12886616.74347  21838533.048    21838541.2124
  23207612.173    -7559725.237 8  -5878635.31046  23207612.085    23207622.9984
  21082771.987   -18559227.804 9 -14443207.81147  21082771.811    21082780.6454
  20443425.445   -24108099.511 9 -18764555.09847  20443425.271    20443433.9424
  24138886.199    -1700042.067 7  -1315543.31645  24138884.868    24138897.2094
  22953894.734   -10426803.798 8  -8093462.81646  22953894.290    22953906.5044
 00  9 14  0 56  0.0000000  0  9 13 08 01 28 03 27 19 10 31
  20624116.203   -23226760.876 9 -18079454.47048  20624116.491    20624123.4554
  22158983.796   -10096090.820 8  -7842520.08046  22158983.355    22158994.1554
  21416423.799   -16345657.625 8 -12724128.69947  21416423.608    21416433.2024
  21851311.295   -16902898.838 8 -12834293.35847  21851310.982    21851319.1404
  23205575.861    -7570426.402 8  -5886973.84445  23205575.735    23205586.5334
  21075823.111   -18595744.390 9 -14471662.27547  21075822.921    21075831.7254
  20445607.660   -24096631.757 9 -18755619.18847  20445607.530    20445616.1894
  24125833.011    -1768635.708 7  -1368992.88645  24125832.224    24125844.3824
  22939446.483   -10502727.942 8  -8152624.31546  22939446.232    22939458.4714
 00  9 14  0 56 30.0000000  0  9 13 08 01 28 03 27 19 10 31
  20619183.704   -23252681.414 9 -18099652.28848  20619183.986    20619190.9534
  22145387.744   -10167538.389 8  -7898193.42846  22145387.288    22145397.9874
  21428315.264   -16283168.185 8 -12675435.69047  21428315.016    21428324.6124
  21864159.190   -16835382.668 8 -12781683.38747  21864158.888    21864167.0754
  23203641.940    -7580588.759 8  -5894892.52045  23203641.863    23203652.5214
  21068912.472   -18632060.067 9 -14499960.18947  21068912.266    21068921.0394
  20447838.346   -24084909.394 9 -18746484.88047  20447838.216    20447846.8824
  24112863.381    -1836791.350 7  -1422101.12345  24112862.762    24112874.7224
  22925062.883   -10578314.619 8  -8211522.89346  22925062.560    22925074.4324
 00  9 14  0 57  0.0000000  0  9 13 08 01 28 03 27 19 10 31
  20614331.646   -23278179.032 9 -18119520.55848  20614331.905    20614338.8934
  22131825.775   -10238806.595 8  -7953727.00046  22131825.356    22131835.9924
  21440276.155   -16220313.269 8 -12626457.88947  21440275.946    21440285.5314
  21877076.728   -16767500.224 8 -12728788.00447  21877076.515    21877084.7084
  23201810.791    -7590210.636 8  -5902390.04445  23201810.732    23201821.2864
  21062040.184   -18668173.889 9 -14528100.80847  21062040.013    21062048.8024
  20450117.625   -24072931.888 9 -18737151.76147  20450117.498    20450126.1444
  24099977.463    -1904505.935 8  -1474865.65445  24099976.923    24099988.8874
  22910743.943   -10653560.239 8  -8270155.68646  22910743.713    22910755.5764
 00  9 14  0 57 30.0000000  0  9 13 08 01 28 03 27 19 10 31
  20609560.416   -23303251.900 9 -18139057.85048  20609560.688    20609567.6954
  22118298.147   -10309894.931 8  -8009120.40246  22118297.621    22118308.1134
  21452306.506   -16157093.644 8 -12577195.89547  21452306.287    21452315.8944
  21890063.552   -16699254.218 8 -12675609.32547  21890063.275    21890071.4694
  23200082.678    -7599291.087 8  -5909465.69545  23200082.707    23200093.2814
  21055206.386   -18704085.758 9 -14556084.06047  21055206.194    21055214.9824
  20452445.297   -24060699.666 9 -18727620.15847  20452445.187    20452453.8414
  24087176.104    -1971777.129 8  -1527284.70145  24087175.456    24087187.7324
  22896490.735   -10728461.484 8  -8328520.15846  22896490.429    22896502.2314
 00  9 14  0 58  0.0000000  0  9 13 08 01 28 03 27 19 10 31
  20604870.232   -23327899.015 9 -18158263.38548  20604870.505    20604877.4744
  22104804.810   -10380803.110 8  -8064373.42846  22104804.223    22104814.5684
  21464406.184   -16093509.860 8 -12527650.15747  21464405.911    21464415.5214
  21903119.179   -16630646.786 8 -12622149.01547  21903118.886    21903127.0374
  23198457.665    -7607829.423 7  -5916118.90645  23198457.712    23198468.3384
  21048411.009   -18739795.510 9 -14583909.83047  21048410.848    21048419.6064
  20454821.407   -24048213.137 9 -18717890.39647  20454821.282    20454829.9414
  24074459.741    -2038602.604 8  -1579356.45845  24074459.139    24074471.0764
  22882303.560   -10803015.129 8  -8386613.75946  22882303.241    22882315.0234
 00  9 14  0 58 30.0000000  0  9 13 08 01 28 03 27 19 10 31
  20600261.332   -23352119.016 9 -18177136.10648  20600261.606    20600268.5414
  22091345.487   -10451531.204 8  -8119486.12346  22091345.020    22091355.3354
  21476575.057   -16029562.785 8 -12477821.31747  21476574.687    21476584.2934
  21916243.143   -16561680.475 8 -12568409.07447  21916242.771    21916250.8994
  23196935.816    -7615824.911 7  -5922349.10445  23196935.886    23196946.7244
  21041654.168   -18775303.302 9 -14611578.22347  21041653.946    21041662.6594
  20457245.799   -24035472.751 9 -18707962.81947  20457245.674    20457254.3554
  24061828.353    -2104980.888 7  -1631079.74845  24061827.743    24061839.5594
  22868183.111   -10877218.251 8  -8444434.24346  22868182.827    22868194.4404
 00  9 14  0 59  0.0000000  0  9 13 08 01 28 03 27 19 10 31
  20595734.306   -23375908.472 9 -18195673.33848  20595734.610    20595741.5214
  22077920.953   -10522077.252 8  -8174456.97946  22077920.464    22077930.8514
  21488813.120   -15965251.496 8 -12427708.68047  21488812.765    21488822.3774
  21929435.087   -16492356.053 8 -12514390.06947  21929434.798    21929442.9204
  23195517.914    -7623275.190 7  -5928154.48145  23195517.838    23195528.9034
  21034936.026   -18810607.385 9 -14639087.87647  21034935.767    21034944.5404
  20459718.811   -24022477.008 9 -18697836.26648  20459718.721    20459727.4134
  24049282.724    -2170908.493 7  -1682451.84445  24049282.119    24049293.9294
  22854130.192   -10951066.011 8  -8501977.80146  22854129.885    22854141.4924
 00  9 14  0 59 30.0000000  0  9 13 08 01 28 03 27 19 10 31
  20591289.073   -23399268.247 9 -18213875.75148  20591289.377    20591296.2834
  22064530.757   -10592442.394 8  -8229286.85146  22064530.314    22064540.7834
  21501120.001   -15900578.295 9 -12377314.04247  21501119.705    21501129.3384
  21942694.427   -16422677.844 8 -12460095.39047  21942694.119    21942702.2734
  23194203.627    -7630181.066 7  -5933535.65145  23194203.458    23194214.7674
  21028256.359   -18845709.255 9 -14666439.97747  21028256.141    21028264.8794
  20462240.120   -24009227.538 9 -18687512.00148  20462240.006    20462248.7254
  24036823.179    -2236384.553 7  -1733472.11345  24036822.494    24036834.3464
  22840145.266   -11024557.061 8  -8559243.40946  22840144.927    22840156.5334
 00  9 14  1  0  0.0000000  0  9 13 08 01 28 03 27 19 10 31
  20586926.030   -23422196.282 9 -18231741.74048  20586926.318    20586933.2324
  22051175.070   -10662626.536 8  -8283975.69446  22051174.620    22051185.1474
  21513495.737   -15835543.612 8 -12326637.71947  21513495.387    21513505.1224
  21956020.862   -16352647.700 8 -12405526.47747  21956020.493    21956028.6394
  23192992.875    -7636541.732 7  -5938491.96745  23192992.796    23193004.3064
  21021615.231   -18880608.637 9 -14693634.28947  21021615.009    21021623.7294
  20464809.642   -23995724.626 9 -18676990.25348  20464809.537    20464818.2844
  24024449.789    -2301407.132 7  -1784139.03445  24024449.041    24024460.9664
  22826228.617   -11097688.360 8  -8616228.67946  22826228.282    22826239.9704
 00  9 14  1  0 30.0000000  0  9 13 08 01 28 03 27 19 10 31
  20582645.196   -23444692.080 9 -18249270.92048  20582645.481    20582652.4054
  22037853.842   -10732630.113 8  -8338523.82446  22037853.302    22037863.8594
  21525939.927   -15770149.195 8 -12275681.08847  21525939.572    21525949.3264
  21969413.534   -16282268.970 8 -12350685.94247  21969413.142    21969421.2924
  23191885.965    -7642357.405 7  -5943023.61145  23191885.921    23191897.7664
  21015012.393   -18915306.369 9 -14720671.46347  21015012.170    21015020.9334
  20467427.079   -23981969.688 9 -18666272.11848  20467426.995    20467435.7614
  24012162.577    -2365975.701 7  -1834452.15045  24012161.957    24012174.0254
  22812380.927   -11170457.813 8  -8672932.01346  22812380.608    22812392.2324
 00  9 14  1  1  0.0000000  0  9 13 08 01 28 03 27 19 10 31
  20578447.025   -23466753.678 9 -18266461.76248  20578447.287    20578454.2384
  22024567.050   -10802451.863 8  -8392930.30746  22024566.610    22024577.0734
  21538452.583   -15704394.707 8 -12224443.88847  21538452.260    21538462.0524
  21982872.233   -16211543.005 8 -12295574.83147  21982871.865    21982880.0454
  23190883.343    -7647626.175 8  -5947129.10645  23190883.355    23190895.1454
  21008448.243   -18949801.012 9 -14747550.39347  21008448.034    21008456.8194
  20470092.690   -23967961.696 9 -18655356.79748  20470092.630    20470101.3844
  23999962.484    -2430086.499 7  -1884408.58345  23999962.032    23999974.0314
  22798602.694   -11242860.978 8  -8729349.91346  22798602.436    22798614.0574
 00  9 14  1  1 30.0000000  0  9 13 08 01 28 03 27 19 10 31
  20574331.577   -23488380.604 9 -18283313.90148  20574331.836    20574338.7544
  22011314.727   -10872092.451 8  -8447195.62146  22011314.334    22011324.7494
  21551033.439   -15638281.991 8 -12172927.53847  21551033.160    21551042.9154
  21996396.248   -16140473.236 8 -12240195.82447  21996395.932    21996404.1394
  23189984.898    -7652348.272 8  -5950808.59945  23189984.877    23189996.6354
  21001922.626   -18984093.350 9 -14774271.68447  21001922.402    21001931.1864
  20472806.165   -23953702.121 9 -18644245.43948  20472806.121    20472814.8984
  23987849.905    -2493738.930 7  -1934007.88345  23987849.458    23987861.3284
  22784894.712   -11314895.863 8  -8785480.85446  22784894.446    22784906.1524
 00  9 14  1  2  0.0000000  0  9 13 08 01 28 03 27 19 10 31
  20570299.492   -23509569.534 9 -18299824.74748  20570299.728    20570306.6084
  21998097.245   -10941550.069 8  -8501318.36146  21998096.845    21998107.2414
  21563682.506   -15571810.506 8 -12121131.63047  21563682.253    21563692.1044
  22009985.576   -16069060.572 8 -12184549.62847  22009985.294    22009993.5604
  23189191.017    -7656521.497 8  -5954060.40245  23189190.997    23189202.5964
  20995435.765   -19018182.209 9 -14800834.42147  20995435.522    20995444.3044
  20475567.945   -23939189.505 9 -18632936.91348  20475567.839    20475576.5894
  23975825.260    -2556929.430 7  -1983247.12945  23975824.712    23975836.2654
  22771257.690   -11386558.091 8  -8841321.42046  22771257.457    22771269.1104
 00  9 14  1  2 30.0000000  0  9 13 08 01 28 03 27 19 10 31
  20566350.617   -23530320.898 9 -18315994.63048  20566350.872    20566357.7494
  21984914.444   -11010825.707 8  -8555299.29446  21984914.101    21984924.4514
  21576399.606   -15504981.866 8 -12069057.42547  21576399.380    21576409.1884
  22023639.473   -15997308.575 8 -12128639.01947  22023639.222    22023647.5234
  23188501.494    -7660146.484 8  -5956885.03746  23188501.414    23188512.8674
  20988987.379   -19052068.408 9 -14827239.23247  20988987.137    20988995.9474
  20478377.499   -23924425.192 9 -18621432.25848  20478377.374    20478386.1414
  23963888.593    -2619657.014 7  -2032125.69845  23963887.946    23963899.6614
  22757692.144   -11457845.681 8  -8896870.04746  22757691.918    22757703.4054
 00  9 14  1  3  0.0000000  0  9 13 08 01 28 03 27 19 10 31
  20562485.301   -23550632.935 9 -18331822.18048  20562485.578    20562492.4634
  21971766.445   -11079918.535 8  -8609137.78146  21971766.103    21971776.4744
  21589184.550   -15437796.580 8 -12016705.31247  21589184.329    21589194.1634
  22037357.703   -15925219.112 8 -12072465.44147  22037357.405    22037365.7524
  23187916.298    -7663222.436 8  -5959281.81046  23187916.279    23187927.5634
  20982577.759   -19085751.358 9 -14853485.67047  20982577.524    20982586.3024
  20481235.002   -23909408.990 9 -18609731.32348  20481234.846    20481243.6344
  23952040.373    -2681919.354 7  -2080641.77945  23952039.698    23952051.4174
  22744198.395   -11528755.463 8  -8952124.27946  22744198.139    22744209.5554
 00  9 14  1  3 30.0000000  0  9 13 08 01 28 03 27 19 10 31
  20558704.062   -23570503.385 9 -18347305.63948  20558704.345    20558711.2594
  21958653.297   -11148828.217 8  -8662833.55746  21958652.951    21958663.3814
  21602037.243   -15370255.218 8 -11964075.74847  21602037.061    21602046.8964
  22051139.646   -15852794.643 8 -12016030.83047  22051139.384    22051147.7004
  23187435.791    -7665748.323 8  -5961250.00346  23187435.782    23187446.9234
  20976206.857   -19119230.826 9 -14879573.55547  20976206.554    20976215.3854
  20484140.359   -23894141.082 9 -18597834.25548  20484140.235    20484149.0114
  23940281.014    -2743714.649 7  -2128793.84345  23940280.350    23940292.2284
  22730777.312   -11599284.022 8  -9007081.46946  22730776.931    22730788.2724
 00  9 14  1  4  0.0000000  0  9 13 08 01 28 03 27 19 10 31
  20555007.154   -23589930.630 9 -18362443.74048  20555007.435    20555014.3704
  21945575.208   -11217553.941 8  -8716385.99246  21945574.785    21945585.2444
  21614957.764   -15302357.950 8 -11911168.84447  21614957.566    21614967.3754
  22064985.030   -15780036.849 8 -11959336.48446  22064984.779    22064993.0584
  23187059.973    -7667723.029 8  -5962788.69046  23187059.982    23187071.1894
  20969874.687   -19152505.894 9 -14905502.16047  20969874.478    20969883.3244
  20487093.693   -23878621.072 9 -18585740.74447  20487093.580    20487102.3434
  23928610.799    -2805040.567 8  -2176580.22445  23928610.168    23928622.3314
  22717429.125   -11669427.843 8  -9061738.82846  22717428.852    22717440.3484
 00  9 14  1  4 30.0000000  0  9 13 08 01 28 03 27 19 10 31
  20551395.000   -23608912.556 9 -18377234.84348  20551395.295    20551402.2144
  21932532.289   -11286094.041 8  -8769793.79746  21932531.964    21932542.4754
  21627946.024   -15234104.344 8 -11857984.27747  21627945.854    21627955.6274
  22078893.648   -15706946.850 8 -11902383.26446  22078893.380    22078901.6424
  23186789.520    -7669145.043 8  -5963896.70346  23186789.380    23186800.4884
  20963581.802   -19185575.152 9 -14931270.40547  20963581.574    20963590.3854
  20490095.235   -23862848.077 9 -18573450.09947  20490095.102    20490103.8344
  23917030.905    -2865893.808 7  -2223998.29845  23917030.304    23917042.3234
  22704155.039   -11739182.695 8  -9116093.12346  22704154.672    22704166.3024
 00  9 14  1  5  0.0000000  0  9 13 08 01 28 03 27 19 10 31
  20547867.598   -23627449.349 9 -18391679.08548  20547867.867    20547874.7944
  21919524.599   -11354450.068 8  -8823058.17146  21919524.189    21919534.6604
  21641001.631   -15165497.250 8 -11804524.27347  21641001.426    21641011.1614
  22092864.561   -15633529.055 8 -11845174.62846  22092864.368    22092872.6004
  23186623.876    -7670015.632 8  -5964575.02946  23186623.715    23186634.7774
  20957327.651   -19218440.626 9 -14956879.84347  20957327.434    20957336.2984
  20493144.463   -23846824.367 9 -18560964.10047  20493144.331    20493153.0554
  23905540.974    -2926274.350 7  -2271047.96745  23905540.239    23905552.1404
  22690955.197   -11808547.492 8  -9170143.46246  22690954.779    22690966.4894
 00  9 14  1  5 30.0000000  0  9 13 08 01 28 03 27 19 10 31
  20544425.031   -23645539.860 9 -18405775.56948  20544425.321    20544432.2874
  21906551.915   -11422621.554 8  -8876178.73546  21906551.500    21906562.0394
  21654124.350   -15096537.207 8 -11750789.24047  21654124.112    21654133.8854
  22106897.567   -15559785.485 8 -11787712.13946  22106897.343    22106905.5134
  23186563.264    -7670333.961 8  -5964823.04446  23186563.057    23186574.1214
  20951112.481   -19251101.674 9 -14982329.99547  20951112.267    20951121.1154
  20496241.403   -23830549.725 9 -18548282.56247  20496241.268    20496249.9844
  23894141.349    -2986179.917 7  -2317727.56645  23894140.711    23894152.3524
  22677830.329   -11877519.006 8  -9223887.37146  22677829.866    22677841.4604
 00  9 14  1  6  0.0000000  0  9 13 08 01 28 03 27 19 10 31
  20541068.031   -23663180.915 9 -18419521.84148  20541068.344    20541075.3134
  21893614.798   -11490606.701 8  -8929154.13546  21893614.406    21893624.7934
  21667314.321   -15027223.610 8 -11696778.70847  21667314.081    21667323.9264
  22120992.413   -15485717.209 8 -11729996.64346  22120992.066    22121000.2564
  23186608.034    -7670098.132 8  -5964639.25946  23186607.845    23186618.9314
  20944936.481   -19283556.709 9 -15007619.62347  20944936.252    20944945.0544
  20499386.429   -23814022.644 9 -18535404.33147  20499386.280    20499394.9774
  23882832.413    -3045607.157 7  -2364034.38845  23882831.960    23882843.6194
  22664781.092   -11946092.613 8  -9277321.20846  22664780.659    22664792.2404
 00  9 14  1  6 30.0000000  0  9 13 08 01 28 03 27 19 10 31
  20537796.481   -23680372.888 9 -18432918.16948  20537796.799    20537803.7734
  21880713.021   -11558406.586 8  -8981985.12646  21880712.499    21880722.8194
  21680571.174   -14957558.523 8 -11642494.30247  21680570.933    21680580.8184
  22135148.258   -15411327.817 8 -11672030.91946  22135147.866    22135156.0904
  23186758.165    -7669308.911 8  -5964024.24346  23186758.001    23186769.0584
  20938799.469   -19315807.017 9 -15032749.71247  20938799.231    20938807.9814
  20502579.134   -23797244.964 9 -18522330.81947  20502578.990    20502587.6564
  23871614.851    -3104555.641 7  -2409968.19845  23871614.386    23871625.9584
  22651807.767   -12014266.798 8  -9330443.80946  22651807.380    22651818.9384
 00  9 14  1  7  0.0000000  0  9 13 08 01 28 03 27 19 10 31
  20534610.839   -23697113.534 9 -18445962.81548  20534611.155    20534618.1324
  21867846.474   -11626020.451 8  -9034671.19346  21867845.985    21867856.2124
  21693894.915   -14887542.450 8 -11587936.38647  21693894.569    21693904.4624
  22149364.796   -15336619.206 8 -11613816.45046  22149364.494    22149372.7124
  23187013.939    -7667965.589 8  -5962977.46246  23187013.734    23187024.6584
  20932701.637   -19347851.896 9 -15057719.73247  20932701.342    20932710.0504
  20505819.560   -23780216.315 9 -18509061.74947  20505819.457    20505828.1034
  23860488.856    -3163023.084 7  -2455527.15845  23860488.258    23860500.0644
  22638911.298   -12082038.190 8  -9383252.57146  22638910.828    22638922.2094
 00  9 14  1  7 30.0000000  0  9 13 08 01 28 03 27 19 10 31
  20531511.175   -23713402.207 9 -18458655.28248  20531511.510    20531518.4484
  21855015.565   -11693447.796 8  -9087211.91947  21855014.998    21855025.1954
  21707285.175   -14817176.316 8 -11533105.69447  21707284.849    21707294.8124
  22163641.733   -15261594.012 8 -11555355.29246  22163641.350    22163649.6114
  23187375.259    -7666067.781 8  -5961498.61746  23187375.005    23187385.7284
  20926642.846   -19379690.944 9 -15082529.36547  20926642.567    20926651.2424
  20509107.699   -23762936.959 9 -18495597.31747  20509107.580    20509116.2524
  23849454.602    -3221007.950 8  -2500710.10445  23849454.016    23849465.8884
  22626091.955   -12149403.890 8  -9435745.17846  22626091.554    22626102.8494
 00  9 14  1  8  0.0000000  0  9 13 08 01 28 03 27 19 10 31
  20528497.946   -23729237.045 9 -18470994.10948  20528498.276    20528505.1644
  21842220.040   -11760688.108 8  -9139606.90247  21842219.486    21842229.6844
  21720742.033   -14746460.586 8 -11478002.58247  21720741.684    21720751.6034
  22177978.455   -15186254.148 8 -11496648.94446  22177978.065    22177986.3514
  23187841.929    -7663614.394 8  -5959586.84946  23187841.851    23187852.4794
  20920623.257   -19411323.780 9 -15107178.30947  20920623.004    20920631.6934
  20512443.588   -23745406.688 9 -18481937.37447  20512443.471    20512452.1704
  23838512.837    -3278508.021 8  -2545515.26545  23838512.142    23838523.9084
  22613350.333   -12216360.712 8  -9487919.21646  22613349.994    22613361.1874
 00  9 14  1  8 30.0000000  0  9 13 08 01 28 03 27 19 10 31
  20525571.428   -23744616.153 9 -18482977.82148  20525571.752    20525578.6274
  21829460.201   -11827740.714 8  -9191855.62247  21829459.749    21829469.8474
  21734265.162   -14675395.926 8 -11422627.59947  21734264.871    21734274.8464
  22192374.658   -15110601.520 8 -11437698.88646  22192374.289    22192382.6464
  23188414.511    -7660605.056 8  -5957241.88746  23188414.395    23188425.0604
  20914643.133   -19442749.924 9 -15131666.20547  20914642.854    20914651.5024
  20515827.280   -23727625.441 9 -18468081.86047  20515827.108    20515835.8244
  23827663.584    -3335520.906 8  -2589940.79645  23827662.912    23827674.6344
  22600687.350   -12282905.167 8  -9539771.90546  22600686.930    22600698.2074
 00  9 14  1  9  0.0000000  0  9 13 08 01 28 03 27 19 10 31
  20522731.763   -23759538.876 9 -18494605.91148  20522732.058    20522738.9314
  21816736.270   -11894605.342 8  -9243957.86846  21816735.788    21816745.7744
  21747854.657   -14603983.265 8 -11366981.43647  21747854.314    21747864.3094
  22206829.912   -15034638.646 8 -11378507.07046  22206829.562    22206837.9124
  23189092.855    -7657039.316 8  -5954463.35446  23189092.845    23189103.5624
  20908702.226   -19473969.295 9 -15155992.97847  20908701.987    20908710.6514
  20519258.686   -23709593.641 9 -18454031.11547  20519258.513    20519267.1824
  23816907.324    -3392044.934 8  -2633985.40645  23816906.719    23816918.3754
  22588103.418   -12349034.507 8  -9591301.17046  22588103.021    22588114.0184
 00  9 14  1  9 30.0000000  0  9 13 08 01 28 03 27 19 10 31
  20519979.180   -23774003.810 9 -18505877.27748  20519979.464    20519986.3584
  21804048.050   -11961282.216 8  -9295913.80047  21804047.542    21804057.6794
  21761509.962   -14532223.842 8 -11311065.07247  21761509.700    21761519.7144
  22221343.617   -14958368.505 8 -11319075.83746  22221343.284    22221351.7144
  23189877.161    -7652917.388 8  -5951251.43246  23189877.082    23189887.8164
  20902800.676   -19504981.964 9 -15180158.67947  20902800.452    20902809.1254
  20522737.597   -23691311.762 9 -18439785.50047  20522737.434    20522746.0884
  23806244.246    -3448079.382 8  -2677648.52745  23806243.611    23806255.3164
  22575598.945   -12414746.051 8  -9642504.83346  22575598.449    22575609.4494
 00  9 14  1 10  0.0000000  0  9 13 08 01 28 03 27 19 10 31
  20517313.918   -23788009.745 9 -18516790.98348  20517314.219    20517321.1074
  21791395.795   -12027770.122 8  -9347722.49947  21791395.281    21791405.4404
  21775231.437   -14460117.745 8 -11254878.55747  21775231.151    21775241.1024
  22235915.434   -14881792.734 8 -11259406.43446  22235915.146    22235923.6014
  23190767.597    -7648238.155 8  -5947605.23846  23190767.466    23190778.2844
  20896938.677   -19535786.958 9 -15204162.55747  20896938.451    20896947.1174
  20526264.294   -23672779.114 9 -18425344.47747  20526264.083    20526272.7524
  23795674.992    -3503621.169 8  -2720927.78345  23795674.187    23795685.9694
  22563174.539   -12480036.268 8  -9693380.25246  22563174.130    22563184.8774
 00  9 14  1 10 30.0000000  0  9 13 08 01 28 03 27 19 10 31
  20514736.217   -23801555.600 9 -18527346.18848  20514736.533    20514743.3994
  21778779.325   -12094069.574 8  -9399384.36247  21778778.865    21778788.9504
  21789018.458   -14387666.639 8 -11198423.22747  21789018.176    21789028.1224
  22250544.838   -14804914.431 8 -11199501.30846  22250544.648    22250553.0484
  23191764.073    -7643002.418 8  -5943525.43946  23191763.756    23191774.5884
  20891116.078   -19566384.852 9 -15228005.05647  20891115.862    20891124.5504
  20529838.457   -23653996.666 9 -18410708.80947  20529838.279    20529846.9454
  23785199.556    -3558669.467 8  -2763822.49045  23785198.780    23785210.6354
  22550830.774   -12544902.973 8  -9743925.63146  22550830.335    22550841.0724
 00  9 14  1 11  0.0000000  0  9 13 08 01 28 03 27 19 10 31
  20512246.254   -23814640.181 9 -18537541.96248  20512246.597    20512253.4834
  21766198.884   -12160179.599 8  -9450898.59547  21766198.434    21766208.4924
  21802871.168   -14314870.934 8 -11141699.37147  21802870.797    21802880.7354
  22265231.558   -14727735.246 8 -11139361.71846  22265231.421    22265239.7704
  23192866.313    -7637209.107 8  -5939011.14346  23192866.123    23192877.0324
  20885332.960   -19596774.901 9 -15251685.60147  20885332.765    20885341.4834
  20533460.261   -23634964.058 9 -18395878.21447  20533460.091    20533468.7654
  23774818.561    -3613221.919 8  -2806330.80945  23774817.636    23774829.4934
  22538568.235   -12609342.693 8  -9794138.31246  22538567.834    22538578.5984
 00  9 14  1 11 30.0000000  0  9 13 08 01 28 03 27 19 10 31
  20509844.404   -23827261.927 9 -18547377.08948  20509844.770    20509851.6664
  21753654.702   -12226099.881 8  -9502264.99347  21753654.238    21753664.2094
  21816789.111   -14241731.567 8 -11084707.72447  21816788.761    21816798.7774
  22279975.085   -14650257.841 8 -11078989.76046  22279974.944    22279983.2564
  23194074.960    -7630858.061 8  -5934062.25346  23194074.727    23194085.5974
  20879589.489   -19626956.773 9 -15275203.93947  20879589.341    20879598.0524
  20537129.531   -23615681.554 9 -18380852.89147  20537129.401    20537138.0794
  23764532.205    -3667276.805 8  -2848451.44845  23764531.377    23764543.0934
  22526387.464   -12673352.796 8  -9844016.24146  22526387.077    22526397.7034
 00  9 14  1 12  0.0000000  0  9 13 08 01 28 03 27 19 10 31
  20507530.806   -23839420.049 9 -18556850.95348  20507531.172    20507538.0314
  21741146.510   -12291830.553 8  -9553483.63847  21741145.988    21741156.0324
  21830772.190   -14168249.871 8 -11027449.33347  21830771.901    21830781.9894
  22294774.885   -14572484.808 8 -11018387.43846  22294774.738    22294782.9954
  23195389.602    -7623949.317 8  -5928678.81946  23195389.336    23195400.1184
  20873885.620   -19656930.803 9 -15298560.31747  20873885.470    20873894.1464
  20540846.261   -23596149.775 9 -18365633.32947  20540846.158    20540854.8464
  23754340.660    -3720832.993 8  -2890183.49645  23754339.902    23754351.7114
  22514288.842   -12736930.777 8  -9893557.40946  22514288.472    22514299.1424
 00  9 14  1 12 30.0000000  0  9 13 08 01 28 03 27 19 10 31
  20505305.754   -23851112.786 9 -18565962.17448  20505306.112    20505312.9444
  21728674.675   -12357370.528 8  -9604553.69047  21728674.191    21728684.0794
  21844820.434   -14094426.230 8 -10969924.48947  21844820.096    21844830.2444
  22309630.687   -14494417.867 8 -10957556.09346  22309630.464    22309638.6604
  23196810.584    -7616482.053 8  -5922860.11546  23196810.353    23196821.0044
  20868221.529   -19686695.863 9 -15321753.86247  20868221.361    20868230.0344
  20544610.621   -23576368.136 9 -18350219.06547  20544610.502    20544619.2124
  23744244.550    -3773888.176 8  -2931525.12545  23744243.822    23744255.6374
  22502273.175   -12800072.887 8  -9942758.96246  22502272.841    22502283.3764
 00  9 14  1 13  0.0000000  0  9 13 08 01 28 03 27 19 10 31
  20503169.436   -23862339.166 9 -18574710.00548  20503169.771    20503176.6094
  21716239.142   -12422719.827 8  -9655475.16247  21716238.621    21716248.4794
  21858933.395   -14020262.066 8 -10912134.29447  21858933.116    21858943.3124
  22324541.801   -14416059.620 8 -10896497.76246  22324541.581    22324549.8174
  23198337.868    -7608456.553 8  -5916606.45646  23198337.575    23198348.0944
  20862597.174   -19716252.030 9 -15344784.63247  20862597.005    20862605.6884
  20548422.370   -23556337.142 9 -18334610.50147  20548422.273    20548430.9894
  23734244.018    -3826441.008 8  -2972475.32845  23734243.316    23734255.1054
  22490340.785   -12862776.843 8  -9991619.06546  22490340.422    22490351.3014
 00  9 14  1 13 30.0000000  0 10 13 08 01 28 03 02 27 19 10 31
  20501122.206   -23873097.560 9 -18583093.16848  20501122.548    20501129.3744
  21703839.871   -12487877.866 8  -9706247.60847  21703839.435    21703849.2514
  21873111.096   -13945758.105 8 -10854079.33347  21873110.850    21873120.9994
  22339507.835   -14337412.344 8 -10835214.20746  22339507.700    22339515.9274
  23199971.393    -7599872.217 8  -5909917.33646  23199971.124    23199981.6434
  24781037.666     -799840.06244                  24781036.475    24781055.7304
  20857012.690   -19745598.751 9 -15367652.19247  20857012.471    20857021.1604
  20552281.591   -23536056.762 9 -18318807.60447  20552281.472    20552290.2094
  23724339.521    -3878489.212 8  -3013032.30945  23724338.842    23724350.5954
  22478492.548   -12925039.380 8 -10040135.28046  22478492.224    22478502.9914
 00  9 14  1 14  0.0000000  0 10 13 08 01 28 03 02 27 19 10 31
  20499163.759   -23883389.334 9 -18591112.73848  20499164.084    20499170.9214
  21691476.728   -12552846.217 8  -9756872.25247  21691476.303    21691486.1934
  21887352.963   -13870917.041 8 -10795761.67847  21887352.721    21887362.7894
  22354528.189   -14258480.400 8 -10773708.84346  22354527.962    22354536.2814
  23201710.796    -7590731.000 8  -5902794.28746  23201710.610    23201721.0204
  24763343.065    -1148402.52817   -872295.95645  24763341.705    24763359.8644
  20851467.657   -19774737.852 9 -15390357.97047  20851467.450    20851476.1364
  20556187.885   -23515529.030 9 -18302811.97347  20556187.787    20556196.4844
  23714530.814    -3930033.652 8  -3053196.75245  23714530.083    23714541.8974
  22466728.445   -12986859.932 8 -10088307.03446  22466728.108    22466738.7844
 00  9 14  1 14 30.0000000  0 10 13 08 01 28 03 02 27 19 10 31
  20497294.170   -23893214.124 9 -18598768.41848  20497294.488    20497301.3074
  21679149.615   -12617625.016 8  -9807349.19647  21679149.207    21679159.1574
  21901658.697   -13795740.468 8 -10737182.60747  21901658.407    21901668.5304
  22369602.129   -14179266.659 8 -10711983.88846  22369601.857    22369610.2124
  23203556.215    -7581033.291 8  -5895237.61346  23203556.062    23203566.4334
  24745671.806    -1241261.863 7   -944653.47745  24745669.769    24745689.5654
  20845962.095   -19803669.608 9 -15412902.18047  20845961.891    20845970.5764
  20560141.078   -23494754.929 9 -18286624.36547  20560140.991    20560149.6564
  23704818.298    -3981073.144 8  -3092967.76045  23704817.596    23704829.3024
  22455048.974   -13048236.157 8 -10136132.56646  22455048.564    22455059.1474
 00  9 14  1 15  0.0000000  0 10 13 08 01 28 03 02 27 19 10 31
  20495514.084   -23902568.646 9 -18606057.66548  20495514.401    20495521.1964
  21666859.105   -12682212.120 8  -9857676.75547  21666858.706    21666868.6304
  21916028.328   -13720227.673 8 -10678341.53047  21916028.059    21916038.2034
  22384729.669   -14099771.628 8 -10650039.75446  22384729.314    22384737.6824
  23205507.800    -7570777.421 8  -5887246.00646  23205507.612    23205518.0494
  24728025.563    -1333991.869 7  -1016910.20145  24728024.224    24728043.1914
  20840496.429   -19832391.982 9 -15435283.23647  20840496.215    20840504.8954
  20564141.548   -23473732.472 9 -18270243.23147  20564141.431    20564150.1144
  23695202.505    -4031604.572 8  -3132342.86345  23695201.794    23695213.4024
  22443454.879   -13109163.174 8 -10183608.07146  22443454.550    22443464.9794
 00  9 14  1 15 30.0000000  0 10 13 08 01 28 03 02 27 19 10 31
  20493824.077   -23911449.698 9 -18612977.96848  20493824.381    20493831.1664
  21654605.451   -12746605.575 8  -9907853.42447  21654604.999    21654614.9734
  21930462.116   -13644378.069 8 -10619238.01447  21930461.857    21930471.9334
  22399910.514   -14019996.034 8 -10587876.99146  22399910.155    22399918.5494
  23207566.037    -7559961.531 8  -5878818.00246  23207565.827    23207576.1334
  24710404.754    -1426589.641 7  -1089063.91745  24710403.683    24710422.4224
  20835070.986   -19860902.974 9 -15457499.58047  20835070.791    20835079.4504
  20568189.564   -23452460.304 9 -18253667.52747  20568189.389    20568198.0624
  23685684.004    -4081624.624 8  -3171319.49545  23685683.362    23685694.8184
  22431947.025   -13169636.556 8 -10230730.07246  22431946.667    22431957.2084
 00  9 14  1 16  0.0000000  0 10 13 08 01 28 03 02 27 19 10 31
  20492224.465   -23919855.723 9 -18619528.12348  20492224.788    20492231.5414
  21642388.825   -12810804.040 8  -9957878.15447  21642388.386    21642398.3774
  21944959.974   -13568191.656 8 -10559872.05547  21944959.730    21944969.7914
  22415144.438   -13939941.371 8 -10525496.76146  22415144.099    22415152.4924
  23209730.997    -7548584.649 8  -5869952.87046  23209730.797    23209740.9834
  24692809.334    -1519053.116 7  -1161112.95945  24692808.385    24692826.9674
  20829685.922   -19889201.389 9 -15479550.27347  20829685.769    20829694.4254
  20572285.221   -23430937.788 9 -18236896.74547  20572285.013    20572293.6684
  23676263.343    -4131130.598 8  -3209895.53445  23676262.645    23676274.0934
  22420526.271   -13229652.654 8 -10277495.77546  22420525.913    22420536.4144
 00  9 14  1 16 30.0000000  0 10 13 08 01 28 03 02 27 19 10 31
  20490715.252   -23927786.791 9 -18625708.17348  20490715.583    20490722.3174
  21630209.249   -12874808.292 8 -10007751.56447  21630208.758    21630218.7074
  21959521.582   -13491670.567 8 -10500245.29747  21959521.289    21959531.3834
  22430430.772   -13859611.170 8 -10462901.84146  22430430.466    22430438.8834
  23212002.456    -7536648.061 8  -5860651.59946  23212002.285    23212012.5004
  24675239.699    -1611381.838 7  -1233057.01945  24675238.807    24675257.1924
  20824341.235   -19917288.054 9 -15501435.95547  20824341.049    20824349.7044
  20576428.325   -23409165.834 9 -18219931.58947  20576428.095    20576436.7544
  23666940.626    -4180121.998 8  -3248070.63045  23666939.878    23666951.3274
  22409192.892   -13289209.774 8 -10323903.82946  22409192.509    22409203.0504
 00  9 14  1 17  0.0000000  0 10 13 08 01 28 03 02 27 19 10 31
  20489296.870   -23935240.493 9 -18631516.26548  20489297.195    20489303.9154
  21618066.766   -12938617.126 8 -10057472.69147  21618066.274    21618076.2754
  21974146.705   -13414815.137 8 -10440358.03547  21974146.465    21974156.5434
  22445769.325   -13779006.727 8 -10400093.21446  22445769.008    22445777.5004
  23214380.704    -7524150.721 8  -5850913.40546  23214380.489    23214390.7274
  24657696.119    -1703573.849 7  -1304894.55045  24657695.193    24657713.4734
  20819037.020   -19945161.880 9 -15523155.80047  20819036.821    20819045.4424
  20580618.927   -23387143.773 9 -18202771.55247  20580618.774    20580627.4114
  23657716.193    -4228596.674 8  -3285843.05345  23657715.465    23657726.8624
  22397947.507   -13348304.681 8 -10369951.73946  22397946.984    22397957.4884
 00  9 14  1 17 30.0000000  0 10 13 08 01 28 03 02 27 19 10 31
  20487969.173   -23942217.635 9 -18636953.00348  20487969.484    20487976.2384
  21605961.301   -13002231.597 8 -10107042.36147  21605960.825    21605970.8204
  21988835.040   -13337627.799 8 -10380212.13947  21988834.806    21988844.8924
  22461159.271   -13698132.093 8 -10337074.05546  22461158.933    22461167.4824
  23216865.337    -7511094.183 8  -5840739.45046  23216865.059    23216875.3434
  24640178.011    -1795629.511 7  -1376625.83745  24640177.410    24640195.7084
  20813773.160   -19972824.104 9 -15544710.75547  20813772.905    20813781.4654
  20584856.808   -23364873.504 9 -18185418.09847  20584856.670    20584865.2994
  23648590.119    -4276554.402 8  -3323212.70845  23648589.422    23648600.7754
  22386790.146   -13406936.218 8 -10415638.54146  22386789.718    22386800.3474
 00  9 14  1 18  0.0000000  0 10 13 08 01 28 03 02 27 19 10 31
  20486732.463   -23948716.437 9 -18642017.01148  20486732.790    20486739.5794
  21593893.047   -13065650.277 8 -10156459.46347  21593892.579    21593902.5774
  22003586.606   -13260108.522 8 -10319807.58346  22003586.314    22003596.3744
  22476600.314   -13616988.307 8 -10273845.16046  22476600.033    22476608.7314
  23219456.519    -7497477.416 8  -5830128.94746  23219456.235    23219466.6094
  24622686.657    -1887546.369 7  -1448248.98545  24622685.980    24622704.2624
  20808549.724   -20000273.383 9 -15566099.78147  20808549.471    20808558.0094
  20589142.149   -23342353.830 9 -18167870.30647  20589142.024    20589150.6754
  23639562.897    -4323992.787 8  -3360177.68945  23639562.162    23639573.5154
  22375721.784   -13465100.296 8 -10460961.12746  22375721.350    22375731.9154
 00  9 14  1 18 30.0000000  0 10 13 08 01 28 03 02 27 19 10 31
  20485586.823   -23954736.819 9 -18646708.22448  20485587.143    20485593.9594
  21581862.058   -13128873.712 8 -10205724.42847  21581861.558    21581871.4344
  22018400.955   -13182259.152 8 -10259145.82046  22018400.619    22018410.7044
  22492092.054   -13535578.712 8 -10210409.16046  22492091.759    22492100.5174
  23222154.006    -7483301.649 8  -5819082.87046  23222153.718    23222164.1634
  24605221.714    -1979324.147 7  -1519763.81245  24605221.159    24605238.9164
  20803366.765   -20027510.251 9 -15587323.29647  20803366.489    20803374.9714
  20593474.721   -23319585.878 9 -18150129.05847  20593474.624    20593483.2584
  23630634.582    -4370911.223 8  -3396737.48345  23630633.833    23630645.2224
  22364742.689   -13522795.148 8 -10505918.07846  22364742.331    22364752.9124
 00  9 14  1 19  0.0000000  0 10 13 08 01 28 03 02 27 19 10 31
  20484532.462   -23960277.643 9 -18651025.74748  20484532.773    20484539.6044
  21569868.135   -13191901.976 8 -10254837.30347  21569867.602    21569877.4764
  22033277.728   -13104081.258 8 -10198228.05246  22033277.449    22033287.5144
  22507633.773   -13453906.090 8 -10146768.18046  22507633.559    22507642.3724
  23224957.735    -7468567.155 8  -5807601.42146  23224957.467    23224968.0184
  24587783.430    -2070961.839 7  -1591169.47145  24587782.883    24587800.4404
  20798224.164   -20054534.664 9 -15608381.25047  20798223.909    20798232.3694
  20597854.468   -23296570.164 9 -18132194.74247  20597854.372    20597863.0014
  23621805.330    -4417308.230 8  -3432890.95645  23621804.596    23621816.1264
  22353853.386   -13580018.466 8 -10550507.60746  22353853.030    22353863.5274
 00  9 14  1 19 30.0000000  0 10 13 08 01 28 03 02 27 19 10 31
  20483569.670   -23965337.201 9 -18654968.25848  20483569.970    20483576.7774
  21557911.553   -13254733.966 8 -10303797.22747  21557910.969    21557920.8904
  22048216.886   -13025575.478 8 -10137054.80746  22048216.607    22048226.6954
  22523225.246   -13371972.099 8 -10082923.55546  22523225.066    22523233.8564
  23227867.979    -7453273.734 8  -5795684.43746  23227867.682    23227878.2704
  24570372.102    -2162457.473 7  -1662464.48645  24570371.546    24570389.1414
  20793122.190   -20081345.799 9 -15629273.02147  20793121.891    20793130.2994
  20602281.455   -23273306.233 9 -18114067.01447  20602281.348    20602289.9954
  23613075.747    -4463182.450 8  -3468637.07745  23613074.998    23613086.5124
  22343054.449   -13636766.953 8 -10594727.12046  22343054.066    22343064.5624
 00  9 14  1 20  0.0000000  0 10 13 08 01 28 03 02 27 19 10 31
  20482698.662   -23969914.454 9 -18658534.95348  20482698.953    20482705.7594
  21545992.357   -13317369.137 8 -10352603.81447  21545991.820    21546001.7324
  22063218.244   -12946742.748 8 -10075626.79146  22063218.012    22063228.1734
  22538866.088   -13289779.161 8 -10018877.13946  22538865.888    22538874.7164
  23230884.592    -7437421.078 8  -5783331.69246  23230884.314    23230894.8984
  24552988.206    -2253809.953 7  -1733647.96645  24552987.482    24553005.0164
  20788060.757   -20107943.287 9 -15649998.31147  20788060.525    20788068.9494
  20606755.606   -23249794.161 9 -18095745.92947  20606755.530    20606764.2064
  23604446.056    -4508532.318 8  -3503974.61745  23604445.213    23604456.6574
  22332346.487   -13693037.920 8 -10638574.53946  22332346.039    22332356.4964
 00  9 14  1 20 30.0000000  0 10 13 08 01 28 03 02 27 19 10 31
  20481919.445   -23974009.107 9 -18661725.59248  20481919.732    20481926.5754
  21534110.763   -13379807.684 8 -10401257.16047  21534110.176    21534120.0904
  22078281.719   -12867584.480 8 -10013945.09846  22078281.314    22078291.6104
  22554555.637   -13207329.842 8  -9954630.95446  22554555.416    22554564.2934
  23234007.547    -7421009.871 8  -5770543.73046  23234007.361    23234017.8974
  24535631.310    -2345018.141 7  -1804718.94745  24535630.658    24535648.3364
  20783040.085   -20134327.100 9 -15670557.10347  20783039.841    20783048.2874
  20611276.961   -23226034.265 9 -18077231.73447  20611276.870    20611285.5524
  23595916.183    -4553356.520 8  -3538902.52445  23595915.377    23595927.0134
  22321729.655   -13748828.948 8 -10682047.97846  22321729.218    22321739.7154
 00  9 14  1 21  0.0000000  0 10 13 08 01 28 03 02 27 19 10 31
  20481232.287   -23977620.208 9 -18664539.43848  20481232.588    20481239.4234
  21522266.546   -13442049.148 8 -10449756.94047  21522265.995    21522275.8534
  22093406.721   -12788101.897 8  -9952010.72346  22093406.313    22093416.7154
  22570293.524   -13124626.535 8  -9890186.85746  22570293.311    22570302.1844
  23237236.578    -7404040.407 8  -5757320.73246  23237236.447    23237246.9804
  24518302.253    -2436081.172 7  -1875676.83445  24518301.494    24518319.2104
  20778060.088   -20160497.047 9 -15690949.24947  20778059.838    20778068.3014
  20615845.408   -23202026.747 9 -18058524.59147  20615845.347    20615854.0624
  23587486.582    -4597653.886 8  -3573419.93745  23587485.674    23587497.3384
  22311204.793   -13804137.588 8 -10725145.56246  22311204.345    22311214.6764
 00  9 14  1 21 30.0000000  0 10 13 08 01 28 03 02 27 19 10 31
  20480637.488   -23980745.924 9 -18666975.04848  20480637.779    20480644.6174
  21510460.115   -13504092.377 8 -10498102.24147  21510459.549    21510469.3744
  22108593.429   -12708295.440 8  -9889823.95446  22108593.109    22108603.4944
  22586079.365   -13041670.834 8  -9825546.08046  22586079.222    22586088.1134
  23240572.025    -7386512.123 8  -5743662.32746  23240571.907    23240582.4694
  24501001.285    -2526997.059 7  -1946520.06645  24501000.651    24501018.0714
  20773120.942   -20186451.992 9 -15711173.85347  20773120.738    20773129.1974
  20620461.130   -23177771.078 9 -18039624.07347  20620461.052    20620469.7694
  23579157.694    -4641422.457 8  -3607525.26545  23579156.929    23579168.5434
  22300772.254   -13858960.533 8 -10767864.64646  22300771.787    22300782.2874
 00  9 14  1 22  0.0000000  0 10 13 08 01 28 03 02 27 19 10 31
  20480135.050   -23983386.177 9 -18669032.38348  20480135.357    20480142.1844
  21498691.124   -13565937.860 8 -10546293.45747  21498690.646    21498700.4964
  22123841.389   -12628166.962 8  -9827386.27046  22123841.113    22123851.4934
  22601912.855   -12958465.873 8  -9760711.08446  22601912.681    22601921.5284
  23244013.708    -7368426.179 8  -5729569.36246  23244013.524    23244024.1104
  24483728.497    -2617765.205 7  -2017248.13045  24483727.808    24483745.2444
  20768222.630   -20212192.670 9 -15731231.50347  20768222.419    20768230.8964
  20625123.827   -23153268.282 9 -18020530.98847  20625123.784    20625132.5444
  23570929.427    -4684661.622 8  -3641218.09845  23570928.755    23570940.3274
  22290432.438   -13913295.915 8 -10810203.81546  22290431.995    22290442.5974
 00  9 14  1 22 30.0000000  0 10 13 08 01 28 03 02 27 19 10 31
  20479725.327   -23985539.328 9 -18670710.16148  20479725.621    20479732.4524
  21486960.156   -13627584.517 8 -10594329.74847  21486959.657    21486969.5014
  22139150.579   -12547716.969 8  -9764698.05446  22139150.335    22139160.8054
  22617793.511   -12875013.298 8  -9695683.13846  22617793.307    22617802.0824
  23247561.532    -7349782.303 8  -5715041.65046  23247561.328    23247571.8924
  24466484.078    -2708383.770 7  -2087859.65745  24466483.597    24466501.0154
  20763365.378   -20237717.771 9 -15751121.17647  20763365.141    20763373.6544
  20629833.721   -23128517.620 9 -18001244.76447  20629833.673    20629842.4414
  23562802.568    -4727369.380 8  -3674496.83445  23562801.702    23562813.4534
  22280185.969   -13967140.570 8 -10852160.60546  22280185.619    22280196.2624
 00  9 14  1 23  0.0000000  0 10 13 08 01 28 03 02 27 19 10 31
  20479408.292   -23987205.281 9 -18672008.29248  20479408.590    20479415.4104
  21475266.923   -13689032.369 8 -10642211.12347  21475266.463    21475276.2504
  22154520.815   -12466947.105 8  -9701760.58746  22154520.434    22154530.8704
  22633720.809   -12791315.996 8  -9630464.49346  22633720.452    22633729.2014
  23251215.355    -7330581.096 8  -5700079.66246  23251215.189    23251225.7694
  24449268.286    -2798851.913 7  -2158353.95645  24449267.704    24449285.1524
  20758549.031   -20263027.528 9 -15770843.04447  20758548.816    20758557.3244
  20634590.738   -23103519.614 9 -17981765.79547  20634590.650    20634599.4004
  23554776.773    -4769544.944 8  -3707360.90345  23554775.968    23554787.7254
  22270033.428   -14020492.405 8 -10893733.38646  22270033.127    22270043.5714
 00  9 14  1 23 30.0000000  0 10 13 08 01 28 03 02 27 19 10 31
  20479184.349   -23988382.223 9 -18672925.38348  20479184.665    20479191.4724
  21463611.788   -13750280.355 8 -10689936.76247  21463611.331    21463621.0914
  22169951.625   -12385858.005 8  -9638574.36946  22169951.212    22169961.6774
  22649694.266   -12707375.624 8  -9565056.45246  22649693.863    22649702.5604
  23254975.069    -7310822.510 8  -5684683.34945  23254975.036    23254985.6124
  24432081.512    -2889168.095 7  -2228729.85045  24432080.983    24432098.1604
  20753773.890   -20288121.060 9 -15790396.43547  20753773.682    20753782.1694
  20639394.904   -23078273.606 9 -17962093.58247  20639394.854    20639403.5624
  23546852.520    -4811186.358 8  -3739808.73245  23546851.804    23546863.6054
  22259975.350   -14073348.231 8 -10934919.66846  22259974.960    22259985.3614
 00  9 14  1 24  0.0000000  0 10 13 08 01 28 03 02 27 19 10 31
  20479053.514   -23989070.017 9 -18673461.31048  20479053.786    20479060.5844
  21451994.543   -13811329.023 8 -10737507.10347  21451994.114    21452003.7864
  22185442.628   -12304451.676 8  -9575140.95246  22185442.318    22185452.8904
  22665713.297   -12623195.311 8  -9499461.43846  22665712.893    22665721.5814
  23258840.952    -7290507.509 8  -5668853.47445  23258840.840    23258851.3194
  24414923.654    -2979331.733 7  -2298986.87745  24414923.201    24414940.1594
  20749039.739   -20312998.823 9 -15809781.69047  20749039.549    20749048.0594
  20644246.157   -23052780.479 9 -17942228.81047  20644246.066    20644254.7474
  23539030.270    -4852293.345 8  -3771840.11445  23539029.459    23539041.1414
  22250011.918   -14125706.467 8 -10975718.23046  22250011.517    22250021.7954
 00  9 14  1 24 30.0000000  0 10 13 08 01 28 03 02 27 19 10 31
  20479016.001   -23989267.069 9 -18673614.84548  20479016.262    20479023.0814
  21440415.385   -13872177.087 8 -10784921.12147  21440415.020    21440424.7594
  22200993.968   -12222728.328 8  -9511460.52046  22200993.731    22201004.4284
  22681777.624   -12538776.387 8  -9433680.48846  22681777.322    22681785.9704
  23262812.821    -7269635.655 8  -5652589.67545  23262812.600    23262822.9844
  24397795.328    -3069340.919 7  -2369123.52445  24397794.739    24397811.5844
  20744346.987   -20337659.453 9 -15828997.75747  20744346.798    20744355.2934
  20649144.508   -23027039.830 9 -17922171.15947  20649144.365    20649153.0224
  23531310.015    -4892863.643 8  -3803453.31645  23531309.224    23531320.8924
  22240143.663   -14177563.838 8 -11016126.48846  22240143.300    22240153.5054
 00  9 14  1 25  0.0000000  0 10 13 08 01 28 03 02 27 19 10 31
  20479071.868   -23988973.381 9 -18673385.98448  20479072.123    20479078.9264
  21428874.539   -13932824.840 8 -10832179.05047  21428874.129    21428883.8334
  22216605.431   -12140689.782 8  -9447534.45746  22216605.174    22216615.8914
  22697886.740   -12454122.135 8  -9367716.16746  22697886.450    22697895.1314
  23266890.488    -7248207.820 8  -5635892.64145  23266890.237    23266900.6014
  24380696.236    -3159195.259 7  -2439139.52145  24380695.746    24380712.6404
  20739695.446   -20362103.444 9 -15848045.00847  20739695.258    20739703.7324
  20654089.767   -23001052.276 9 -17901921.11747  20654089.631    20654098.2844
  23523691.897    -4932896.997 8  -3834648.11245  23523691.048    23523702.8244
  22230371.146   -14228918.299 8 -11056142.87546  22230370.804    22230381.0224
 00  9 14  1 25 30.0000000  0 10 13 08 01 28 03 02 27 19 10 31
  20479221.638   -23988186.595 9 -18672772.89648  20479221.890    20479228.6264
  21417372.043   -13993270.909 8 -10879279.81947  21417371.583    21417381.3804
  22232276.887   -12058336.286 8  -9383362.99146  22232276.655    22232287.3924
  22714040.399   -12369233.591 8  -9301569.27046  22714040.188    22714048.9214
  23271073.805    -7226223.453 8  -5618761.94445  23271073.641    23271084.0524
  24363627.212    -3248892.296 7  -2509032.92845  24363626.603    24363643.5344
  20735085.437   -20386329.385 9 -15866922.35747  20735085.229    20735093.6744
  20659082.210   -22974816.999 9 -17881478.04347  20659082.055    20659090.7224
  23516176.444    -4972391.039 8  -3865422.65946  23516175.580    23516187.3664
  22220694.921   -14279766.475 8 -11095764.75946  22220694.633    22220704.8944
 00  9 14  1 26  0.0000000  0 10 13 08 01 28 03 02 27 19 10 31
  20479465.167   -23986906.696 9 -18671775.57248  20479465.441    20479472.1514
  21405907.913   -14053515.021 8 -10926223.22947  21405907.429    21405917.2634
  22248007.936   -11975669.518 8  -9318947.44546  22248007.704    22248018.5184
  22730238.041   -12284113.523 8  -9235241.99546  22730237.994    22730246.7504
  23275363.031    -7203683.635 8  -5601198.43445  23275362.921    23275373.2604
  24346588.146    -3338431.274 7  -2578803.21845  24346587.539    24346604.4274
  20730516.853   -20410337.204 9 -15885629.73947  20730516.672    20730525.1354
  20664121.677   -22948334.501 9 -17860842.33747  20664121.496    20664130.1684
  23508763.756    -5011345.013 8  -3895776.39146  23508762.932    23508774.6204
  22211115.689   -14330106.032 8 -11134990.31746  22211115.315    22211125.4534
 00  9 14  1 26 30.0000000  0 10 13 08 01 28 03 02 27 19 10 31
  20479802.606   -23985133.383 9 -18670393.76748  20479802.858    20479809.5774
  21394482.013   -14113557.404 8 -10973009.44247  21394481.669    21394491.6004
  22263798.391   -11892691.188 8  -9254289.10346  22263798.103    22263808.8624
  22746479.634   -12198764.591 8  -9168736.37346  22746479.410    22746488.1604
  23279758.037    -7180589.247 8  -5583202.77745  23279757.759    23279768.0064
  24329579.151    -3427811.817 7  -2648450.01045  24329578.544    24329595.4304
  20725989.842   -20434127.021 9 -15904167.24847  20725989.656    20725998.0514
  20669208.012   -22921605.481 9 -17840014.52747  20669207.865    20669216.5484
  23501453.843    -5049758.367 8  -3925708.83445  23501453.003    23501464.7064
  22201633.318   -14379935.443 8 -11173818.35546  22201632.999    22201643.1614
 00  9 14  1 27  0.0000000  0 10 13 08 01 28 03 02 27 19 10 31
  20480234.191   -23982865.142 9 -18668626.30648  20480234.479    20480241.2434
  21383094.808   -14173397.323 8 -11019637.89947  21383094.462    21383104.3174
  22279647.910   -11809401.962 8  -9189388.51046  22279647.670    22279658.4014
  22762764.154   -12113188.811 8  -9102053.96446  22762764.026    22762772.7214
  23284258.130    -7156940.331 8  -5564775.04245  23284257.954    23284268.2284
  24312600.650    -3517032.126 7  -2717971.95345  24312600.237    24312617.0144
  20721504.493   -20457698.083 9 -15922534.29747  20721504.261    20721512.6434
  20674341.256   -22894629.753 9 -17818994.47147  20674341.151    20674349.8274
  23494247.200    -5087629.352 8  -3955218.67046  23494246.402    23494258.0764
  22192248.803   -14429251.640 8 -11212246.50146  22192248.476    22192258.5214
 00  9 14  1 27 30.0000000  0 10 13 08 01 28 03 02 27 19 10 31
  20480760.131   -23980101.403 9 -18666472.75548  20480760.434    20480767.1954
  21371746.190   -14233034.222 8 -11066108.15847  21371745.878    21371755.7284
  22295556.324   -11725803.361 8  -9124246.85046  22295556.047    22295566.8154
  22779091.553   -12027388.450 8  -9035196.59346  22779091.313    22779099.9814
  23288863.678    -7132737.268 8  -5545915.48845  23288863.556    23288873.8984
  24295653.177    -3606091.154 7  -2787368.24545  24295652.700    24295669.2424
  20717060.778   -20481049.933 9 -15940730.54447  20717060.537    20717068.9264
  20679521.569   -22867406.984 9 -17797781.92847  20679521.475    20679530.1564
  23487144.097    -5124956.827 8  -3984304.99646  23487143.269    23487154.8744
  22182962.330   -14478052.189 8 -11250272.82346  22182962.025    22182971.9884
 00  9 14  1 28  0.0000000  0 10 13 08 01 28 03 02 27 19 10 31
  20481380.337   -23976842.125 9 -18663933.05848  20481380.615    20481387.3924
  21360436.339   -14292468.164 8 -11112420.27247  21360435.978    21360445.6644
  22311523.211   -11641896.920 8  -9058865.30446  22311522.994    22311533.7754
  22795461.098   -11941366.298 8  -8968166.38346  22795460.871    22795469.4894
  23293574.778    -7107980.821 8  -5526624.73045  23293574.574    23293584.8424
  24278736.502    -3694988.285 7  -2856638.40445  24278736.041    24278752.2454
  20712658.700   -20504182.641 9 -15958756.02047  20712658.495    20712666.9224
  20684748.790   -22839937.944 9 -17776377.47547  20684748.676    20684757.3614
  23480144.377    -5161740.416 8  -4012967.50246  23480143.565    23480155.2364
  22173774.342   -14526335.638 8 -11287896.20946  22173774.006    22173783.9304
 00  9 14  1 28 30.0000000  0 10 13 08 01 28 03 02 27 19 10 31
  20482095.026   -23973086.345 9 -18661006.47648  20482095.311    20482102.1124
  21349165.158   -14351698.686 8 -11158573.87447  21349164.721    21349174.3754
  22327548.446   -11557684.002 8  -8993244.94346  22327548.240    22327559.0124
  22811872.561   -11855124.453 8  -8900964.97946  22811872.210    22811880.7984
  23298390.973    -7082671.694 8  -5506903.32445  23298390.710    23298400.9084
  24261850.835    -3783722.178 7  -2925781.35745  24261850.271    24261866.3384
  20708298.432   -20527095.822 9 -15976610.43547  20708298.233    20708306.6854
  20690022.801   -22812222.841 9 -17754781.28847  20690022.665    20690031.3814
  23473248.421    -5197978.876 8  -4041205.25145  23473247.659    23473259.1404
  22164685.135   -14574099.041 8 -11325114.37146  22164684.798    22164694.7514
 00  9 14  1 29  0.0000000  0 10 13 08 01 28 03 02 27 19 10 31
  20482904.468   -23968832.578 9 -18657691.85948  20482904.800    20482911.5774
  21337932.878   -14410724.558 8 -11204568.01047  21337932.477    21337942.0334
  22343631.843   -11473165.032 8  -8927386.09246  22343631.706    22343642.4964
  22828325.317   -11768664.662 8  -8833593.75846  22828325.039    22828333.6264
  23303312.368    -7056809.906 8  -5486751.28145  23303312.083    23303322.1964
  24244996.281    -3872290.885 7  -2994795.62045  24244995.800    24245011.9274
  20703980.221   -20549788.364 9 -15994292.92747  20703980.003    20703988.4494
  20695343.778   -22784260.775 9 -17732992.65947  20695343.642    20695352.3994
  23466456.511    -5233670.479 8  -4069016.84045  23466455.691    23466467.2334
  22155695.519   -14621339.312 8 -11361924.87746  22155695.241    22155705.1464
 00  9 14  1 29 30.0000000  0 10 13 08 01 28 03 02 27 19 10 31
  20483808.911   -23964079.735 9 -18653988.34848  20483809.214    20483816.0034
  21326739.572   -14469545.391 8 -11250402.38347  21326739.186    21326748.7134
  22359773.344   -11388341.263 8  -8861289.74546  22359773.201    22359783.9804
  22844819.044   -11681988.956 8  -8766054.29546  22844818.881    22844827.5054
  23308338.708    -7030396.019 8  -5466169.02245  23308338.354    23308348.5344
  24228173.616    -3960693.379 7  -3063680.39445  24228173.015    24228188.9404
  20699704.028   -20572259.883 9 -16011803.19847  20699703.823    20699712.2434
  20700711.788   -22756051.672 9 -17711011.53847  20700711.665    20700720.4054
  23459768.728    -5268814.167 8  -4096401.50045  23459767.981    23459779.5194
  22146805.947   -14668054.284 8 -11398326.08046  22146805.625    22146815.4294
 00  9 14  1 30  0.0000000  0 10 13 08 01 28 03 02 27 19 10 31
  20484808.416   -23958827.411 9 -18649895.62948  20484808.732    20484815.5084
  21315585.379   -14528161.104 8 -11296076.93047  21315584.948    21315594.4814
  22375972.734   -11303214.243 8  -8794957.09646  22375972.457    22375983.1204
  22861353.571   -11595099.999 8  -8698348.64246  22861353.334    22861361.8964
  23313469.728    -7003430.821 8  -5445157.16645  23313469.492    23313479.8074
  24211382.638    -4048928.947 7  -3132435.11645  24211382.129    24211398.0004
  20695469.977   -20594510.216 9 -16029141.11547  20695469.734    20695478.1444
  20706126.749   -22727595.921 9 -17688838.22747  20706126.607    20706135.3304
  23453185.370    -5303409.446 8  -4123358.84645  23453184.688    23453196.3134
  22138016.657   -14714242.127 8 -11434316.52246  22138016.320    22138026.0524
 00  9 14  1 30 30.0000000  0 10 13 08 01 28 03 02 27 19 10 31
  20485902.953   -23953075.534 9 -18645413.65648  20485903.294    20485910.0374
  21304470.285   -14586571.153 8 -11341591.21547  21304469.833    21304479.3864
  22392229.281   -11217785.327 8  -8728389.21546  22392229.072    22392239.7954
  22877927.995   -11508000.154 8  -8630478.68846  22877927.890    22877936.5104
  23318705.614    -6975915.024 8  -5423716.28745  23318705.366    23318715.9464
  24194623.750    -4136996.462 7  -3201058.85145  24194623.241    24194639.0714
  20691277.969   -20616539.147 9 -16046306.51047  20691277.747    20691286.1524
  20711588.621   -22698893.667 9 -17666472.83947  20711588.496    20711597.1564
  23446706.704    -5337455.166 8  -4149887.93845  23446706.083    23446717.6154
  22129328.213   -14759900.207 8 -11469894.16746  22129327.875    22129337.5464
 00  9 14  1 31  0.0000000  0 10 13 08 01 28 03 02 27 19 10 31
  20487092.828   -23946822.708 9 -18640541.33248  20487093.151    20487099.9154
  21293394.494   -14644774.543 8 -11386944.46847  21293394.080    21293403.6084
  22408543.403   -11132054.988 8  -8661586.45846  22408543.098    22408553.8404
  22894542.566   -11420690.786 8  -8562445.45846  22894542.358    22894550.9594
  23324046.298    -6947848.742 8  -5401846.43345  23324046.079    23324056.8174
  24177897.219    -4224894.015 7  -3269550.23545  24177896.721    24177912.5194
  20687128.421   -20638345.272 9 -16063298.28848  20687128.219    20687136.5824
  20717097.523   -22669944.304 9 -17643914.89747  20717097.392    20717106.0334
  23440333.043    -5370949.547 8  -4175987.44645  23440332.295    23440343.9334
  22120741.086   -14805025.675 8 -11505056.78346  22120740.670    22120750.3714
 00  9 14  1 31 30.0000000  0 10 13 08 01 28 03 02 27 19 10 31
  20488377.969   -23940069.191 9 -18635278.85448  20488378.291    20488385.0504
  21282358.018   -14702771.902 8 -11432137.17847  21282357.600    21282367.0164
  22424914.213   -11046026.024 8  -8594550.99446  22424913.965    22424924.6834
  22911196.054   -11333175.649 8  -8494251.89646  22911195.909    22911204.5254
  23329491.468    -6919233.988 8  -5379549.22145  23329491.279    23329502.0704
  24161203.134    -4312621.690 7  -3337909.21545  24161202.548    24161218.3524
  20683021.072   -20659929.845 9 -16080117.41948  20683020.823    20683029.1644
  20722653.183   -22640749.129 9 -17621165.40947  20722653.016    20722661.6634
  23434063.979    -5403892.853 8  -4201657.55145  23434063.285    23434074.9984
  22112255.428   -14849617.564 8 -11539803.62246  22112255.065    22112264.7174
 00  9 14  1 32  0.0000000  0 10 13 08 01 28 03 02 27 19 10 31
  20489758.717   -23932813.547 9 -18629625.11748  20489759.005    20489765.7514
  21271360.920   -14760562.133 9 -11477168.48747  21271360.474    21271369.8484
  22441341.939   -10959698.964 8  -8527283.25046  22441341.603    22441352.2824
  22927888.386   -11245455.993 8  -8425898.95246  22927888.384    22927897.0424
  23335041.195    -6890070.401 8  -5356824.33745  23335041.037    23335051.8134
  24144541.588    -4400177.679 7  -3406134.46145  24144541.042    24144556.7224
  20678956.070   -20681291.465 9 -16096762.82948  20678955.827    20678964.1864
  20728255.627   -22611307.865 9 -17598224.16647  20728255.507    20728264.1554
  23427900.207    -5436283.542 8  -4226897.03145  23427899.453    23427911.2614
  22103871.828   -14893673.016 8 -11574132.46046  22103871.468    22103881.1524
 00  9 14  1 32 30.0000000  0 10 13 08 01 28 03 02 27 19 10 31
  20491235.010   -23925055.519 9 -18623579.91148  20491235.283    20491242.0174
  21260403.228   -14818145.135 8 -11522038.31747  21260402.759    21260412.1844
  22457825.956   -10873075.519 8  -8459784.55046  22457825.651    22457836.2924
  22944619.304   -11157534.205 8  -8357388.51446  22944619.360    22944628.0664
  23340695.243    -6860358.907 8  -5333672.50645  23340695.033    23340705.7084
  24127912.865    -4487561.128 7  -3474225.26645  24127912.314    24127927.7434
  20674933.495   -20702430.028 9 -16113234.42148  20674933.272    20674941.6244
  20733904.957   -22581620.407 9 -17575091.09147  20733904.846    20733913.5184
  23421841.583    -5468121.391 8  -4251705.74345  23421840.907    23421852.6574
  22095590.706   -14937189.988 8 -11608041.71546  22095590.362    22095600.0964
 00  9 14  1 33  0.0000000  0 10 13 08 01 28 03 02 27 19 10 31
  20492807.074   -23916794.413 9 -18617142.68748  20492807.335    20492814.0874
  21249484.951   -14875520.360 8 -11566746.24247  21249484.508    21249494.0424
  22474366.091   -10786156.820 8  -8392055.80746  22474365.770    22474376.4504
  22961388.520   -11069412.723 8  -8288722.47446  22961388.372    22961397.1094
  23346453.133    -6830100.526 8  -5310094.53645  23346453.067    23346463.7054
  24111317.218    -4574771.014 7  -3542180.84345  24111316.673    24111331.8964
  20670953.508   -20723345.032 9 -16129531.81448  20670953.287    20670961.6654
  20739601.051   -22551686.946 9 -17551766.31847  20739600.963    20739609.6444
  23415888.411    -5499405.220 8  -4276082.73245  23415887.748    23415899.5304
  22087412.596   -14980166.048 8 -11641529.48846  22087412.253    22087421.9724
 00  9 14  1 33 30.0000000  0 10 13 08 01 28 03 02 27 19 10 31
  20494475.009   -23908029.278 9 -18610312.72148  20494475.280    20494482.0474
  21238606.412   -14932686.796 8 -11611291.48147  21238606.029    21238615.6404
  22490962.268   -10698943.879 8  -8324097.76746  22490961.931    22490972.5614
  22978195.290   -10981093.312 8  -8219902.20346  22978195.037    22978203.8124
  23352315.286    -6799295.542 8  -5286090.62945  23352315.149    23352325.7684
  24094754.583    -4661805.785 7  -3609999.94745  24094754.049    24094769.4704
  20667016.201   -20744035.584 9 -16145654.31548  20667015.992    20667024.4054
  20745344.123   -22521507.133 9 -17528249.59347  20745344.007    20745352.6914
  23410041.058    -5530133.803 8  -4300027.06545  23410040.387    23410052.0344
  22079337.871   -15022598.938 8 -11674593.99546  22079337.563    22079347.2544
 00  9 14  1 34  0.0000000  0 10 13 08 01 28 03 02 27 19 10 31
  20496238.891   -23898760.074 9 -18603089.97548  20496239.179    20496245.9484
  21227767.694   -14989644.276 8 -11655673.88847  21227767.333    21227776.9814
  22507613.973   -10611438.207 8  -8255911.62846  22507613.704    22507624.3684
  22995039.294   -10892578.533 8  -8150929.69446  22995038.976    22995047.7174
  23358281.220    -6767945.045 8  -5261661.63645  23358280.959    23358291.4514
  24078225.565    -4748664.702 7  -3677682.01845  24078225.182    24078240.6594
  20663121.622   -20764501.602 9 -16161601.85348  20663121.389    20663129.8104
  20751134.017   -22491080.944 9 -17504540.88147  20751133.889    20751142.5784
  23404299.429    -5560306.594 8  -4323538.31446  23404298.761    23404310.3534
  22071366.783   -15064486.743 8 -11707233.75946  22071366.481    22071376.0584
 00  9 14  1 34 30.0000000  0 10 13 08 01 28 03 02 27 19 10 31
  20498098.723   -23888986.495 9 -18595474.20348  20498099.021    20498105.7994
  21216968.796   -15046392.728 8 -11699893.42347  21216968.468    21216978.0394
  22524320.987   -10523641.755 8  -8187498.91346  22524320.768    22524331.5914
  23011919.897   -10803870.882 8  -8081806.90146  23011919.520    23011928.2394
  23364350.453    -6736050.169 8  -5236808.46545  23364350.307    23364360.7894
  24061730.311    -4835346.985 7  -3745226.49545  24061729.971    24061745.1704
  20659269.830   -20784743.045 9 -16177374.39848  20659269.605    20659277.9914
  20756970.641   -22460409.201 9 -17480640.82947  20756970.518    20756979.1974
  23398663.556    -5589923.340 8  -4346616.29145  23398662.823    23398674.3714
  22063499.866   -15105827.602 8 -11739447.34046  22063499.488    22063509.0234
 00  9 14  1 35  0.0000000  0 10 13 08 01 28 03 02 27 19 10 31
  20500054.834   -23878707.099 9 -18587464.29748  20500055.157    20500061.9434
  21206210.011   -15102930.965 8 -11743949.16047  21206209.646    21206219.0864
  22541083.461   -10435554.966 8  -8118859.95546  22541083.283    22541094.0304
  23028836.907   -10714971.832 8  -8012534.95746  23028836.498    23028845.1954
  23370523.560    -6703610.901 8  -5211531.08245  23370523.274    23370533.7364
  24045268.966    -4921851.025 7  -3812632.03645  24045268.556    24045283.7824
  20655460.923   -20804758.682 9 -16192970.98248  20655460.722    20655469.1044
  20762854.198   -22429491.007 9 -17456548.74147  20762854.055    20762862.7594
  23393133.755    -5618982.275 8  -4369259.59046  23393133.091    23393144.6894
  22055737.484   -15146618.847 8 -11771232.65046  22055737.101    22055746.7334
 00  9 14  1 35 30.0000000  0 10 13 08 01 28 03 02 27 19 10 31
  20502107.154   -23867921.930 9 -18579060.27248  20502107.496    20502114.2664
  21195491.114   -15159259.099 8 -11787841.16847  21195490.737    21195500.1804
  22557900.861   -10347179.819 8  -8049996.32046  22557900.590    22557911.4334
  23045789.642   -10625884.033 8  -7943115.93846  23045789.392    23045798.0884
  23376799.978    -6670628.592 8  -5185830.57145  23376799.718    23376809.9874
  24028841.954    -5008176.011 7  -3879898.06745  24028841.350    24028856.4984
  20651695.014   -20824548.558 9 -16208391.64448  20651694.819    20651703.2294
  20768784.524   -22398326.913 9 -17432265.03747  20768784.380    20768793.1134
  23387710.231    -5647482.887 8  -4391467.85545  23387709.566    23387721.1414
  22048079.965   -15186858.743 8 -11802588.34246  22048079.662    22048089.2574
 00  9 14  1 36  0.0000000  0 10 13 08 01 28 03 02 27 19 10 31
  20504255.849   -23856630.770 9 -18570261.96848  20504256.139    20504262.9034
  21184812.250   -15215376.962 9 -11831569.32747  21184811.820    21184821.2554
  22574772.823   -10258517.909 8  -7980909.19546  22574772.501    22574783.3494
  23062777.887   -10536609.915 8  -7873551.72546  23062777.692    23062786.3874
  23383179.449    -6637104.598 8  -5159707.97045  23383179.191    23383189.4524
  24012448.956    -5094321.020 8  -3947023.87945  24012448.428    24012463.3174
  20647972.148   -20844112.553 9 -16223636.29348  20647971.916    20647980.3504
  20774761.569   -22366917.442 9 -17407790.13447  20774761.412    20774770.1704
  23382393.037    -5675424.909 8  -4413240.83846  23382392.387    23382403.9934
  22040527.773   -15226545.586 8 -11833513.07846  22040527.431    22040536.9294
 00  9 14  1 36 30.0000000  0 10 13 08 01 28 03 02 27 19 10 31
  20506501.023   -23844832.395 9 -18561068.43348  20506501.304    20506508.0914
  21174173.619   -15271283.680 9 -11875132.96747  21174173.145    21174182.5114
  22591699.041   -10169570.353 8  -7911599.52446  22591698.782    22591709.7274
  23079801.214   -10447151.572 8  -7803843.97546  23079801.036    23079809.7284
  23389661.897    -6603039.519 8  -5133163.73945  23389661.555    23389671.8494
  23996090.567    -5180284.879 8  -4014008.51145  23996090.063    23996104.7474
  20644292.306   -20863449.929 9 -16238704.35748  20644292.124    20644300.5374
  20780785.370   -22335262.226 9 -17383123.74247  20780785.242    20780793.9884
  23377182.317    -5702807.370 8  -4434577.77846  23377181.615    23377193.3474
  22033081.385   -15265676.910 8 -11864004.94646  22033081.025    22033090.4124
 00  9 14  1 37  0.0000000  0 10 13 08 01 28 03 02 27 19 10 31
  20508842.957   -23832525.586 9 -18551478.71448  20508843.233    20508850.0574
  21163575.379   -15326977.564 9 -11918530.74147  21163574.882    21163584.2734
  22608679.395   -10080337.489 8  -7842067.50646  22608679.197    22608690.2284
  23096859.408   -10357509.956 8  -7733993.40246  23096859.266    23096868.0864
  23396247.213    -6568432.838 8  -5106197.45745  23396246.806    23396257.3044
  23979766.944    -5266065.403 8  -4080850.27845  23979766.463    23979781.1654
  20640655.975   -20882558.902 9 -16253594.44348  20640655.791    20640664.1994
  20786856.114   -22303360.054 9 -17358264.91547  20786856.009    20786864.7604
  23372078.431    -5729628.368 8  -4455477.23146  23372077.708    23372089.4364
  22025741.331   -15304249.601 8 -11894061.50646  22025740.927    22025750.2974
 00  9 14  1 37 30.0000000  0 10 13 08 01 28 03 02 27 19 10 31
  20511281.355   -23819711.371 9 -18541493.62048  20511281.655    20511288.4954
  21153017.525   -15382459.188 8 -11961763.13047  21153017.001    21153026.3904
  22625713.796    -9990821.863 8  -7772315.16046  22625713.564    22625724.6544
  23113951.905   -10267688.377 8  -7664002.61446  23113951.774    23113960.5554
  23402935.209    -6533286.967 8  -5078811.06545  23402934.725    23402945.2274
  23963478.334    -5351662.675 8  -4147549.26645  23963477.840    23963492.2724
  20637063.013   -20901440.190 9 -16268307.12148  20637062.799    20637071.1894
  20792973.707   -22271212.090 9 -17333214.56547  20792973.604    20792982.3364
  23367081.212    -5755888.486 8  -4475939.62946  23367080.536    23367092.2694
  22018507.664   -15342263.092 8 -11923682.34246  22018507.215    22018516.4704
 00  9 14  1 38  0.0000000  0 10 13 08 01 28 03 02 27 19 10 31
  20513816.712   -23806388.206 9 -18531111.94248  20513817.000    20513823.8344
  21142500.125   -15437728.144 9 -12004829.81447  21142499.722    21142508.9724
  22642801.597    -9901024.568 8  -7702343.33246  22642801.444    22642812.6184
  23131078.357   -10177688.794 8  -7593873.09946  23131078.079    23131086.8984
  23409725.670    -6497602.523 7  -5051004.98745  23409725.195    23409735.7404
  23947224.567    -5437075.496 7  -4214104.51545  23947224.212    23947238.5064
  20633513.449   -20920093.223 9 -16282841.93648  20633513.236    20633521.5914
  20799138.015   -22238818.404 9 -17307972.74547  20799137.946    20799146.6234
  23362191.002    -5781586.986 8  -4495964.37846  23362190.252    23362201.9454
  22011380.743   -15379714.875 8 -11952865.47446  22011380.348    22011389.5684
 00  9 14  1 38 30.0000000  0 10 13 08 01 28 03 02 27 19 10 31
  20516448.805   -23792556.589 9 -18520334.06548  20516449.088    20516455.9184
  21132023.499   -15492783.574 9 -12047730.10947  21132023.055    21132032.2624
  22659942.863    -9810946.932 8  -7632153.09346  22659942.639    22659953.9344
  23148238.215   -10087513.203 8  -7523606.46346  23148238.018    23148246.7214
  23416618.424    -6461380.297 8  -5022779.88745  23416618.102    23416628.5304
  23931006.318    -5522302.706 8  -4280515.12845  23931005.929    23931020.1254
  20630007.426   -20938517.247 9 -16297198.30248  20630007.233    20630015.6174
  20805349.151   -22206178.893 9 -17282539.36547  20805349.086    20805357.7034
  23357407.770    -5806722.967 8  -4515550.84846  23357407.063    23357418.6704
  22004361.058   -15416602.967 8 -11981609.37446  22004360.639    22004369.9554
 00  9 14  1 39  0.0000000  0 10 13 08 01 28 03 02 27 19 10 31
  20519177.790   -23778215.650 9 -18509159.30648  20519178.059    20519184.9134
  21121587.415   -15547625.646 9 -12090464.15047  21121586.950    21121596.0844
  22677137.143    -9720590.976 8  -7561745.96446  22677136.895    22677148.1224
  23165431.010    -9997164.273 8  -7453204.74146  23165430.846    23165439.6054
  23423613.290    -6424622.081 8  -4994137.12045  23423613.070    23423623.3354
  23914823.339    -5607343.969 8  -4346780.87445  23914822.883    23914837.1124
  20626544.990   -20956712.401 9 -16311376.31148  20626544.790    20626553.1874
  20811606.920   -22173294.277 9 -17256914.98647  20811606.834    20811615.4474
  23352731.590    -5831296.573 8  -4534699.07646  23352730.841    23352742.3904
  21997448.846   -15452925.966 8 -12009912.93846  21997448.494    21997457.8044
 00  9 14  1 39 30.0000000  0 10 13 08 01 28 03 02 27 19 10 31
  20522003.907   -23763364.170 9 -18497586.73448  20522004.232    20522011.0544
  21111192.220   -15602252.457 9 -12133030.45447  21111191.766    21111200.9174
  22694384.301    -9629956.707 8  -7491121.97146  22694384.045    22694395.2544
  23182656.889    -9906643.022 8  -7382668.74746  23182656.561    23182665.2554
  23430710.213    -6387327.504 8  -4965076.41445  23430710.087    23430720.1954
  23898676.281    -5692196.783 8  -4412899.75345  23898675.801    23898690.2074
  20623126.459   -20974676.834 9 -16325374.55148  20623126.287    20623134.6624
  20817911.561   -22140163.126 9 -17231098.51047  20817911.440    20817920.0724
  23348162.761    -5855305.680 8  -4553407.44746  23348162.074    23348173.6374
  21990644.905   -15488680.360 8 -12037773.44746  21990644.554    21990653.8484
 00  9 14  1 40  0.0000000  0 10 13 08 01 28 03 02 27 19 10 31
  20524926.948   -23748003.402 9 -18485617.31048  20524927.278    20524934.1224
  21100837.800   -15656664.791 9 -12175429.62247  21100837.345    21100846.6414
  22711684.013    -9539046.993 8  -7420283.31346  22711683.728    22711694.9364
  23199914.730    -9815952.782 8  -7312001.09046  23199914.373    23199923.0764
  23437908.654    -6349498.601 8  -4935599.33645  23437908.623    23437918.7604
  23882564.876    -5776861.469 8  -4478872.03845  23882564.345    23882578.8714
  20619751.668   -20992411.275 9 -16339193.57348  20619751.493    20619759.8524
  20824262.903   -22106786.720 9 -17205090.92647  20824262.763    20824271.4004
  23343701.167    -5878750.815 8  -4571676.34445  23343700.552    23343712.1394
  21983949.360   -15523865.781 8 -12065190.59246  21983948.979    21983958.2424
 00  9 14  1 40 30.0000000  0 10 13 08 01 28 03 02 27 19 10 31
  20527947.121   -23732132.253 9 -18473250.17348  20527947.438    20527954.3024
  21090524.358   -15710861.892 9 -12217661.07447  21090523.934    21090533.2884
  22729035.899    -9447863.356 8  -7349231.22246  22729035.516    22729046.6094
  23217204.495    -9725095.473 8  -7241203.22546  23217204.073    23217212.8644
  23445208.570    -6311136.613 7  -4905706.86045  23445208.490    23445218.8894
  23866489.658    -5861336.641 8  -4544696.66245  23866489.114    23866503.4834
  20616420.826   -21009915.133 9 -16352832.91948  20616420.609    20616428.9634
  20830660.859   -22073165.001 9 -17178892.17947  20830660.744    20830669.4104
  23339347.142    -5901631.334 8  -4589505.28345  23339346.408    23339357.9724
  21977362.426   -15558479.967 8 -12092162.63446  21977362.069    21977371.2834
 00  9 14  1 41  0.0000000  0 10 13 08 01 28 03 02 27 19 10 31
  20531064.519   -23715750.297 9 -18460485.00648  20531064.830    20531071.6944
  21080251.955   -15764843.276 9 -12259724.44147  21080251.556    21080260.8944
  22746439.606    -9356406.879 8  -7277966.54846  22746439.168    22746450.3554
  23234525.574    -9634073.070 8  -7170276.73346  23234525.133    23234533.9794
  23452609.787    -6272242.430 8  -4875399.68745  23452609.636    23452620.2924
  23850450.792    -5945621.413 8  -4610372.91745  23850450.197    23850464.4294
  20613133.914   -21027187.729 9 -16366292.06348  20613133.715    20613142.0814
  20837105.640   -22039297.451 9 -17152501.88347  20837105.512    20837114.2104
  23335100.527    -5923947.188 8  -4606894.21345  23335099.877    23335111.3594
  21970884.613   -15592521.318 8 -12118688.30946  21970884.163    21970893.3924
 00  9 14  1 41 30.0000000  0 10 13 08 01 28 03 02 27 19 10 31
  20534279.071   -23698857.813 9 -18447322.03248  20534279.354    20534286.1664
  21070020.737   -15818608.606 9 -12301619.46247  21070020.358    21070029.5304
  22763894.824    -9264679.260 8  -7206490.57646  22763894.533    22763905.6404
  23251877.672    -9542887.837 8  -7099223.36946  23251877.220    23251886.0624
  23460112.357    -6232817.298 8  -4844678.79445  23460112.042    23460122.5624
  23834448.237    -6029714.959 8  -4675900.15645  23834447.655    23834461.7444
  20609891.083   -21044228.755 9 -16379570.75948  20609890.850    20609899.2544
  20843597.083   -22005184.631 9 -17125920.46647  20843596.978    20843605.6784
  23330961.386    -5945697.848 8  -4623842.75145  23330960.722    23330972.2134
  21964515.957   -15625988.277 8 -12144766.39946  21964515.523    21964524.8444
 00  9 14  1 42  0.0000000  0 10 13 08 01 28 03 02 27 19 10 31
  20537590.987   -23681453.703 9 -18433760.39648  20537591.291    20537598.0894
  21059830.897   -15872156.526 9 -12343345.06447  21059830.473    21059839.6164
  22781401.379    -9172681.220 8  -7134803.92246  22781401.184    22781412.4514
  23269260.342    -9451541.159 8  -7028044.18246  23269259.956    23269268.7814
  23467715.671    -6192861.531 8  -4813544.42445  23467715.419    23467725.8654
  23818482.256    -6113615.486 8  -4741276.95745  23818481.669    23818495.9194
  20606692.539   -21061037.056 9 -16392668.11348  20606692.324    20606700.7404
  20850135.362   -21970825.913 9 -17099147.44047  20850135.242    20850143.9424
  23326930.265    -5966881.883 8  -4640349.75246  23326929.593    23326941.0704
  21958257.070   -15658878.068 8 -12170394.75846  21958256.696    21958266.0454
 00  9 14  1 42 30.0000000  0 10 13 08 01 28 03 02 27 19 10 31
  20541000.378   -23663537.180 9 -18419799.47048  20541000.671    20541007.4784
  21049682.506   -15925486.489 9 -12384900.82947  21049682.088    21049691.2124
  22798959.319    -9080414.351 8  -7062907.76046  22798959.069    22798970.3884
  23286673.399    -9360035.370 8  -6956741.03646  23286672.962    23286681.8894
  23475419.715    -6152376.272 8  -4781997.46745  23475419.545    23475429.8324
  23802553.150    -6197322.247 8  -4806502.81345  23802552.637    23802566.8344
  20603538.375   -21077612.174 9 -16405583.76648  20603538.177    20603546.5744
  20856720.348   -21936221.536 9 -17072182.98647  20856720.223    20856728.9284
  23323006.991    -5987499.027 8  -4656415.02145  23323006.309    23323017.7634
  21952108.367   -15691189.086 8 -12195572.12346  21952108.052    21952117.4254
 00  9 14  1 43  0.0000000  0 10 13 08 01 28 03 02 27 19 10 31
  20544507.094   -23645109.106 9 -18405439.93848  20544507.404    20544514.2284
  21039575.459   -15978599.209 9 -12426287.30847  21039575.015    21039584.1794
  22816568.042    -8987880.906 8  -6990803.89846  22816567.738    22816579.0794
  23304116.246    -9268373.369 8  -6885316.15246  23304115.736    23304124.6704
  23483224.014    -6111363.572 8  -4750039.51245  23483223.982    23483234.2914
  23786660.971    -6280835.166 8  -4871577.56145  23786660.388    23786674.7114
  20600428.552   -21093954.446 9 -16418317.99048  20600428.330    20600436.7074
  20863352.002   -21901371.968 9 -17045027.48647  20863351.922    20863360.5894
  23319191.459    -6007549.741 8  -4672038.95245  23319190.740    23319202.3054
  21946070.132   -15722920.319 8 -12220297.72046  21946069.772    21946079.1664
 00  9 14  1 43 30.0000000  0 10 13 08 01 28 03 02 27 19 10 31
  20548111.331   -23626168.649 9 -18390681.14448  20548111.658    20548118.4524
  21029509.991   -16031493.225 9 -12467503.36447  21029509.563    21029518.7244
  22834227.185    -8895081.902 8  -6918493.07546  22834226.913    22834238.2144
  23321588.348    -9176556.612 8  -6813770.68446  23321587.970    23321596.8834
  23491128.586    -6069824.312 7  -4717671.26245  23491128.660    23491138.9494
  23770806.052    -6364152.462 8  -4936499.92145  23770805.465    23770819.6964
  20597363.211   -21110062.826 9 -16430869.95348  20597362.982    20597371.3624
  20870030.390   -21866276.743 9 -17017680.56047  20870030.309    20870038.9914
  23315483.683    -6027032.947 8  -4687220.66445  23315483.077    23315494.6964
  21940142.633   -15754069.498 8 -12244569.76546  21940142.275    21940151.6354
 00  9 14  1 44  0.0000000  0 10 13 08 01 28 03 02 27 19 10 31
  20551812.962   -23606716.460 9 -18375523.60348  20551813.286    20551820.0794
  21019486.225   -16084168.430 9 -12508548.92047  21019485.773    21019494.8874
  22851936.542    -8802018.889 8  -6845976.56546  22851936.254    22851947.6794
  23339089.691    -9084587.666 8  -6742106.62846  23339089.105    23339098.0124
  23499133.173    -6027759.895 7  -4684893.79345  23499133.138    23499143.4864
  23754988.529    -6447273.683 8  -5001269.47145  23754987.854    23755002.1744
  20594342.456   -21125937.122 9 -16443239.51048  20594342.174    20594350.5534
  20876755.496   -21830936.195 9 -16990142.47547  20876755.403    20876764.0534
  23311884.220    -6045948.569 8  -4701960.11545  23311883.609    23311895.0744
  21934326.141   -15784635.158 8 -12268387.11546  21934325.742    21934335.1314
 00  9 14  1 44 30.0000000  0 10 13 08 01 28 03 02 27 19 10 31
  20555612.136   -23586751.663 9 -18359966.62048  20555612.456    20555619.2354
  21009504.199   -16136624.209 9 -12549423.50347  21009503.753    21009512.8524
  22869695.956    -8708693.484 8  -6773255.58746  22869695.589    22869707.0804
  23356619.341    -8992468.373 8  -6670325.41446  23356618.780    23356627.9324
  23507237.366    -5985171.440 7  -4651707.96445  23507237.409    23507247.9054
  23739208.393    -6530197.850 8  -5065885.49645  23739207.749    23739221.9674
  20591366.310   -21141576.771 9 -16455426.22448  20591366.024    20591374.3984
  20883527.290   -21795350.337 9 -16962413.23647  20883527.195    20883535.8534
  23308392.679    -6064296.423 8  -4716257.10345  23308392.175    23308403.6164
  21928620.938   -15814615.863 8 -12291748.64446  21928620.572    21928629.9264
 00  9 14  1 45  0.0000000  0 10 13 08 01 28 03 02 27 19 10 31
  20559508.985   -23566273.681 9 -18344009.77348  20559509.308    20559516.0874
  20999563.998   -16188860.091 9 -12590126.74847  20999563.545    20999572.6224
  22887504.904    -8615107.594 8  -6700331.61746  22887504.450    22887515.8854
  23374177.001    -8900200.938 8  -6598428.76446  23374176.704    23374185.8744
  23515441.157    -5942060.345 8  -4618114.90645  23515441.129    23515451.7264
  23723465.982    -6612924.025 8  -5130347.25345  23723465.376    23723479.5474
  20588434.894   -21156981.258 9 -16467429.69648  20588434.633    20588443.0094
  20890345.716   -21759519.236 9 -16934492.90647  20890345.605    20890354.2344
  23305009.291    -6082076.273 8  -4730111.49645  23305008.788    23305020.1654
  21923027.399   -15844009.969 8 -12314653.09246  21923027.004    21923036.3624
 00  9 14  1 45 30.0000000  0 10 13 08 01 28 03 02 27 19 10 31
  20563503.630   -23545281.907 9 -18327652.57948  20563503.932    20563510.7144
  20989665.930   -16240874.463 9 -12630657.37447  20989665.507    20989674.5774
  22905363.137    -8521261.535 8  -6627204.94046  22905362.737    22905374.3244
  23391762.870    -8807786.473 8  -6526417.53046  23391762.540    23391771.7344
  23523744.496    -5898426.570 8  -4584114.57145  23523744.370    23523755.0154
  23707761.608    -6695450.243 8  -5194653.19945  23707760.999    23707775.0004
  20585548.551   -21172148.896 9 -16479248.61348  20585548.272    20585556.6764
  20897211.052   -21723441.795 9 -16906380.62647  20897210.932    20897219.5684
  23301734.358    -6099286.316 8  -4743521.91345  23301733.846    23301745.2264
  21917545.997   -15872814.676 8 -12337098.26846  21917545.579    21917555.0394
 00  9 14  1 46  0.0000000  0 10 13 08 01 28 03 02 27 19 10 31
  20567595.839   -23523777.162 9 -18310895.64948  20567596.129    20567602.9414
  20979810.071   -16292667.557 9 -12671015.58347  20979809.600    20979818.6484
  22923270.376    -8427157.816 8  -6553877.46746  22923270.070    22923281.5614
  23409375.986    -8715227.600 8  -6454293.78945  23409375.817    23409385.0874
  23532146.750    -5854272.390 8  -4549708.71145  23532146.644    23532157.2274
  23692095.162    -6777776.345 8  -5258803.19745  23692094.675    23692108.7424
  20582707.112   -21187080.240 9 -16490883.40948  20582706.879    20582715.3084
  20904123.021   -21687118.924 9 -16878077.08947  20904122.887    20904131.5774
  23298567.568    -6115927.717 8  -4756489.23845  23298566.888    23298578.4214
  21912176.815   -15901029.065 8 -12359083.45346  21912176.416    21912186.0114
 00  9 14  1 46 30.0000000  0 10 13 08 01 28 03 02 27 19 10 31
  20571785.719   -23501758.957 9 -18293738.61048  20571786.029    20571792.8674
  20969996.159   -16344239.462 9 -12711201.43547  20969995.714    20970004.8184
  22941226.523    -8332798.185 8  -6480350.61646  22941226.159    22941237.7954
  23427016.391    -8622527.007 8  -6382059.60445  23427016.144    23427025.3824
  23540647.737    -5809599.635 8  -4514898.76845  23540647.519    23540658.1244
  23676467.024    -6859901.770 8  -5322796.85045  23676466.593    23676480.5714
  20579910.763   -21201774.769 9 -16502333.68048  20579910.574    20579918.9994
  20911081.683   -21650551.017 9 -16849582.62747  20911081.539    20911090.2264
  23295508.934    -6132000.166 8  -4769013.22645  23295508.395    23295519.9374
  21906920.229   -15928651.924 8 -12380607.71046  21906919.955    21906929.4524
 00  9 14  1 47  0.0000000  0 10 13 08 01 28 03 02 27 19 10 31
  20576073.279   -23479227.560 9 -18276181.68948  20576073.631    20576080.4754
  20960224.519   -16395589.133 9 -12751214.12047  20960224.119    20960233.2234
  22959231.106    -8238183.888 8  -6406625.31546  22959230.795    22959242.3354
  23444683.213    -8529686.440 8  -6309716.33945  23444683.073    23444692.2914
  23549247.115    -5764408.874 8  -4479685.20145  23549246.976    23549257.6554
  23660877.392    -6941825.458 8  -5386633.31945  23660876.946    23660890.8034
  20577159.638   -21216231.889 9 -16513598.96348  20577159.489    20577167.8734
  20918086.984   -21613737.852 9 -16820897.05247  20918086.880    20918095.5504
  23292558.866    -6147503.230 8  -4781093.51645  23292558.227    23292569.8944
  21901776.833   -15955681.558 8 -12401669.71246  21901776.436    21901785.7654
 00  9 14  1 47 30.0000000  0 10 13 08 01 28 03 02 27 19 10 31
  20580458.562   -23456183.040 9 -18258224.93448  20580458.895    20580465.7334
  20950495.363   -16446716.358 9 -12791053.47647  20950494.894    20950504.0234
  22977283.806    -8143316.978 8  -6332703.13046  22977283.438    22977295.0204
  23462376.515    -8436708.251 8  -6237265.84945  23462376.345    23462385.4794
  23557944.797    -5718702.264 8  -4444069.65145  23557944.634    23557955.2924
  23645326.166    -7023546.925 8  -5450312.21845  23645325.642    23645339.5754
  20574453.767   -21230451.387 9 -16524679.08848  20574453.602    20574461.9714
  20925138.908   -21576679.806 9 -16792020.65947  20925138.818    20925147.4844
  23289717.163    -6162437.160 8  -4792730.32945  23289716.415    23289728.0674
  21896746.207   -15982116.816 8 -12422268.56146  21896745.869    21896755.2574
 00  9 14  1 48  0.0000000  0 10 13 08 01 28 03 02 27 19 10 31
  20584941.634   -23432624.540 9 -18239867.67648  20584941.961    20584948.7844
  20940808.628   -16497620.034 9 -12830718.62547  20940808.180    20940817.3904
  22995384.265    -8048198.383 8  -6258584.89646  22995383.916    22995395.7034
  23480095.467    -8343593.834 8  -6164709.21045  23480095.458    23480104.6264
  23566740.544    -5672480.367 7  -4408052.59345  23566740.345    23566750.9944
  23629813.713    -7105064.565 8  -5513832.28645  23629813.311    23629827.1774
  20571793.325   -21244432.034 9 -16535573.09348  20571793.164    20571801.5304
  20932237.531   -21539376.233 9 -16762952.94847  20932237.434    20932246.1064
  23286983.678    -6176801.341 8  -4803923.19045  23286983.006    23286994.6784
  21891829.139   -16007955.548 8 -12442402.59046  21891828.892    21891838.2814
 00  9 14  1 48 30.0000000  0 10 13 08 01 28 03 02 27 19 10 31
  20589522.403   -23408552.475 9 -18221110.22548  20589522.730    20589529.5784
  20931164.524   -16548300.069 9 -12870209.51847  20931164.077    20931173.2334
  23013532.582    -7952830.137 8  -6184272.06446  23013532.164    23013543.7674
  23497840.190    -8250345.648 8  -6092048.30045  23497840.083    23497849.1504
  23575633.990    -5625745.154 8  -4371635.54345  23575633.838    23575644.4594
  23614340.170    -7186377.782 8  -5577193.07645  23614339.873    23614353.5424
  20569178.337   -21258173.860 9 -16546281.00048  20569178.174    20569186.5444
  20939382.758   -21501827.584 9 -16733694.25847  20939382.647    20939391.3524
  23284358.839    -6190595.920 8  -4814672.20746  23284358.124    23284369.6954
  21887026.107   -16033196.783 8 -12462071.01946  21887025.707    21887034.8874
 00  9 14  1 49  0.0000000  0 10 13 08 01 28 03 02 27 19 10 31
  20594200.693   -23383967.745 9 -18201953.29948  20594201.021    20594207.8754
  20921562.939   -16598756.566 9 -12909526.23447  20921562.504    20921571.5654
  23031727.669    -7857214.446 8  -6109766.46946  23031727.287    23031738.9144
  23515609.881    -8156966.672 8  -6019285.51845  23515609.632    23515618.7144
  23584624.846    -5578498.642 8  -4334820.07945  23584624.684    23584635.1934
  23598905.664    -7267486.446 8  -5640394.48646  23598905.368    23598918.8594
  20566608.831   -21271676.870 9 -16556802.82048  20566608.613    20566616.9754
  20946574.525   -21464034.592 9 -16704245.18047  20946574.438    20946583.1634
  23281841.900    -6203821.741 8  -4824978.01945  23281841.327    23281852.8474
  21882336.724   -16057839.590 8 -12481273.14846  21882336.314    21882345.4254
 00  9 14  1 49 30.0000000  0 10 13 08 01 28 03 02 27 19 10 31
  20598977.045   -23358867.847 9 -18182394.95148  20598977.375    20598984.2494
  20912004.323   -16648986.762 9 -12948666.60447  20912003.951    20912013.0134
  23049970.123    -7761350.870 8  -6035067.71146  23049969.668    23049981.2904
  23533404.339    -8063456.675 8  -5946420.63245  23533404.112    23533413.0674
  23593713.076    -5530740.073 8  -4297605.62145  23593712.862    23593723.3564
  23583510.701    -7348387.530 8  -5703434.12646  23583510.296    23583523.7804
  20564085.200   -21284938.513 9 -16567136.56848  20564084.990    20564093.3484
  20953813.210   -21425995.242 9 -16674604.13447  20953813.107    20953821.7724
  23279433.777    -6216476.300 8  -4834838.70645  23279433.174    23279444.7724
  21877761.731   -16081880.506 8 -12500006.27246  21877761.392    21877770.5264
 00  9 14  1 50  0.0000000  0 10 13 08 01 28 03 02 27 19 10 31
  20603851.004   -23333255.127 9 -18162437.00148  20603851.320    20603858.1764
  20902488.641   -16698991.987 9 -12987631.67347  20902488.239    20902497.3434
  23068258.807    -7665242.838 8  -5960178.49246  23068258.417    23068270.0324
  23551223.061    -7969819.383 8  -5873456.55245  23551222.758    23551231.6934
  23602898.021    -5482472.772 8  -4259994.73645  23602897.884    23602908.2344
  23568154.889    -7429082.073 8  -5766312.82546  23568154.516    23568167.9534
  20561607.279   -21297960.034 9 -16577283.20948  20561607.056    20561615.4104
  20961098.474   -21387711.501 9 -16644772.65547  20961098.343    20961106.9524
  23277134.084    -6228561.276 8  -4844255.56546  23277133.516    23277145.1204
  21873301.195   -16105320.282 8 -12518270.97946  21873300.929    21873310.0754
 00  9 14  1 50 30.0000000  0 10 13 08 01 28 03 02 27 19 10 31
  20608822.791   -23307128.372 9 -18142078.51048  20608823.099    20608829.9364
  20893016.000   -16748771.238 9 -13026420.65447  20893015.536    20893024.6434
  23086593.922    -7568891.596 8  -5885099.70846  23086593.604    23086605.2364
  23569065.624    -7876056.201 8  -5800394.36545  23569065.416    23569074.3754
  23612179.513    -5433697.651 8  -4221988.15145  23612179.418    23612189.7324
  23552838.739    -7509568.868 8  -5829029.63446  23552838.250    23552851.6874
  20559175.288   -21310740.236 9 -16587241.80948  20559175.099    20559183.4044
  20968430.175   -21349182.699 9 -16614750.21747  20968430.128    20968438.7424
  23274942.925    -6240076.099 8  -4853228.16046  23274942.303    23274953.9174
  21868955.630   -16128156.955 8 -12536065.73846  21868955.278    21868964.4034
 00  9 14  1 51  0.0000000  0 10 13 08 01 28 03 02 27 19 10 31
  20613892.372   -23280487.661 9 -18121319.52748  20613892.689    20613899.5154
  20883586.452   -16798323.620 9 -13065032.86647  20883586.014    20883595.0724
  23104974.975    -7472298.204 8  -5809832.28546  23104974.718    23104986.4894
  23586931.866    -7782168.925 8  -5727235.48445  23586931.606    23586940.5354
  23621557.603    -5384416.037 8  -4183586.90245  23621557.456    23621567.7864
  23537562.216    -7589846.506 8  -5891583.47146  23537561.755    23537575.1834
  20556789.360   -21323278.438 9 -16597011.84148  20556789.151    20556797.4454
  20975808.690   -21310408.348 9 -16584536.44747  20975808.620    20975817.2304
  23272860.214    -6251020.539 8  -4861756.32445  23272859.586    23272871.1474
  21864724.941   -16150388.721 8 -12553389.13546  21864724.626    21864733.7754
 00  9 14  1 51 30.0000000  0 10 13 08 01 28 03 02 27 19 10 31
  20619059.782   -23253332.850 9 -18100159.94848  20619060.092    20619066.9064
  20874200.190   -16847648.585 9 -13103467.87047  20874199.772    20874208.7644
  23123401.995    -7375464.470 8  -5734377.53546  23123401.762    23123413.5334
  23604821.229    -7688159.577 8  -5653981.49845  23604821.053    23604829.9954
  23631031.666    -5334629.599 8  -4144792.29545  23631031.556    23631041.7914
  23522325.713    -7669914.259 8  -5953973.74946  23522325.173    23522338.5704
  20554449.612   -21335573.971 9 -16606592.77848  20554449.411    20554457.6884
  20983233.909   -21271388.608 9 -16554131.46647  20983233.830    20983242.4224
  23270885.965    -6261394.801 8  -4869840.16645  23270885.311    23270896.9074
  21860609.693   -16172014.281 8 -12570240.15946  21860609.365    21860618.4334
 00  9 14  1 52  0.0000000  0 10 13 08 01 28 03 02 27 19 10 31
  20624324.881   -23225664.462 9 -18078600.17448  20624325.207    20624332.0474
  20864857.269   -16896745.748 9 -13141725.36547  20864856.860    20864865.8424
  23141874.358    -7278392.289 8  -5658737.03146  23141874.053    23141886.0414
  23622733.530    -7594030.800 8  -5580634.42745  23622733.242    23622742.0984
  23640601.669    -5284339.837 8  -4105605.46445  23640601.532    23640611.6514
  23507129.177    -7749771.787 8  -6016200.20346  23507128.644    23507142.0284
  20552156.047   -21347626.633 9 -16615984.45748  20552155.849    20552164.1674
  20990705.758   -21232123.941 9 -16523535.62547  20990705.627    20990714.2204
  23269020.250    -6271199.188 8  -4877479.95345  23269019.553    23269031.2224
  21856610.032   -16193032.988 8 -12586618.31346  21856609.644    21856618.6074
 00  9 14  1 52 30.0000000  0 10 13 08 01 28 03 02 27 19 10 31
  20629687.726   -23197482.519 9 -18056640.22748  20629688.064    20629694.8674
  20855557.750   -16945614.790 9 -13179805.09347  20855557.358    20855566.3774
  23160391.968    -7181083.480 8  -5582912.10346  23160391.544    23160403.3024
  23640668.331    -7499784.099 8  -5507195.48845  23640667.836    23640676.8134
  23650266.998    -5233548.488 8  -4066027.80645  23650266.871    23650276.9894
  23491972.835    -7829418.292 8  -6078262.24646  23491972.346    23491985.5764
  20549908.887   -21359435.753 9 -16625186.36448  20549908.684    20549916.9614
  20998224.089   -21192614.544 9 -16492749.09147  20998224.002    20998232.6174
  23267263.002    -6280433.825 8  -4884675.79445  23267262.369    23267273.8654
  21852726.104   -16213443.156 8 -12602522.27346  21852725.683    21852734.6814
 00  9 14  1 53  0.0000000  0 10 13 08 01 28 03 02 27 19 10 31
  20635148.280   -23168787.359 9 -18034280.37448  20635148.594    20635155.3604
  20846301.812   -16994254.802 9 -13217706.36347  20846301.396    20846310.4044
  23178954.085    -7083539.459 8  -5506903.91046  23178953.723    23178965.4524
  23658624.857    -7405421.584 8  -5433666.30745  23658624.474    23658633.2924
  23660027.405    -5182256.935 8  -4026060.36045  23660027.344    23660037.5224
  23476856.804    -7908852.820 8  -6140159.06746  23476856.291    23476869.5604
  20547708.100   -21371000.823 9 -16634198.10248  20547707.918    20547716.1744
  21005789.111   -21152860.081 9 -16461771.59847  21005789.045    21005797.6884
  23265614.233    -6289098.595 8  -4891427.56545  23265613.551    23265624.9684
  21848958.154   -16233243.651 8 -12617951.18146  21848957.781    21848966.7534
 00  9 14  1 53 30.0000000  0 10 13 08 01 28 03 02 27 19 10 31
  20640706.635   -23139578.139 9 -18011519.95548  20640706.926    20640713.6884
  20837089.745   -17042664.666 9 -13255428.30147  20837089.333    20837098.2044
  23197560.692    -6985761.353 8  -5430713.31446  23197560.433    23197572.1494
  23676603.057    -7310944.824 8  -5360048.09845  23676602.829    23676611.7844
  23669882.846    -5130465.991 8  -3985703.78345  23669882.752    23669892.9904
  23461781.499    -7988073.718 8  -6201889.45046  23461780.907    23461794.1654
  20545554.032   -21382320.681 9 -16643018.75948  20545553.819    20545562.0624
  21013400.861   -21112859.854 9 -16430602.60147  21013400.855    21013409.5104
  23264073.913    -6297192.919 8  -4897734.84445  23264073.197    23264084.6064
  21845306.505   -16252432.634 8 -12632903.58846  21845306.150    21845315.2104
 00  9 14  1 54  0.0000000  0 10 13 08 01 28 03 02 27 19 10 31
  20646362.637   -23109855.701 9 -17988359.61348  20646362.930    20646369.7074
  20827921.501   -17090844.269 9 -13292970.79647  20827921.030    20827929.9004
  23216211.466    -6887751.452 8  -5354342.08146  23216211.191    23216222.9534
  23694602.649    -7216355.905 8  -5286342.47845  23694602.358    23694611.4254
  23679832.958    -5078177.859 8  -3944959.80345  23679832.862    23679842.9974
  23446746.748    -8067080.811 8  -6263453.22046  23446746.196    23446759.3854
  20543446.660   -21393395.170 9 -16651648.20848  20543446.448    20543454.6594
  21021059.314   -21072614.587 9 -16399242.66447  21021059.283    21021067.9304
  23262641.968    -6304717.502 8  -4903598.19645  23262641.328    23262652.7334
  21841771.329   -16271009.425 8 -12647378.95546  21841770.977    21841780.1704
 00  9 14  1 54 30.0000000  0 10 13 08 01 28 03 02 27 19 10 31
  20652116.322   -23079619.771 9 -17964799.15248  20652116.617    20652123.4374
  20818797.130   -17138792.973 9 -13330333.37647  20818796.677    20818805.5644
  23234905.880    -6789511.072 8  -5277791.27645  23234905.629    23234917.5774
  23712623.360    -7121656.803 8  -5212551.02645  23712622.953    23712631.9504
  23689877.610    -5025393.963 8  -3903829.49245  23689877.359    23689887.4384
  23431752.891    -8145873.067 8  -6324849.57746  23431752.336    23431765.5784
  20541386.096   -21404223.523 9 -16660085.87348  20541385.914    20541394.1174
  21028764.488   -21032124.142 9 -16367691.67247  21028764.409    21028773.0294
  23261318.605    -6311672.367 8  -4909017.57345  23261317.895    23261329.1734
  21838353.028   -16288972.636 8 -12661376.21946  21838352.643    21838361.8514
 00  9 14  1 55  0.0000000  0 10 13 08 01 28 03 02 27 19 10 31
  20657967.572   -23048871.363 9 -17940839.37148  20657967.886    20657974.6984
  20809716.801   -17186510.326 9 -13367515.69247  20809716.353    20809725.2064
  23253643.994    -6691042.439 8  -5201062.57946  23253643.737    23253655.7384
  23730664.705    -7026849.622 8  -5138675.33545  23730664.173    23730673.1614
  23700015.955    -4972116.469 8  -3862314.58545  23700015.801    23700025.8434
  23416800.025    -8224450.281 8  -6386078.38446  23416799.497    23416812.7084
  20539372.310   -21414805.699 9 -16668331.70148  20539372.158    20539380.4014
  21036516.123   -20991389.111 9 -16335950.09947  21036516.033    21036524.6564
  23260103.420    -6318057.924 8  -4913993.35345  23260102.766    23260114.0254
  21835051.549   -16306321.510 8 -12674894.77746  21835051.229    21835060.3724
 00  9 14  1 55 30.0000000  0 10 13 08 01 28 03 02 27 19 10 31
  20663916.330   -23017610.301 9 -17916480.11148  20663916.658    20663923.4914
  20800680.533   -17233995.935 9 -13404517.42147  20800680.119    20800688.9654
  23272425.100    -6592347.187 8  -5124157.32345  23272424.895    23272436.8604
  23748725.992    -6931936.589 8  -5064717.15445  23748725.570    23748734.3364
  23710248.059    -4918346.880 8  -3820416.20445  23710247.768    23710257.8914
  23401888.173    -8302811.537 8  -6447138.89846  23401887.671    23401900.9444
  20537405.565   -21425141.021 9 -16676385.17648  20537405.420    20537413.6404
  21044314.360   -20950409.258 9 -16304017.74847  21044314.235    21044322.8774
  23258996.602    -6323874.608 8  -4918525.81945  23258995.873    23259007.2684
  21831867.304   -16323055.166 8 -12687933.93746  21831866.903    21831876.0264
 00  9 14  1 56  0.0000000  0 10 13 08 01 28 03 02 27 19 10 31
  20669962.526   -22985837.319 9 -17891721.94748  20669962.843    20669969.7204
  20791688.459   -17281249.352 9 -13441338.20547  20791688.054    20791696.8924
  23291249.178    -6493427.209 8  -5047076.92045  23291248.914    23291260.8184
  23766807.000    -6836919.735 8  -4990678.08845  23766806.672    23766815.4754
  23720573.236    -4864087.303 8  -3778136.02445  23720573.080    23720583.0884
  23387017.672    -8380956.234 8  -6508030.69546  23387017.095    23387030.2484
  20535485.900   -21435229.013 9 -16684245.91748  20535485.719    20535493.9314
  21052159.109   -20909184.534 9 -16271894.58847  21052158.984    21052167.6384
  23257997.928    -6329122.728 8  -4922615.27546  23257997.243    23258008.6244
  21828800.174   -16339172.755 8 -12700493.05646  21828799.796    21828808.8984
 00  9 14  1 56 30.0000000  0 10 13 08 01 28 03 02 27 19 10 31
  20676106.408   -22953551.022 9 -17866563.80648  20676106.689    20676113.6124
  20782740.906   -17328269.282 9 -13477977.07647  20782740.468    20782749.2604
  23310115.799    -6394283.289 8  -4969822.05445  23310115.513    23310127.5324
  23784907.652    -6741800.167 8  -4916558.97545  23784907.511    23784916.1374
  23730991.649    -4809338.188 8  -3735474.38745  23730991.506    23731001.5804
  23372188.733    -8458882.897 8  -6568752.59046  23372188.051    23372201.2044
  20533613.514   -21445068.427 9 -16691912.97348  20533613.315    20533621.5654
  21060050.603   -20867714.394 9 -16239580.20547  21060050.501    21060059.1694
  23257107.586    -6333801.778 8  -4926261.32846  23257106.970    23257118.3544
  21825850.705   -16354672.354 8 -12712570.63246  21825850.308    21825859.3344
 00  9 14  1 57  0.0000000  0 10 13 08 01 28 03 02 27 19 10 31
  20682347.630   -22920753.087 9 -17841006.96848  20682347.938    20682354.8234
  20773837.722   -17375055.644 9 -13514433.92947  20773837.292    20773846.0254
  23329024.300    -6294917.797 8  -4892394.54345  23329024.053    23329036.2254
  23803027.511    -6646580.440 8  -4842361.80845  23803027.217    23803035.9064
  23741502.698    -4754102.026 8  -3692433.22945  23741502.589    23741512.7714
  23357401.062    -8536591.607 8  -6629304.64046  23357400.318    23357413.4634
  20531788.367   -21454659.337 9 -16699386.37748  20531788.179    20531796.4274
  21067988.555   -20825999.671 9 -16207075.22747  21067988.495    21067997.2334
  23256325.254    -6337912.768 8  -4929464.69746  23256324.711    23256336.1344
  21823018.799   -16369553.725 8 -12724166.46146  21823018.419    21823027.4114
 00  9 14  1 57 30.0000000  0 10 13 08 01 28 03 02 27 19 10 31
  20688686.209   -22887443.686 9 -17815051.59148  20688686.490    20688693.3834
  20764979.110   -17421607.486 9 -13550708.03447  20764978.704    20764987.4384
  23347974.934    -6195332.221 8  -4814795.47745  23347974.713    23347986.8854
  23821165.910    -6551262.210 8  -4768087.90745  23821165.670    23821174.6504
  23752106.067    -4698380.305 8  -3649013.70945  23752106.070    23752116.3024
  23342655.016    -8614081.039 8  -6689685.84646  23342654.447    23342667.5324
  20530010.791   -21464000.653 9 -16706665.30048  20530010.569    20530018.8254
  21075973.241   -20784039.802 9 -16174379.23447  21075973.187    21075981.9714
  23255651.111    -6341455.577 8  -4932225.31446  23255650.498    23255662.0124
  21820304.855   -16383815.302 8 -12735279.32746  21820304.488    21820313.4724
 00  9 14  1 58  0.0000000  0 10 13 08 01 28 03 02 27 19 10 31
  20695122.267   -22853622.001 9 -17788697.03148  20695122.535    20695129.4234
  20756165.394   -17467923.481 9 -13586798.37047  20756164.986    20756173.7984
  23366967.429    -6095527.480 8  -4737025.70745  23366966.936    23366979.2454
  23839323.151    -6455846.582 8  -4693738.10145  23839322.720    23839331.6714
  23762801.706    -4642174.145 8  -3605216.70345  23762801.705    23762811.8494
  23327951.148    -8691350.100 8  -6749895.34446  23327950.526    23327963.5124
  20528280.944   -21473091.157 9 -16713748.79348  20528280.707    20528288.9314
  21084004.746   -20741834.293 9 -16141491.83347  21084004.657    21084013.4434
  23255085.124    -6344429.897 8  -4934542.95746  23255084.551    23255096.0334
  21817709.138   -16397455.763 8 -12745908.20846  21817708.805    21817717.7474
 00  9 14  1 58 30.0000000  0 10 13 08 01 28 03 02 27 19 10 31
  20701655.567   -22819289.242 9 -17761944.24047  20701655.872    20701662.7364
  20747396.359   -17514004.513 9 -13622705.61647  20747395.987    20747404.7844
  23386000.585    -5995506.683 8  -4659087.51445  23386000.249    23386012.6164
  23857498.240    -6360336.769 8  -4619314.90345  23857497.718    23857506.6204
  23773589.010    -4585486.188 8  -3561044.25845  23773588.987    23773599.1204
  23313289.018    -8768399.198 8  -6809933.42146  23313288.446    23313301.4464
  20526598.664   -21481931.530 9 -16720637.37348  20526598.422    20526606.6294
  21092082.614   -20699384.560 9 -16108414.12947  21092082.605    21092091.3524
  23254626.812    -6346837.827 8  -4936419.28246  23254626.247    23254637.8664
  21815231.543   -16410475.301 8 -12756053.25946  21815231.210    21815240.1684
 00  9 14  1 59  0.0000000  0 10 13 08 01 28 03 02 27 19 10 31
  20708285.930   -22784446.322 9 -17734793.93147  20708286.232    20708293.1364
  20738672.297   -17559849.609 9 -13658429.02547  20738671.906    20738680.6984
  23405074.591    -5895271.180 7  -4580982.05845  23405074.365    23405086.9654
  23875690.955    -6264734.572 8  -4544819.73445  23875690.293    23875699.4484
  23784467.807    -4528318.281 8  -3516497.84845  23784467.646    23784477.7174
  23298669.083    -8845227.326 8  -6869799.32546  23298668.478    23298681.3174
  20524964.143   -21490521.062 9 -16727330.49448  20524963.893    20524972.0954
  21100207.132   -20656690.174 9 -16075145.79147  21100207.110    21100215.8264
  23254276.504    -6348679.243 8  -4937854.19246  23254275.959    23254287.4434
  21812872.378   -16422872.600 8 -12765713.44746  21812872.053    21812881.0064
 00  9 14  1 59 30.0000000  0 10 13 08 01 28 03 02 27 19 10 31
  20715013.603   -22749092.010 9 -17707245.15247  20715013.944    20715020.8394
  20729993.448   -17605457.208 9 -13693967.36547  20729993.054    20730001.8604
  23424189.643    -5794821.912 8  -4502710.01645  23424189.391    23424202.0694
  23893901.092    -6169040.718 8  -4470253.11645  23893900.297    23893909.3914
  23795437.688    -4470671.197 8  -3471578.06745  23795437.580    23795447.7354
  23284091.346    -8921832.803 8  -6929491.73446  23284090.810    23284103.6024
  20523377.648   -21498858.141 9 -16733826.89848  20523377.362    20523385.5704
  21108378.359   -20613750.365 9 -16041686.20947  21108378.314    21108387.0274
  23254034.168    -6349953.279 8  -4938846.95846  23254033.607    23254044.9924
  21810631.915   -16434646.139 8 -12774887.59246  21810631.544    21810640.5004
 00  9 14  2  0  0.0000000  0 10 13 08 01 28 03 02 27 19 10 31
  20721838.234   -22713228.420 9 -17679299.50847  20721838.570    20721845.4514
  20721359.646   -17650828.267 9 -13729321.38847  20721359.222    20721367.9724
  23443344.611    -5694162.358 7  -4424274.12145  23443344.410    23443357.0904
  23912127.384    -6073258.679 8  -4395617.78645  23912127.019    23912136.2384
  23806498.135    -4412548.368 8  -3426287.55045  23806497.974    23806508.0854
  23269556.018    -8998216.547 8  -6989011.36046  23269555.442    23269568.0914
  20521838.914   -21506943.760 9 -16740127.35348  20521838.687    20521846.9124
  21116595.937   -20570566.858 9 -16008036.72347  21116595.835    21116604.6134
  23253899.286    -6350662.167 8  -4939399.34246  23253898.690    23253909.9664
  21808510.005   -16445796.673 8 -12783576.26246  21808509.633    21808518.5834
 00  9 14  2  0 30.0000000  0 10 13 08 01 28 03 02 27 19 10 31
  20728760.038   -22676854.198 9 -17650955.95747  20728760.358    20728767.2394
  20712771.288   -17695960.080 9 -13764488.98847  20712770.867    20712779.6254
  23462539.565    -5593292.184 8  -4345674.09045  23462539.611    23462552.0134
  23930370.850    -5977388.507 8  -4320913.78345  23930370.440    23930379.8434
  23817649.143    -4353949.520 8  -3380626.12845  23817648.964    23817659.2024
  23255063.210    -9074375.814 8  -7048356.08846  23255062.596    23255075.2244
  20520348.574   -21514775.418 9 -16746229.93148  20520348.358    20520356.5764
  21124860.254   -20527137.516 9 -15974195.69147  21124860.163    21124868.9554
  23253872.282    -6350804.099 8  -4939509.93146  23253871.689    23253882.9934
  21806507.270   -16456321.459 8 -12791777.35547  21806506.859    21806515.7494
 00  9 14  2  1  0.0000000  0 10 13 08 01 28 03 02 27 19 10 31
  20735778.747   -22639970.431 9 -17622215.36747  20735779.079    20735785.9884
  20704228.366   -17740853.490 9 -13799470.82247  20704227.941    20704236.7104
  23481774.354    -5492214.450 8  -4266912.33545  23481774.176    23481786.5554
  23948630.390    -5881433.164 8  -4246143.44845  23948630.078    23948639.5544
  23828890.060    -4294877.820 8  -3334596.24045  23828889.853    23828900.3304
  23240613.099    -9150311.158 8  -7107526.32146  23240612.459    23240625.0314
  20518906.436   -21522353.709 9 -16752135.07848  20518906.237    20518914.4314
  21133171.180   -20483463.674 9 -15940164.13247  21133171.000    21133179.7954
  23253952.788    -6350381.099 8  -4939180.32346  23253952.134    23253963.5254
  21804623.511   -16466220.625 8 -12799490.94246  21804623.084    21804631.9704
 00  9 14  2  1 30.0000000  0 10 13 08 01 28 03 02 27 19 10 31
  20742894.304   -22602577.935 9 -17593078.37247  20742894.663    20742901.6074
  20695730.981   -17785507.532 9 -13834266.13147  20695730.534    20695739.2554
  23501048.063    -5390930.745 7  -4187990.06745  23501047.853    23501060.1704
  23966905.788    -5785394.386 8  -4171308.05145  23966905.586    23966915.0184
  23840220.795    -4235335.145 8  -3288199.34845  23840220.529    23840230.9934
  23226205.567    -9226021.786 8  -7166521.46746  23226205.033    23226217.5234
  20517512.697   -21529677.788 9 -16757842.13448  20517512.512    20517520.7004
  21141528.558   -20439544.999 9 -15905941.78847  21141528.445    21141537.2324
  23254140.626    -6349393.621 8  -4938410.86846  23254140.054    23254151.3974
  21802858.766   -16475493.436 8 -12806716.45547  21802858.466    21802867.3584
 00  9 14  2  2  0.0000000  0 10 13 08 01 28 03 02 27 19 10 31
  20750106.629   -22564677.040 9 -17563545.23247  20750106.980    20750113.9114
  20687279.138   -17829921.749 9 -13868874.56947  20687278.745    20687287.4184
  23520360.531    -5289443.095 8  -4108908.92345  23520360.373    23520372.8294
  23985196.883    -5689274.107 8  -4096409.18545  23985196.624    23985205.9394
  23851640.799    -4175323.175 8  -3241436.77145  23851640.542    23851650.8664
  23211841.060    -9301507.103 8  -7225341.03846  23211840.558    23211852.9724
  20516167.441   -21536747.071 9 -16763350.65648  20516167.243    20516175.4234
  21149932.613   -20395381.429 9 -15871528.62647  21149932.536    21149941.2634
  23254435.922    -6347842.109 8  -4937201.91246  23254435.359    23254446.6394
  21801213.518   -16484139.196 8 -12813453.37546  21801213.174    21801222.0314
 00  9 14  2  2 30.0000000  0 10 13 08 01 28 03 02 27 19 10 31
  20757415.487   -22526268.887 9 -17533616.82847  20757415.830    20757422.7434
  20678873.133   -17874095.464 9 -13903295.61347  20678872.734    20678881.3774
  23539711.831    -5187752.953 7  -4029669.91445  23539711.567    23539723.9554
  24003503.362    -5593074.031 8  -4021448.09845  24003502.951    24003512.1044
  23863149.750    -4114843.594 8  -3194309.81245  23863149.446    23863159.7674
  23197519.636    -9376766.295 8  -7283984.42646  23197519.043    23197531.4164
  20514870.775   -21543560.894 9 -16768660.12048  20514870.621    20514878.7704
  21158383.277   -20350973.304 9 -15836924.90647  21158383.146    21158391.8164
  23254838.470    -6345727.065 8  -4935553.83846  23254837.860    23254849.1234
  21799687.765   -16492157.260 8 -12819701.17046  21799687.361    21799696.1864
 00  9 14  2  3  0.0000000  0 10 13 08 01 28 03 02 27 19 10 31
  20764821.084   -22487352.157 9 -17503292.11347  20764821.433    20764828.3304
  20670513.106   -17918027.472 9 -13937528.31247  20670512.692    20670521.3444
  23559100.982    -5085861.635 8  -3950274.22845  23559100.804    23559113.2534
  24021824.367    -5496795.576 8  -3946425.94745  24021824.077    24021833.3274
  23874747.181    -4053898.073 8  -3146819.82645  23874746.987    23874757.3754
  23183241.294    -9451798.308 8  -7342450.77546  23183240.756    23183253.1704
  20513622.983   -21550118.319 9 -16773769.79348  20513622.794    20513630.9104
  21166880.466   -20306320.456 9 -15802130.48247  21166880.294    21166888.8964
  23255348.013    -6343048.870 8  -4933466.93246  23255347.439    23255358.7854
  21798281.647   -16499546.375 8 -12825458.88347  21798281.264    21798289.9784
 00  9 14  2  3 30.0000000  0 10 13 08 01 28 03 02 27 19 10 31
  20772323.272   -22447928.025 9 -17472572.02247  20772323.609    20772330.4964
  20662199.175   -17961717.376 9 -13971572.36247  20662198.757    20662207.4034
  23578528.328    -4983771.259 8  -3870723.37945  23578528.094    23578540.4814
  24040160.083    -5400440.837 8  -3871344.37645  24040159.803    24040168.9494
  23886432.884    -3992488.709 8  -3098968.38345  23886432.687    23886443.0154
  23169006.321    -9526602.603 8  -7400739.67846  23169005.851    23169018.1894
  20512424.124   -21556418.661 9 -16778679.13948  20512423.894    20512431.9984
  21175424.148   -20261422.626 9 -15767145.16047  21175424.039    21175432.6404
  23255964.761    -6339807.849 8  -4930941.46346  23255964.141    23255975.5914
  21796995.237   -16506306.056 8 -12830726.12347  21796994.844    21797003.6264
 00  9 14  2  4  0.0000000  0 10 13 08 01 28 03 02 27 19 10 31
  20779921.798   -22407997.674 9 -17441457.47847  20779922.129    20779929.0044
  20653931.365   -18005165.050 9 -14005427.66847  20653930.931    20653939.5814
  23597992.892    -4881483.911 8  -3791019.04745  23597992.859    23598005.3804
  24058510.301    -5304011.923 8  -3796204.98445  24058509.800    24058518.7884
  23898206.504    -3930617.726 8  -3050757.23845  23898206.387    23898216.6954
  23154814.891    -9601179.246 8  -7458851.21046  23154814.346    23154826.4694
  20511274.084   -21562461.911 9 -16783388.15548  20511273.881    20511281.9744
  21184014.397   -20216280.512 9 -15731969.49347  21184014.272    21184022.9124
  23256688.360    -6336005.145 8  -4927978.31446  23256687.721    23256699.3044
  21795828.692   -16512436.245 8 -12835502.84646  21795828.312    21795837.0494
 00  9 14  2  4 30.0000000  0 10 13 08 01 28 03 02 27 19 10 31
  20787616.560   -22367561.396 9 -17409948.70347  20787616.892    20787623.8174
  20645709.818   -18048369.386 9 -14039093.35547  20645709.363    20645718.0234
  23617494.975    -4779001.240 8  -3711162.55245  23617494.718    23617507.2484
  24076873.936    -5207510.385 8  -3721009.01645  24076873.457    24076882.2894
  23910067.517    -3868286.984 8  -3002187.82645  23910067.495    23910077.8394
  23140666.755    -9675527.228 8  -7516784.56046  23140666.240    23140678.3404
  20510173.106   -21568247.312 9 -16787896.24848  20510172.913    20510181.0164
  21192651.193   -20170893.932 9 -15696603.32247  21192651.073    21192659.7064
  23257518.741    -6331641.166 8  -4924577.83446  23257518.105    23257529.6634
  21794782.068   -16517936.104 8 -12839788.41947  21794781.717    21794790.3524
 00  9 14  2  5  0.0000000  0 10 13 08 01 28 03 02 27 19 10 31
  20795407.484   -22326619.712 9 -17378046.09747  20795407.809    20795414.7584
  20637534.626   -18091330.222 9 -14072569.31047  20637534.133    20637542.7754
  23637033.522    -4676325.154 8  -3631155.32045  23637033.452    23637045.7864
  24095250.869    -5110938.383 7  -3645758.09945  24095250.406    24095259.3734
  23922015.664    -3805498.501 8  -2953261.74845  23922015.704    23922026.1964
  23126562.260    -9749646.053 8  -7574539.34946  23126561.785    23126573.8224
  20509121.365   -21573774.490 9 -16792203.13348  20509121.121    20509129.2154
  21201334.424   -20125263.203 9 -15661046.91647  21201334.302    21201342.9724
  23258455.772    -6326717.037 8  -4920740.85745  23258455.156    23258466.6574
  21793855.516   -16522805.306 8 -12843582.57046  21793855.128    21793863.7204
 00  9 14  2  5 30.0000000  0 10 13 08 01 28 03 02 27 19 10 31
  20803294.675   -22285172.087 9 -17345749.25647  20803294.989    20803302.0044
  20629406.128   -18134045.193 9 -14105853.67047  20629405.700    20629414.3954
  23656609.014    -4573455.825 8  -3550997.49945  23656608.980    23656621.1694
  24113641.212    -5014295.779 8  -3570452.19545  24113640.864    24113649.9814
  23934050.978    -3742252.819 8  -2903979.41045  23934050.901    23934061.3594
  23112501.911    -9823533.636 8  -7632113.96846  23112501.339    23112513.2804
  20508119.157   -21579041.107 9 -16796306.98648  20508118.915    20508126.9894
  21210064.412   -20079386.797 9 -15625299.07347  21210064.278    21210072.9604
  23259499.545    -6321232.137 8  -4916466.94746  23259498.863    23259510.3204
  21793049.292   -16527041.670 8 -12846883.60646  21793048.926    21793057.5214
 00  9 14  2  6  0.0000000  0 10 13 08 01 28 03 02 27 19 10 31
  20811277.604   -22243221.411 9 -17313060.43247  20811277.932    20811284.9584
  20621324.081   -18176516.556 9 -14138948.21247  20621323.645    20621332.3604
  23676220.351    -4470398.194 8  -3470692.97645  23676220.254    23676232.3744
  24132044.573    -4917587.555 8  -3495095.18045  24132043.843    24132052.9884
  23946172.282    -3678554.596 8  -2854344.44545  23946172.299    23946182.7614
  23098485.041    -9897192.170 8  -7689510.09246  23098484.442    23098496.3844
  20507166.128   -21584049.392 9 -16800209.53248  20507165.865    20507173.9274
  21218840.613   -20033267.277 8 -15589361.79147  21218840.502    21218849.2154
  23260649.520    -6315189.672 8  -4911758.54946  23260648.838    23260660.2154
  21792363.141   -16530647.258 8 -12849693.12847  21792362.731    21792371.3614
 00  9 14  2  6 30.0000000  0 10 13 08 01 28 03 02 27 19 10 31
  20819356.383   -22200767.439 9 -17279979.43347  20819356.689    20819363.7184
  20613288.700   -18218742.432 9 -14171851.45447  20613288.277    20613297.0194
  23695867.439    -4367153.173 8  -3390242.40045  23695867.193    23695879.3164
  24150459.878    -4820814.392 8  -3419687.54345  24150459.185    24150468.3904
  23958379.837    -3614404.539 7  -2804357.38245  23958379.719    23958390.2004
  23084511.986    -9970620.135 8  -7746726.53546  23084511.456    23084523.4404
  20506262.532   -21588797.587 9 -16803909.40448  20506262.270    20506270.3514
  21227663.169   -19986903.931 9 -15553234.51647  21227663.115    21227671.8474
  23261905.521    -6308589.502 8  -4906615.58246  23261904.799    23261916.2164
  21791797.200   -16533621.035 8 -12852010.33447  21791796.823    21791805.4234
 00  9 14  2  7  0.0000000  0 10 13 08 01 28 03 02 27 19 10 31
  20827531.114   -22157809.195 9 -17246505.49347  20827531.400    20827538.3764
  20605300.557   -18260720.549 9 -14204561.64847  20605300.118    20605308.8064
  23715550.012    -4263720.675 8  -3309645.76345  23715549.846    23715562.1664
  24168887.206    -4723976.283 7  -3344229.26245  24168886.858    24168896.3304
  23970673.180    -3549803.175 7  -2754018.64045  23970672.968    23970683.4354
  23070583.390   -10043814.911 8  -7803761.27246  23070582.808    23070594.9224
  20505408.894   -21593283.272 9 -16807404.73248  20505408.631    20505416.6984
  21236532.561   -19940294.851 9 -15516915.76147  21236532.544    21236541.2914
  23263267.821    -6301430.418 8  -4901037.10446  23263267.175    23263278.5064
  21791351.970   -16535960.874 8 -12853833.54746  21791351.581    21791360.1144
 00  9 14  2  7 30.0000000  0 10 13 08 01 28 03 02 27 19 10 31
  20835801.381   -22114348.720 9 -17212640.20147  20835801.685    20835808.6724
  20597359.306   -18302451.795 9 -14237079.46347  20597358.865    20597367.5194
  23735267.691    -4160104.190 8  -3228905.72545  23735267.586    23735279.7274
  24187326.546    -4627076.421 7  -3268722.87745  24187326.162    24187335.8044
  23983051.849    -3484754.030 7  -2703331.00145  23983051.499    23983061.9354
  23056698.890   -10116777.727 8  -7860615.27246  23056698.330    23056710.3274
  20504605.073   -21597507.543 9 -16810696.35648  20504604.778    20504612.8374
  21245448.502   -19893441.515 9 -15480406.66447  21245448.442    21245457.2244
  23264736.001    -6293715.090 8  -4895025.19246  23264735.389    23264746.6924
  21791027.077   -16537667.776 8 -12855163.55346  21791026.727    21791035.2564
 00  9 14  2  8  0.0000000  0 10 13 08 01 28 03 02 27 19 10 31
  20844167.238   -22070385.683 9 -17178383.30547  20844167.573    20844174.5674
  20589465.359   -18343934.617 9 -14269403.70947  20589464.930    20589473.6004
  23755020.370    -4056304.568 8  -3148022.99745  23755020.022    23755032.2614
  24205777.510    -4530115.840 7  -3193169.18445  24205776.919    24205786.7124
  23995515.195    -3419258.595 8  -2652295.59545  23995514.890    23995525.1924
  23042858.723   -10189507.120 8  -7917287.40046  23042858.202    23042870.3054
  20503851.213   -21601468.755 9 -16813783.00748  20503850.939    20503859.0234
  21254410.941   -19846343.416 9 -15443706.85047  21254410.907    21254419.7104
  23266309.976    -6285443.480 8  -4888579.79946  23266309.369    23266320.7124
  21790822.816   -16538740.570 8 -12855999.46846  21790822.498    21790831.1164
 00  9 14  2  8 30.0000000  0 10 13 08 01 28 03 02 27 19 10 31
  20852628.418   -22025922.025 9 -17143736.31747  20852628.716    20852635.7514
  20581618.601   -18385169.246 9 -14301534.55047  20581618.172    20581626.8784
  23774807.042    -3952324.517 7  -3066999.69045  23774806.795    23774818.9054
  24224240.021    -4433096.898 7  -3117570.03145  24224239.277    24224248.7144
  24008063.141    -3353319.328 7  -2600914.32545  24008062.754    24008073.1584
  23029062.882   -10262003.413 8  -7973777.87746  23029062.442    23029074.7054
  20503147.403   -21605167.216 9 -16816664.91848  20503147.107    20503155.1874
  21263419.937   -19799001.158 9 -15406816.78447  21263419.851    21263428.6184
  23267989.712    -6276617.208 8  -4881702.22946  23267989.066    23268000.3104
  21790739.276   -16539179.474 8 -12856341.44546  21790738.916    21790747.5664
 00  9 14  2  9  0.0000000  0 10 13 08 01 28 03 02 27 19 10 31
  20861184.673   -21980958.443 9 -17108699.75847  20861185.002    20861192.0614
  20573819.215   -18426154.856 9 -14333471.34847  20573818.832    20573827.5204
  23794627.538    -3848165.558 8  -2985836.97945  23794627.482    23794639.7914
  24242712.862    -4336021.356 7  -3041926.75145  24242712.329    24242721.7214
  24020694.926    -3286938.317 7  -2549188.84245  24020694.719    24020704.8764
  23015311.782   -10334265.922 8  -8030086.17946  23015311.262    23015323.4684
  20502493.677   -21608602.266 9 -16819341.56248  20502493.409    20502501.5154
  21272475.378   -19751414.694 9 -15369736.42447  21272475.282    21272483.9984
  23269774.662    -6267237.173 8  -4874393.13446  23269773.991    23269785.3954
  21790776.384   -16538984.381 8 -12856189.38646  21790775.980    21790784.7364
 00  9 14  2  9 30.0000000  0 10 13 08 01 28 03 02 27 19 10 31
  20869836.221   -21935494.441 9 -17073273.26947  20869836.533    20869843.5894
  20566067.619   -18466889.785 9 -14365212.80647  20566067.218    20566075.9044
  23814482.248    -3743828.833 7  -2904535.70345  23814482.178    23814494.4774
  24261196.157    -4238890.034 7  -2966240.00645  24261195.674    24261205.2474
  24033410.760    -3220116.490 7  -2497119.87345  24033410.406    24033420.6854
  23001605.346   -10406293.166 8  -8086211.15146  23001604.791    23001617.0394
  20501890.409   -21611772.313 9 -16821811.71648  20501890.167    20501898.3104
  21281577.470   -19703582.878 9 -15332464.88447  21281577.430    21281586.0714
  23271664.981    -6257303.199 8  -4866652.38446  23271664.352    23271675.8334
  21790934.305   -16538153.919 8 -12855542.24946  21790933.960    21790942.7524
 00  9 14  2 10  0.0000000  0 10 13 08 01 28 03 02 27 19 10 31
  20878582.881   -21889530.686 9 -17037457.36647  20878583.158    20878590.1824
  20558363.823   -18507373.757 9 -14396758.71947  20558363.391    20558372.0184
  23834370.221    -3639316.559 8  -2823097.68245  23834370.359    23834382.5754
  24279690.008    -4141704.908 7  -2890511.35145  24279689.381    24279699.0574
  24046209.601    -3152856.434 7  -2444709.45045  24046209.466    24046219.7284
  22987943.737   -10478084.644 8  -8142152.40346  22987943.228    22987955.4974
  20501337.661   -21614676.988 9 -16824075.08948  20501337.429    20501345.5594
  21290726.146   -19655506.543 9 -15295002.81847  21290726.087    21290734.6984
  23273660.540    -6246816.640 8  -4858481.08846  23273659.900    23273671.3384
  21791213.155   -16536688.263 8 -12854400.14846  21791212.828    21791221.6454
 00  9 14  2 10 30.0000000  0 10 13 08 01 28 03 02 27 19 10 31
  20887424.047   -21843069.792 9 -17001254.08747  20887424.377    20887431.4164
  20550707.593   -18547607.293 9 -14428109.48247  20550707.152    20550715.7824
  23854291.284    -3534631.987 8  -2741525.38845  23854291.117    23854303.5634
  24298193.276    -4044468.976 7  -2814743.11045  24298192.702    24298202.5614
  24059091.707    -3085161.822 7  -2391960.37145  24059091.308    24059101.6694
  22974326.833   -10549641.283 8  -8197910.66046  22974326.386    22974338.4594
  20500835.246   -21617317.017 9 -16826132.23848  20500835.027    20500843.1574
  21299921.049   -19607187.082 9 -15257351.28847  21299920.982    21299929.5944
  23275760.934    -6235779.599 8  -4849880.82146  23275760.177    23275771.6364
  21791612.733   -16534588.402 8 -12852763.84947  21791612.361    21791621.2294
 00  9 14  2 11  0.0000000  0 10 13 08 01 28 03 02 27 19 10 31
  20896360.102   -21796110.593 9 -16964662.54147  20896360.441    20896367.4504
  20543099.372   -18587588.114 9 -14459263.33547  20543098.989    20543107.6364
  23874244.849    -3429775.163 7  -2659818.89745  23874244.654    23874257.4834
  24316706.255    -3947182.440 7  -2738935.41345  24316705.835    24316715.5224
  24072055.944    -3017032.737 7  -2338872.77445  24072055.893    24072066.0794
  22960755.189   -10620960.699 8  -8253484.06546  22960754.721    22960766.6594
  20500383.655   -21619690.073 9 -16827981.37148  20500383.440    20500391.5674
  21309162.566   -19558622.744 9 -15219508.96047  21309162.504    21309171.1074
  23277965.895    -6224191.565 8  -4840851.20046  23277965.210    23277976.8244
  21792133.383   -16531852.369 8 -12850631.85047  21792132.990    21792141.8764
 00  9 14  2 11 30.0000000  0 10 13 08 01 28 03 02 27 19 10 31
  20905390.546   -21748655.165 9 -16927684.29947  20905390.909    20905397.9764
  20535539.172   -18627316.800 9 -14490220.70147  20535538.822    20535547.4784
  23894230.760    -3324749.190 8  -2577980.59845  23894230.608    23894243.4684
  24335228.637    -3849848.037 7  -2663090.44245  24335228.013    24335237.6434
  24085102.570    -2948472.790 7  -2285449.44245  24085102.361    24085112.7244
  22947228.490   -10692043.743 8  -8308873.27646  22947227.995    22947239.8414
  20499982.776   -21621796.605 9 -16829622.81048  20499982.577    20499990.7024
  21318450.527   -19509814.426 9 -15181476.51047  21318450.424    21318459.0554
  23280275.395    -6212054.759 8  -4831393.97546  23280274.771    23280286.4554
  21792774.882   -16528481.184 8 -12848004.92247  21792774.496    21792783.4034
 00  9 14  2 12  0.0000000  0 10 13 08 01 28 03 02 27 19 10 31
  20914515.377   -21700703.696 9 -16890319.53547  20914515.752    20914522.8524
  20528027.327   -18666792.005 9 -14520980.55847  20528026.953    20528035.5674
  23914248.622    -3219555.564 7  -2496011.67245  23914248.300    23914261.1814
  24353759.321    -3752466.809 7  -2587208.96745  24353758.804    24353768.6694
  24098230.704    -2879483.427 7  -2231691.49645  24098230.392    24098240.9004
  22933746.720   -10762889.561 8  -8364077.63446  22933746.318    22933758.1354
  20499632.845   -21623635.490 9 -16831055.69248  20499632.620    20499640.7274
  21327784.823   -19460761.875 9 -15143253.74547  21327784.772    21327793.4294
  23282689.390    -6199369.244 8  -4821509.18246  23282688.660    23282700.5414
  21793537.325   -16524474.252 8 -12844882.61247  21793536.978    21793545.8214
 00  9 14  2 12 30.0000000  0 10 13 08 01 28 03 02 27 19 10 31
  20923734.546   -21652256.612 9 -16852568.56547  20923734.890    20923742.0414
  20520563.906   -18706012.220 9 -14551541.71547  20520563.550    20520572.1384
  23934298.134    -3114195.148 7  -2413912.76645  23934297.910    23934310.8084
  24372298.723    -3655039.806 7  -2511291.80645  24372298.270    24372308.2364
  24111440.344    -2810065.683 7  -2177599.74845  24111440.127    24111450.6444
  22920310.478   -10833496.671 8  -8419096.02946  22920310.120    22920321.8414
  20499334.071   -21625205.262 9 -16832278.88048  20499333.876    20499341.9814
  21337165.819   -19411464.396 8 -15104840.13547  21337165.748    21337174.4454
  23285207.535    -6186135.621 8  -4811197.28046  23285206.926    23285218.7944
  21794420.980   -16519830.686 8 -12841264.21347  21794420.616    21794429.4264
 00  9 14  2 13  0.0000000  0 10 13 08 01 28 03 02 27 19 10 31
  20933047.685   -21603315.859 9 -16814432.91147  20933048.022    20933055.1394
  20513148.865   -18744978.269 9 -14581904.81947  20513148.523    20513157.1104
  23954378.799    -3008671.354 7  -2331686.51345  23954378.619    23954391.2864
  24390846.644    -3557569.911 7  -2435341.26645  24390846.169    24390856.2144
  24124730.817    -2740223.326 7  -2123177.11245  24124730.667    24124741.1274
  22906919.546   -10903865.819 8  -8473928.97146  22906919.150    22906930.9124
  20499086.391   -21626506.549 9 -16833292.85048  20499086.228    20499094.3454
  21346593.067   -19361923.500 9 -15066236.84147  21346593.061    21346601.7744
  23287829.897    -6172355.997 8  -4800459.91846  23287829.281    23287840.9774
  21795425.504   -16514551.704 8 -12837150.69647  21795425.161    21795433.8914
 00  9 14  2 13 30.0000000  0 10 13 08 01 28 03 02 27 19 10 31
  20942454.640   -21553881.861 9 -16775912.91047  20942455.010    20942462.1194
  20505782.369   -18783688.964 9 -14612068.95147  20505782.033    20505790.6854
  23974490.049    -2902985.456 7  -2249334.01945  23974489.956    23974502.6204
  24409402.225    -3460058.544 7  -2359358.35445  24409401.933    24409411.7294
  24138102.004    -2669958.014 7  -2068424.92445  24138101.750    24138112.2914
  22893574.029   -10973996.177 8  -8528575.86546  22893573.659    22893585.3284
  20498890.042   -21627538.299 9 -16834096.79348  20498889.854    20498898.0084
  21356066.866   -19312138.949 9 -15027443.69647  21356066.752    21356075.4824
  23290555.892    -6158031.098 8  -4789297.66346  23290555.224    23290566.8024
  21796551.082   -16508636.691 8 -12832541.56947  21796550.742    21796559.4174
 00  9 14  2 14  0.0000000  0 10 13 08 01 28 03 02 27 19 10 31
  20951955.342   -21503955.437 9 -16737009.20747  20951955.673    20951962.8104
  20498464.674   -18822143.589 9 -14642033.54547  20498464.319    20498472.9554
  23994632.022    -2797139.372 7  -2166856.62045  23994631.872    23994644.6154
  24427965.813    -3362507.041 7  -2283344.20645  24427965.591    24427975.1924
  24151553.110    -2599272.215 7  -2013345.04645  24151552.987    24151563.4184
  22880274.158   -11043887.258 8  -8583036.29546  22880273.687    22880285.4094
  20498745.094   -21628299.972 9 -16834690.28448  20498744.914    20498753.0604
  21365586.936   -19262110.465 8 -14988460.46147  21365586.852    21365595.6204
  23293385.319    -6143162.389 8  -4777711.67146  23293384.675    23293396.0804
  21797797.673   -16502085.616 8 -12827436.80247  21797797.339    21797806.0354
 00  9 14  2 14 30.0000000  0 10 13 08 01 28 03 02 27 19 10 31
  20961549.584   -21453537.434 9 -16697722.46247  20961549.901    20961557.0324
  20491195.918   -18860341.254 9 -14671797.91947  20491195.521    20491204.1634
  24014803.984    -2691135.019 7  -2084255.95845  24014803.737    24014816.7284
  24446536.467    -3264917.109 7  -2207300.08745  24446536.315    24446545.7734
  24165083.885    -2528167.466 7  -1957938.74845  24165083.710    24165094.2854
  22867019.939   -11113538.450 8  -8637309.82146  22867019.392    22867031.1024
  20498651.719   -21628790.602 9 -16835072.57848  20498651.539    20498659.6764
  21375153.474   -19211837.974 8 -14949287.09947  21375153.380    21375162.2024
  23296318.105    -6127750.643 8  -4765702.51946  23296317.525    23296328.8324
  21799165.233   -16494898.626 8 -12821836.51647  21799164.932    21799173.5794
 00  9 14  2 15  0.0000000  0 10 13 08 01 28 03 02 27 19 10 31
  20971237.106   -21402629.108 9 -16658053.65147  20971237.444    20971244.5674
  20483976.031   -18898281.594 9 -14701361.77147  20483975.659    20483984.2894
  24035005.159    -2584974.674 7  -2001533.68145  24035005.212    24035018.5954
  24465114.332    -3167290.868 7  -2131227.68945  24465114.003    24465123.6734
  24178694.014    -2456646.681 7  -1902208.23445  24178693.838    24178704.3224
  22853811.403   -11182949.704 8  -8691396.39346  22853810.786    22853822.3394
  20498609.922   -21629010.124 9 -16835243.61748  20498609.758    20498617.8824
  21384766.297   -19161322.090 9 -14909924.08547  21384766.214    21384775.0694
  23299353.947    -6111797.618 8  -4753271.58046  23299353.353    23299364.6444
  21800653.849   -16487076.104 8 -12815741.01847  21800653.492    21800662.1034
 00  9 14  2 15 30.0000000  0 10 13 08 01 28 03 02 27 19 10 31
  20981017.908   -21351230.716 9 -16618002.97547  20981018.233    20981025.3484
  20476805.436   -18935963.152 9 -14730723.98548  20476805.073    20476813.6804
  24055236.500    -2478659.319 7  -1918690.68445  24055236.317    24055249.8904
  24483698.837    -3069628.826 7  -2055127.41145  24483698.638    24483707.8884
  24192382.860    -2384711.279 8  -1846154.64745  24192382.731    24192393.1084
  22840648.564   -11252119.827 8  -8745295.04546  22840647.969    22840659.5664
  20498620.055   -21628956.845 9 -16835202.09448  20498619.871    20498627.9934
  21394425.648   -19110561.722 8 -14870370.55647  21394425.577    21394434.4704
  23302492.727    -6095303.230 8  -4740418.82646  23302492.061    23302503.4244
  21802263.525   -16478617.294 8 -12809149.69846  21802263.137    21802271.7454
 00  9 14  2 16  0.0000000  0 10 13 08 01 28 03 02 27 19 10 31
  20990891.639   -21299343.817 9 -16577571.64347  20990891.978    20990899.1344
  20469684.166   -18973385.610 9 -14759884.29848  20469683.773    20469692.3694
  24075496.678    -2372191.453 7  -1835728.84045  24075496.490    24075510.3264
  24502289.773    -2971933.039 7  -1979000.78945  24502289.498    24502298.6294
  24206150.005    -2312363.851 8  -1789780.01745  24206149.931    24206160.2744
  22827531.610   -11321048.761 8  -8799005.80246  22827531.169    22827542.7104
  20498682.122   -21628630.672 9 -16834947.91348  20498681.928    20498690.0644
  21404131.412   -19059557.367 8 -14830626.90247  21404131.328    21404140.2794
  23305734.090    -6078269.449 8  -4727145.77145  23305733.436    23305744.7844
  21803994.216   -16469522.393 8 -12802062.73046  21803993.809    21804002.3754
 00  9 14  2 16 30.0000000  0 10 13 08 01 28 03 02 27 19 10 31
  21000858.290   -21246968.609 9 -16536759.81047  21000858.628    21000865.7704
  20462612.337   -19010548.203 9 -14788842.12448  20462611.919    20462620.4994
  24095785.530    -2265572.842 7  -1752649.48745  24095785.454    24095799.2824
  24520886.626    -2874205.149 7  -1902849.18345  24520886.444    24520895.6564
  24219995.334    -2239606.306 7  -1733085.78645  24219995.246    24220005.3704
  22814460.834   -11389735.954 8  -8852528.16446  22814460.328    22814471.8634
  20498796.286   -21628030.810 9 -16834480.46948  20498796.079    20498804.2274
  21413883.626   -19008309.017 8 -14790693.12647  21413883.567    21413892.5544
  23309077.982    -6060697.526 8  -4713453.36845  23309077.281    23309088.6654
  21805845.904   -16459791.289 8 -12794480.01546  21805845.528    21805854.0784
 00  9 14  2 17  0.0000000  0 10 13 08 01 28 03 02 27 19 10 31
  21010917.515   -21194107.082 9 -16495569.04947  21010917.854    21010924.9974
  20455589.948   -19047450.684 9 -14817597.26448  20455589.570    20455598.1464
  24116103.316    -2158805.836 7  -1669454.50245  24116102.768    24116116.4804
  24539489.218    -2776447.422 7  -1826674.34645  24539489.095    24539498.3644
  24233918.132    -2166441.598 7  -1676074.31245  24233917.958    24233928.1164
  22801435.976   -11458181.305 8  -8905862.08546  22801435.495    22801446.9744
  20498962.483   -21627157.183 9 -16833799.69848  20498962.274    20498970.4464
  21423682.119   -18956817.477 8 -14750569.84747  21423682.053    21423691.0534
  23312523.926    -6042589.020 8  -4699342.85645  23312523.136    23312534.6134
  21807818.485   -16449424.915 8 -12786402.27647  21807818.172    21807826.7024
 00  9 14  2 17 30.0000000  0 10 13 08 01 28 03 02 27 19 10 31
  21021069.247   -21140759.441 9 -16453999.47747  21021069.606    21021076.7644
  20448617.378   -19084091.620 9 -14846148.61248  20448617.017    20448625.5764
  24136448.509    -2051891.526 7  -1586144.75945  24136448.155    24136461.7154
  24558097.487    -2678660.467 7  -1750476.71845  24558097.333    24558106.4664
  24247917.828    -2092871.265 7  -1618746.74645  24247917.846    24247927.8504
  22788457.377   -11526383.582 8  -8959006.60246  22788456.940    22788468.4354
  20499181.065   -21626008.312 9 -16832904.45548  20499180.892    20499189.0664
  21433527.070   -18905081.955 8 -14710256.45447  21433526.998    21433535.9714
  23316071.706    -6023944.409 8  -4684814.60345  23316070.981    23316082.5654
  21809912.194   -16438422.554 8 -12777828.97947  21809911.832    21809920.3254
 00  9 14  2 18  0.0000000  0 10 13 08 01 28 03 02 27 19 10 31
  21031313.245   -21086926.740 9 -16412051.92947  21031313.615    21031320.8064
  20441694.672   -19120470.698 9 -14874495.90948  20441694.290    20441702.7924
  24156820.860    -1944832.496 7  -1502722.21845  24156820.970    24156834.4924
  24576711.111    -2580846.189 7  -1674257.78645  24576710.777    24576719.9744
  24261994.507    -2018897.992 7  -1561105.23245  24261994.461    24262004.6154
  22775525.047   -11594342.881 8  -9011961.80846  22775524.672    22775536.0464
  20499452.137   -21624584.014 9 -16831794.59448  20499451.945    20499460.1224
  21443418.282   -18853103.010 8 -14669753.37347  21443418.270    21443427.2224
  23319721.228    -6004765.736 8  -4669870.16745  23319720.553    23319732.1514
  21812126.838   -16426784.990 8 -12768760.70847  21812126.479    21812134.8904
 00  9 14  2 18 30.0000000  0 10 13 08 01 28 03 02 27 19 10 31
  21041649.443   -21032609.755 9 -16369727.02547  21041649.779    21041657.0034
  20434822.139   -19156586.214 9 -14902637.83748  20434821.727    20434830.1674
  24177220.897    -1837629.628 7  -1419187.65645  24177221.028    24177234.5104
  24595329.461    -2483005.405 7  -1598018.24845  24595329.427    24595338.6784
  24276147.337    -1944523.512 7  -1503151.07145  24276147.303    24276157.4284
  22762639.301   -11662057.978 8  -9064726.71246  22762638.863    22762650.2834
  20499775.881   -21622882.729 9 -16830468.90548  20499775.681    20499783.8344
  21453355.980   -18800879.883 8 -14629060.02347  21453356.001    21453364.9184
  23323472.581    -5985053.276 8  -4654509.84445  23323471.826    23323483.1824
  21814462.437   -16414511.580 8 -12759196.97047  21814462.032    21814470.4214
 00  9 14  2 19  0.0000000  0 10 13 08 01 28 03 02 27 19 10 31
  21052077.362   -20977810.729 9 -16327026.49647  21052077.710    21052084.8944
  20427999.611   -19192438.876 9 -14930574.94448  20427999.190    20428007.6074
  24197648.164    -1730286.262 7  -1335543.55745  24197648.196    24197661.3104
  24613952.337    -2385140.942 7  -1521760.24345  24613952.406    24613961.5754
  24290376.038    -1869750.688 7  -1444886.53645  24290376.073    24290386.4304
  22749799.749   -11729529.727 8  -9117301.98546  22749799.322    22749810.7154
  20500152.183   -21620905.019 9 -16828927.81348  20500151.990    20500160.1494
  21463339.998   -18748413.839 8 -14588177.38747  21463339.949    21463348.8494
  23327324.643    -5964809.362 8  -4638735.36045  23327323.950    23327335.3894
  21816918.557   -16401603.818 8 -12749138.93647  21816918.222    21816926.6684
 00  9 14  2 19 30.0000000  0 10 13 08 01 28 03 02 27 19 10 31
  21062596.702   -20922531.131 9 -16283951.50247  21062597.057    21062604.2874
  20421227.119   -19228028.316 9 -14958306.94448  20421226.709    20421235.1154
  24218101.689    -1622804.870 7  -1251791.91745  24218101.297    24218114.4364
  24632579.538    -2287254.751 7  -1445485.31045  24632579.540    24632588.7584
  24304680.141    -1794582.315 7  -1386313.78245  24304680.101    24304690.4854
  22737006.454   -11796758.174 8  -9169687.68646  22737005.979    22737017.3654
  20500581.076   -21618650.659 9 -16827171.15748  20500580.933    20500589.0734
  21473370.101   -18695705.223 8 -14547105.73247  21473370.035    21473378.9424
  23331277.855    -5944036.151 8  -4622548.48046  23331277.093    23331288.5234
  21819495.343   -16388062.446 8 -12738587.19347  21819495.038    21819503.5024
 00  9 14  2 20  0.0000000  0 10 13 08 01 28 03 02 27 19 10 31
  21073207.845   -20866769.374 9 -16240500.78747  21073208.182    21073215.3804
  20414505.296   -19263351.587 9 -14985831.52848  20414504.892    20414513.2884
  24238581.158    -1515184.850 7  -1167932.26645  24238580.829    24238593.8994
  24651211.337    -2189346.212 7  -1369192.95745  24651211.111    24651220.2044
  24319059.380    -1719018.638 7  -1327432.95845  24319059.435    24319069.7424
  22724259.999   -11863740.743 8  -9221881.79846  22724259.573    22724270.8834
  20501063.301   -21616116.722 9 -16825196.63448  20501063.139    20501071.2614
  21483446.862   -18642751.709 9 -14505843.24347  21483446.789    21483455.6854
  23335331.896    -5922732.797 8  -4605948.46346  23335331.147    23335342.5284
  21822193.094   -16373885.573 8 -12727540.23947  21822192.701    21822201.2524
 00  9 14  2 20 30.0000000  0 10 13 08 01 28 03 02 27 19 10 31
  21083909.913   -20810529.718 9 -16196677.70547  21083910.283    21083917.4894
  20407833.726   -19298410.479 9 -15013150.11048  20407833.341    20407841.7404
  24259086.481    -1407430.838 8  -1083968.20745  24259086.084    24259098.8274
  24669846.272    -2091419.373 7  -1292886.34745  24669845.941    24669855.2244
  24333512.849    -1643064.710 7  -1268248.07645  24333512.870    24333523.2074
  22711559.878   -11930479.652 8  -9273886.03346  22711559.465    22711570.8144
  20501598.270   -21613305.325 9 -16823005.91348  20501598.109    20501606.2224
  21493569.697   -18589556.347 8 -14464392.30647  21493569.591    21493578.4434
  23339485.933    -5900903.147 8  -4588938.40245  23339485.300    23339496.5224
  21825011.101   -16359076.181 8 -12716000.43147  21825010.760    21825019.4144
 00  9 14  2 21  0.0000000  0 10 13 08 01 28 03 02 27 19 10 31
  21094703.056   -20753811.685 9 -16152481.85247  21094703.341    21094710.5374
  20401212.942   -19333202.864 9 -15040261.02148  20401212.565    20401220.9434
  24279616.770    -1299543.572 7   -999900.28245  24279616.362    24279629.0904
  24688484.489    -1993474.325 7  -1216565.55545  24688484.497    24688493.4914
  24348040.659    -1566721.275 7  -1208759.70045  24348040.562    24348051.0394
  22698906.654   -11996972.915 8  -9325698.86446  22698906.204    22698917.4564
  20502186.524   -21610214.168 9 -16820597.20748  20502186.332    20502194.4154
  21503738.658   -18536117.850 8 -14422751.91047  21503738.572    21503747.4604
  23343740.185    -5878547.135 8  -4571518.16646  23343739.515    23343750.7814
  21827949.865   -16343632.998 8 -12703966.75147  21827949.515    21827958.1154
 00  9 14  2 21 30.0000000  0 10 13 08 01 28 03 02 27 19 10 31
  21105586.946   -20696616.477 9 -16107914.18047  21105587.246    21105594.4294
  20394642.999   -19367728.024 9 -15067163.70248  20394642.603    20394650.9804
  24300171.755    -1191525.131 8   -915730.16745  24300171.482    24300184.4724
  24707126.040    -1895512.942 7  -1140232.02445  24707125.953    24707135.0354
  24362641.957    -1489990.642 7  -1148969.61045  24362641.924    24362652.3854
  22686300.013   -12063220.171 8  -9377320.00446  22686299.642    22686310.9074
  20502828.031   -21606842.746 9 -16817970.10548  20502827.858    20502835.9344
  21513953.906   -18482436.071 8 -14380921.94347  21513953.820    21513962.7394
  23348094.233    -5855666.508 8  -4553689.12446  23348093.521    23348104.8884
  21831009.131   -16327556.666 8 -12691439.71246  21831008.707    21831017.3344
 00  9 14  2 22  0.0000000  0 10 13 08 01 28 03 02 27 19 10 31
  21116561.533   -20638944.484 9 -16062974.99247  21116561.888    21116569.0354
  20388124.223   -19401984.390 9 -15093856.93848  20388123.786    20388132.1814
  24320751.808    -1083376.067 8   -831458.24545  24320751.554    24320764.7854
  24725770.281    -1797535.529 7  -1063885.98145  24725770.266    24725779.5344
  24377316.970    -1412874.157 7  -1088878.85045  24377316.605    24377327.2544
  22673740.537   -12129220.178 8  -9428748.48646  22673740.207    22673751.3904
  20503523.201   -21603189.516 9 -16815123.41048  20503523.016    20503531.1184
  21524215.671   -18428510.205 8 -14338901.78047  21524215.556    21524224.4544
  23352548.017    -5832261.603 8  -4535451.56346  23352547.308    23352558.7864
  21834188.961   -16310846.393 8 -12678418.69646  21834188.536    21834197.1124
 00  9 14  2 22 30.0000000  0  9 13 08 01 03 02 27 19 10 31
  21127626.552   -20580797.675 9 -16017665.82347  21127626.898    21127634.0214
  20381656.576   -19435971.995 9 -15120340.75448  20381656.143    20381664.5004
  24341356.382     -975099.468 7   -747086.96345  24341356.000    24341369.4184
  24392064.417    -1335375.140 7  -1028490.04645  24392064.105    24392074.7764
  22661228.058   -12194973.618 8  -9479984.82346  22661227.649    22661238.8194
  20504271.974   -21599254.782 9 -16812057.37348  20504271.798    20504279.8654
  21534523.716   -18374341.378 8 -14296692.31747  21534523.609    21534532.4304
  23357101.098    -5808335.049 8  -4516807.53946  23357100.416    23357111.9014
  21837489.076   -16293503.726 8 -12664904.91246  21837488.711    21837497.2784
 00  9 14  2 23  0.0000000  0  9 13 08 01 03 02 27 19 10 31
  21138781.644   -20522177.593 9 -15971987.85547  21138781.966    21138789.1084
  20375240.036   -19469690.597 9 -15146614.95048  20375239.665    20375248.0224
  24361984.670     -866697.970 7   -662618.35645  24361984.269    24361997.7694
  24406884.346    -1257496.679 7   -967805.51745  24406883.987    24406894.4904
  22648762.399   -12260480.871 8  -9531029.34246  22648761.928    22648772.9874
  20505074.383   -21595038.501 9 -16808771.94248  20505074.182    20505082.1944
  21544877.771   -18319930.359 8 -14254294.10547  21544877.701    21544886.5044
  23361753.039    -5783888.826 8  -4497758.57246  23361752.355    23361763.8474
  21840909.302   -16275529.846 8 -12650899.26446  21840908.983    21840917.5294
 00  9 14  2 23 30.0000000  0  9 13 08 01 03 02 27 19 10 31
  21150026.633   -20463084.939 9 -15925941.65247  21150026.961    21150034.0884
  20368875.085   -19503138.838 9 -15172678.47548  20368874.652    20368882.9884
  24382636.350     -758172.860 7   -578053.40645  24382635.783    24382649.4914
  24421775.871    -1179240.238 7   -906826.49545  24421775.647    24421786.2044
  22636343.770   -12325740.624 8  -9581880.98246  22636343.326    22636354.3834
  20505930.615   -21590539.209 9 -16805265.98448  20505930.370    20505938.3294
  21555278.156   -18265276.227 8 -14211706.46347  21555278.042    21555286.8664
  23366503.924    -5758923.523 8  -4478305.13646  23366503.177    23366514.5794
  21844449.870   -16256924.457 8 -12636401.54246  21844449.482    21844457.9834
 00  9 14  2 24  0.0000000  0  9 13 08 01 03 02 27 19 10 31
  21161361.325   -20403520.715 9 -15879527.99547  21161361.674    21161368.7934
  20362561.620   -19536315.908 9 -15198530.69548  20362561.222    20362569.5224
  24403311.084     -649525.836 8   -493393.42745  24403310.809    24403324.4524
  24436739.087    -1100608.154 7   -845554.77345  24436738.797    24436749.2914
  22623972.341   -12390752.434 8  -9632539.39546  22623971.880    22623982.9004
  20506840.841   -21585755.896 9 -16801538.71148  20506840.610    20506848.5724
  21565724.797   -18210378.991 8 -14168929.39647  21565724.649    21565733.4214
  23371352.904    -5733440.943 8  -4458448.58945  23371352.269    23371363.6954
  21848110.454   -16237687.737 8 -12621411.87446  21848110.118    21848118.6084
 00  9 14  2 24 30.0000000  0  9 13 08 01 03 02 27 19 10 31
  21172785.357   -20343487.106 9 -15832748.57547  21172785.665    21172792.7814
  20356299.918   -19569221.569 9 -15224171.43048  20356299.457    20356307.7574
  24424008.851     -540759.606 7   -408640.58945  24424008.531    24424022.0944
  24451773.331    -1021603.458 7   -783992.65445  24451772.980    24451783.3324
  22611648.014   -12455516.716 8  -9683004.96446  22611647.622    22611658.5164
  20507804.998   -21580688.736 9 -16797590.25748  20507804.792    20507812.7954
  21576217.464   -18155239.313 8 -14125963.41247  21576217.366    21576226.1214
  23376300.252    -5707443.121 8  -4438190.59546  23376299.594    23376311.0104
  21851891.022   -16217821.113 8 -12605931.35546  21851890.631    21851899.0784
 00  9 14  2 25  0.0000000  0  9 13 08 01 03 02 27 19 10 31
  21184298.475   -20282985.359 9 -15785604.36647  21184298.775    21184305.9304
  20350089.832   -19601855.453 9 -15249600.39048  20350089.376    20350097.6874
  24444728.594     -431876.483 7   -323796.68745  24444728.227    24444741.9544
  24466877.900     -942228.701 7   -722142.22445  24466877.523    24466888.0164
  22599370.767   -12520033.558 8  -9733277.70246  22599370.391    22599381.2854
  20508823.299   -21575337.409 9 -16793420.36948  20508823.067    20508831.1054
  21586756.159   -18099857.750 8 -14082808.94547  21586756.089    21586764.8464
  23381345.215    -5680932.009 8  -4417532.61246  23381344.513    23381355.9934
  21855791.107   -16197325.835 8 -12589960.98746  21855790.741    21855799.1504
 00  9 14  2 25 30.0000000  0  9 13 08 01 03 02 27 19 10 31
  21195900.586   -20222015.649 9 -15738095.52347  21195900.913    21195908.0854
  20343931.851   -19634215.292 9 -15274815.81648  20343931.449    20343939.7664
  24465470.635     -322876.839 7   -238861.97645  24465470.117    24465483.8924
  24482052.611     -862485.233 7   -660004.49245  24482052.308    24482062.5744
  22587141.018   -12584300.971 8  -9783356.07846  22587140.638    22587151.4694
  20509896.110   -21569699.554 9 -16789027.21948  20509895.915    20509903.9474
  21597341.316   -18044232.929 8 -14039464.93347  21597341.192    21597349.8814
  23386487.708    -5653907.780 8  -4396474.80446  23386487.102    23386498.7004
  21859811.082   -16176200.628 8 -12573499.76246  21859810.738    21859819.1034
 00  9 14  2 26  0.0000000  0  9 13 08 01 03 02 27 19 10 31
  21207591.375   -20160580.133 9 -15690223.70547  21207591.690    21207598.9174
  20337826.037   -19666301.245 9 -15299817.82848  20337825.656    20337833.9794
  24486234.378     -213763.845 7   -153838.90845  24486233.802    24486247.2604
  24497296.840     -782376.344 7   -597581.96845  24497296.515    24497306.8494
  22574958.571   -12648319.664 8  -9833240.64146  22574958.192    22574968.9974
  20511023.313   -21563775.775 9 -16784411.27348  20511023.164    20511031.1764
  21607972.475   -17988365.957 8 -13995932.22347  21607972.332    21607981.0014
  23391727.428    -5626373.113 8  -4375019.24146  23391726.795    23391738.4754
  21863950.608   -16154447.091 8 -12556548.92946  21863950.262    21863958.6094
 00  9 14  2 26 30.0000000  0  9 13 08 01 03 02 27 19 10 31
  21219370.570   -20098679.887 9 -15641989.75847  21219370.915    21219378.1894
  20331772.357   -19698113.414 9 -15324606.49948  20331771.997    20331780.2884
  24507019.318     -104540.048 7    -68729.48944  24507018.553    24507031.9944
  24512609.971     -701904.474 7   -534876.62345  24512609.774    24512620.1834
  22562823.521   -12712089.833 8  -9882931.55846  22562823.063    22562833.7734
  20512205.005   -21557565.767 9 -16779572.28048  20512204.866    20512212.8574
  21618649.532   -17932257.562 8 -13952211.40247  21618649.430    21618658.0164
  23397063.832    -5598330.088 8  -4353167.57846  23397063.220    23397074.8704
  21868209.440   -16132066.430 8 -12539109.42946  21868209.104    21868217.4854
 00  9 14  2 27  0.0000000  0  9 13 08 01 03 02 27 19 10 31
  21231237.961   -20036316.247 9 -15593394.72647  21231238.290    21231245.6174
  20325771.254   -19729649.327 9 -15349179.92448  20325770.892    20325779.1594
  24527824.971        4794.137 7     16465.99344  24527824.202    24527837.3604
  24527992.392     -621070.749 7   -471889.32245  24527992.094    24528002.1204
  22550735.973   -12775609.886 8  -9932427.57546  22550735.501    22550746.2514
  20513441.647   -21551067.376 9 -16774508.57448  20513441.470    20513449.4604
  21629372.909   -17875906.078 8 -13908301.15947  21629372.737    21629381.3604
  23402497.054    -5569779.064 8  -4330920.04346  23402496.409    23402508.0364
  21872587.845   -16109057.808 8 -12521180.61146  21872587.483    21872595.8474
 00  9 14  2 27 30.0000000  0  9 13 08 01 03 02 27 19 10 31
  21243193.185   -19973491.060 9 -15544440.05247  21243193.523    21243200.8514
  20319822.802   -19760909.021 9 -15373538.10248  20319822.400    20319830.6254
  24548650.737      114235.948 7    101745.29844  24548650.373    24548663.3524
  24543442.402     -539878.690 8   -408622.82045  24543442.299    24543452.4574
  22538695.865   -12838880.340 8  -9981729.10446  22538695.376    22538706.2544
  20514733.079   -21544280.962 9 -16769220.43048  20514732.886    20514740.8604
  21640142.210   -17819312.686 8 -13864202.40947  21640142.091    21640150.7414
  23408026.331    -5540722.515 8  -4308278.61746  23408025.711    23408037.2804
  21877085.462   -16085422.688 8 -12502763.58746  21877085.079    21877093.4124
 00  9 14  2 28  0.0000000  0  9 13 08 01 03 02 27 19 10 31
  21255236.347   -19910203.974 9 -15495125.46347  21255236.706    21255243.9724
  20313927.221   -19791890.861 9 -15397679.77448  20313926.741    20313934.9454
  24569496.978      223784.307 7    187107.59444  24569496.561    24569509.8634
  24558960.690     -458329.774 7   -345078.19145  24558960.616    24558970.7214
  22526703.649   -12901900.072 8 -10030835.29846  22526703.098    22526713.8614
  20516079.601   -21537204.981 9 -16763706.66048  20516079.384    20516087.3294
  21650957.722   -17762476.523 8 -13819914.49547  21650957.654    21650966.3194
  23413651.765    -5511161.270 8  -4285243.89846  23413651.047    23413662.5914
  21881702.188   -16061161.370 8 -12483858.63246  21881701.833    21881710.1244
 00  9 14  2 28 30.0000000  0  8 13 08 03 02 27 19 10 31
  21267366.938   -19846457.621 9 -15445453.00247  21267367.268    21267374.4794
  20308084.441   -19822594.812 9 -15421604.91148  20308083.946    20308092.1374
  24574546.059     -376427.169 7   -281258.04145  24574546.076    24574556.3054
  22514758.812   -12964669.510 8 -10079746.39946  22514758.357    22514769.1724
  20517481.167   -21529839.444 9 -16757967.25648  20517480.993    20517488.9324
  21661819.339   -17705398.280 8 -13775437.95047  21661819.255    21661828.0014
  23419372.445    -5481098.033 8  -4261818.04646  23419371.826    23419383.4874
  21886437.836   -16036275.347 8 -12464466.89846  21886437.485    21886445.7694
 00  9 14  2 29  0.0000000  0  8 13 08 03 02 27 19 10 31
  21279584.615   -19782253.479 9 -15395423.82147  21279584.940    21279592.1674
  20302294.608   -19853020.333 9 -15445313.08448  20302294.154    20302302.3454
  24590198.387     -294173.224 8   -217164.05145  24590198.559    24590208.6544
  22502861.754   -13027188.636 8 -10128462.48146  22502861.313    22502871.9284
  20518937.922   -21522183.970 9 -16752001.92348  20518937.765    20518945.6944
  21672726.912   -17648078.383 8 -13730773.09947  21672726.863    21672735.5984
  23425188.429    -5450534.767 8  -4238002.53645  23425187.680    23425199.5354
  21891292.081   -16010765.533 8 -12444589.09546  21891291.754    21891300.0534
 00  9 14  2 29 30.0000000  0  8 13 08 03 02 27 19 10 31
  21291889.343   -19717591.760 9 -15345038.07847  21291889.642    21291896.9044
  20296558.158   -19883165.567 9 -15468802.86248  20296557.696    20296565.8564
  24605917.340     -211569.604 7   -152797.60145  24605917.498    24605927.7484
  22491012.533   -13089456.119 8 -10176982.46146  22491012.107    22491022.6724
  20520450.228   -21514236.770 9 -16745809.28248  20520450.038    20520457.9664
  21683680.570   -17590516.295 8 -13685919.51647  21683680.511    21683689.3004
  23431099.559    -5419471.941 8  -4213797.77645  23431098.838    23431110.4654
  21896265.121   -15984631.688 8 -12424225.03646  21896264.811    21896273.1224
 00  9 14  2 30  0.0000000  0  8 13 08 03 02 27 19 10 31
  21304280.388   -19652476.130 9 -15294298.63847  21304280.693    21304288.0324
  20290874.764   -19913031.663 9 -15492075.12348  20290874.340    20290882.5034
  24621701.930     -128620.585 7    -88162.02845  24621702.100    24621712.2324
  22479210.881   -13151473.708 8 -10225307.72846  22479210.416    22479220.9314
  20522017.706   -21505999.133 9 -16739390.32248  20522017.563    20522025.5384
  21694680.028   -17532713.756 8 -13640878.58447  21694679.876    21694688.7404
  23437104.998    -5387913.628 8  -4189206.94245  23437104.290    23437115.8314
  21901356.402   -15957876.495 8 -12403376.80846  21901356.147    21901364.4804
 00  9 14  2 30 30.0000000  0  8 13 08 03 02 27 19 10 31
  21316757.863   -19586906.595 9 -15243205.50547  21316758.166    21316765.5484
  20285244.930   -19942616.374 9 -15515128.12548  20285244.517    20285252.6494
  24637551.948      -45327.151 7    -23258.09245  24637552.328    24637562.5254
  22467457.164   -13213239.369 8 -10273436.68246  22467456.684    22467467.1984
  20523640.906   -21497468.686 9 -16732743.20248  20523640.769    20523648.7914
  21705725.426   -17474669.194 8 -13595649.05047  21705725.369    21705734.2114
  23443204.625    -5355859.781 8  -4164229.95845  23443203.877    23443215.4484
  21906566.128   -15930499.420 8 -12382044.00946  21906565.830    21906574.1434
 00  9 14  2 31  0.0000000  0  8 13 08 03 02 27 19 10 31
  21329321.539   -19520884.102 9 -15191759.41147  21329321.838    21329329.1904
  20279668.879   -19971918.881 9 -15537961.21948  20279668.448    20279676.5544
  24653467.179       38307.988 7     41912.13945  24653467.430    24653477.8874
  22455751.321   -13274753.056 8 -10321369.27346  22455750.867    22455761.4334
  20525319.944   -21488645.036 9 -16725867.59748  20525319.827    20525327.8434
  21716816.918   -17416383.012 8 -13550231.24147  21716816.861    21716825.6514
  23449398.223    -5323312.505 8  -4138868.50845  23449397.560    23449408.9844
  21911894.023   -15902501.454 8 -12360227.38546  21911893.741    21911901.9664
 00  9 14  2 31 30.0000000  0  7 13 08 02 27 19 10 31
  21341971.106   -19454410.325 9 -15139961.67347  21341971.341    21341978.7174
  20274146.785   -20000937.637 9 -15560573.21948  20274146.361    20274154.4284
  22444093.704   -13336013.768 8 -10369104.78446  22444093.228    22444103.7674
  20527055.159   -21479526.611 9 -16718762.31448  20527055.015    20527062.9714
  21727954.582   -17357854.547 8 -13504624.64847  21727954.500    21727963.1814
  23455685.390    -5290272.721 8  -4113123.27745  23455684.738    23455696.2934
  21917339.991   -15873882.688 8 -12337927.01346  21917339.691    21917347.9314
 00  9 14  2 32  0.0000000  0  7 13 08 02 27 19 10 31
  21354705.845   -19387488.813 9 -15087815.05847  21354706.125    21354713.4404
  20268678.328   -20029674.636 9 -15582965.66348  20268677.866    20268685.9534
  22432483.719   -13397024.247 8 -10416645.29546  22432483.225    22432493.7234
  20528845.965   -21470115.641 9 -16711429.07048  20528845.836    20528853.7704
  21739137.816   -17299086.495 8 -13458831.37247  21739137.748    21739146.3794
  23462065.505    -5256745.273 8  -4086998.06445  23462064.861    23462076.4154
  21922903.289   -15844647.170 8 -12315146.06546  21922902.970    21922911.2254
 00  9 14  2 32 30.0000000  0  7 13 08 02 27 19 10 31
  21367525.642   -19320120.501 9 -15035320.28347  21367525.900    21367533.1564
  20263263.671   -20058128.751 9 -15605137.67048  20263263.205    20263271.3104
  22420921.489   -13457783.771 8 -10463990.24146  22420921.019    22420931.4224
  20530692.694   -21460411.069 9 -16703867.04748  20530692.547    20530700.4574
  21750366.659   -17240078.754 8 -13412851.31547  21750366.554    21750375.1494
  23468538.015    -5222731.564 8  -4060493.90545  23468537.420    23468549.1614
  21928583.827   -15814795.251 8 -12291884.80446  21928583.557    21928591.8414
 00  9 14  2 33  0.0000000  0  7 13 08 02 27 19 10 31
  21380430.595   -19252304.462 9 -14982476.64847  21380430.896    21380438.1484
  20257903.556   -20086296.006 9 -15627086.15848  20257903.125    20257911.2094
  22409407.664   -13518289.006 8 -10511137.07646  22409407.170    22409417.5044
  20532596.037   -21450408.967 9 -16696073.19448  20532595.870    20532603.7664
  21761641.695   -17180828.210 8 -13366682.07247  21761641.629    21761650.1574
  23475103.467    -5188230.537 8  -4033610.07445  23475102.795    23475114.5044
  21934382.122   -15784324.996 8 -12268141.72646  21934381.804    21934390.1014
 00  9 14  2 33 30.0000000  0  7 13 08 02 27 19 10 31
  21393419.973   -19184044.780 9 -14929287.30647  21393420.253    21393427.5144
  20252597.603   -20114178.536 9 -15648812.77448  20252597.209    20252605.3054
  22397941.675   -13578542.792 8 -10558087.96246  22397941.188    22397951.4654
  20534555.435   -21440111.896 9 -16688049.49348  20534555.293    20534563.2204
  21772962.282   -17121338.341 8 -13320326.31947  21772962.172    21772970.6964
  23481760.689    -5153247.079 8  -4006350.28245  23481760.106    23481771.8154
  21940297.366   -15753240.353 8 -12243919.90846  21940296.999    21940305.2644
 00  9 14  2 34  0.0000000  0  7 13 08 02 27 19 10 31
  21406493.665   -19115342.069 9 -14875752.73547  21406493.923    21406501.2194
  20247346.237   -20141774.668 9 -15670316.22448  20247345.814    20247353.8994
  22386523.644   -13638544.032 8 -10604842.05746  22386523.243    22386533.5324
  20536571.298   -21429518.220 9 -16679794.66448  20536571.198    20536579.1254
  21784328.527   -17061607.937 8 -13273783.15047  21784328.493    21784337.0404
  23488509.556    -5117781.912 8  -3978715.12345  23488509.003    23488520.5544
  21946329.478   -15721541.307 8 -12219219.32246  21946329.123    21946337.3534
 00  9 14  2 34 30.0000000  0  7 13 08 02 27 19 10 31
  21419651.617   -19046196.565 9 -14821873.14847  21419651.913    21419659.1554
  20242149.768   -20169082.128 9 -15691594.73048  20242149.362    20242157.4294
  22375154.024   -13698291.061 8 -10651398.07247  22375153.674    22375163.8704
  20538644.123   -21418625.823 9 -16671307.06848  20538643.953    20538651.8604
  21795740.784   -17001635.864 8 -13227051.66247  21795740.753    21795749.3504
  23495349.982    -5081835.885 8  -3950705.29745  23495349.329    23495360.8204
  21952478.494   -15689227.594 8 -12194039.78046  21952478.196    21952486.4064
 00  9 14  2 35  0.0000000  0  7 13 08 02 27 19 10 31
  21432893.392   -18976611.010 9 -14767650.65447  21432893.636    21432900.8954
  20237008.111   -20196101.682 9 -15712648.89048  20237007.701    20237015.7564
  22363832.621   -13757785.030 8 -10697756.86847  22363832.262    22363842.4604
  20540773.587   -21407435.615 9 -16662587.40948  20540773.379    20540781.2664
  21807198.793   -16941423.845 8 -13180133.19547  21807198.711    21807207.3434
  23502281.097    -5045412.466 8  -3922323.45745  23502280.499    23502292.0524
  21958744.180   -15656301.716 8 -12168383.22046  21958743.808    21958751.9924
 00  9 14  2 35 30.0000000  0  7 13 08 02 27 19 10 31
  21446218.410   -18906587.204 9 -14713086.67547  21446218.731    21446225.9974
  20231921.446   -20222832.097 9 -15733477.75648  20231921.053    20231929.0834
  22352559.514   -13817025.550 8 -10743918.19647  22352559.076    22352569.2454
  20542959.910   -21395946.395 9 -16653634.77048  20542959.715    20542967.5644
  21818702.522   -16880971.359 8 -13133027.37047  21818702.397    21818711.0654
  23509302.811    -5008513.373 8  -3893570.94545  23509302.119    23509313.7264
  21965125.991   -15622764.559 8 -12142250.34646  21965125.710    21965133.9024
 00  9 14  2 36  0.0000000  0  7 13 08 02 27 19 10 31
  21459627.258   -18836123.446 9 -14658179.85147  21459627.569    21459634.8664
  20226890.591   -20249269.396 9 -15754078.21148  20226890.175    20226898.2144
  22341335.288   -13876009.055 8 -10789879.25247  22341334.766    22341344.9624
  20545203.921   -21384154.381 9 -16644446.18748  20545203.681    20545211.4654
  21830252.634   -16820275.174 8 -13085731.63347  21830252.491    21830261.1494
  23516415.294    -4971137.145 8  -3864446.65845  23516414.595    23516426.2944
  21971624.609   -15588614.139 8 -12115639.60146  21971624.281    21971632.4594
 00  9 14  2 36 30.0000000  0  7 13 08 02 27 19 10 31
  21473119.115   -18765223.117 9 -14602932.85847  21473119.469    21473126.7574
  20221915.360   -20275414.381 9 -15774450.89648  20221914.940    20221922.9514
  22330159.522   -13934737.637 8 -10835641.74547  22330159.023    22330169.1444
  20547505.288   -21372060.946 9 -16635022.73148  20547504.998    20547512.7334
  21841848.582   -16759337.888 8 -13038248.03147  21841848.493    21841857.1694
  23523617.897    -4933288.039 8  -3834953.90545  23523617.119    23523628.7234
  21978239.267   -15553853.468 8 -12088553.33146  21978238.962    21978247.1634
 00  9 14  2 37  0.0000000  0  7 13 08 02 27 19 10 31
  21486693.103   -18693891.357 9 -14547349.69747  21486693.461    21486700.7524
  20216995.123   -20301270.185 9 -15794598.24248  20216994.736    20217002.7554
  22319031.699   -13993214.327 8 -10881207.91747  22319031.206    22319041.2484
  20549863.404   -21359668.830 9 -16625366.54248  20549863.156    20549870.8434
  21853489.749   -16698163.064 8 -12990579.34047  21853489.714    21853498.3474
  23530909.224    -4894971.265 8  -3805096.69245  23530908.511    23530920.3214
  21984969.176   -15518487.290 8 -12060995.26046  21984968.903    21984977.1324
 00  9 14  2 37 30.0000000  0  7 13 08 02 27 19 10 31
  21500348.986   -18622129.389 9 -14491431.28547  21500349.328    21500356.6274
  20212130.074   -20326836.065 9 -15814519.65148  20212129.674    20212137.7164
  22307951.804   -14051439.230 8 -10926577.84247  22307951.297    22307961.3364
  20552278.440   -21346977.520 9 -16615477.18448  20552278.204    20552285.8844
  21865176.144   -16636750.741 8 -12942725.56447  21865176.114    21865184.7534
  23538289.158    -4856189.448 8  -3774877.09645  23538288.522    23538300.3314
  21991814.074   -15482516.663 8 -12032966.15946  21991813.824    21991822.0854
 00  9 14  2 38  0.0000000  0  7 13 08 02 27 19 10 31
  21514086.732   -18549937.317 9 -14435177.75847  21514087.087    21514094.3494
  20207320.869   -20352108.645 9 -15834212.54648  20207320.453    20207328.4624
  22296920.292   -14109410.114 8 -10971749.89747  22296919.754    22296929.8014
  20554750.982   -21333984.078 9 -16605352.42548  20554750.762    20554758.4714
  21876907.998   -16575098.912 8 -12894685.18547  21876908.081    21876916.6824
  23545757.610    -4816942.074 8  -3744294.77445  23545757.131    23545768.7304
  21998774.243   -15445940.679 8 -12004465.38146  21998773.946    21998782.2414
 00  9 14  2 38 30.0000000  0  7 13 08 02 27 19 10 31
  21527905.846   -18477317.695 9 -14378591.06847  21527906.190    21527913.4074
  20202567.477   -20377088.088 9 -15853677.01848  20202567.024    20202574.9854
  22285936.955   -14167127.652 8 -11016724.54147  22285936.427    22285946.4334
  20557280.981   -21320688.755 9 -16594992.42447  20557280.731    20557288.4744
  21888685.482   -16513208.655 8 -12846459.00647  21888685.418    21888693.9694
  23553314.168    -4777232.310 8  -3713352.15545  23553313.680    23553325.3154
  22005849.164   -15408761.695 8 -11975494.71746  22005848.837    22005857.0684
 00  9 14  2 39  0.0000000  0  7 13 08 02 27 19 10 31
  21541806.295   -18404270.446 9 -14321671.15247  21541806.608    21541813.8604
  20197870.110   -20401772.542 9 -15872911.61548  20197869.686    20197877.6264
  22275002.162   -14224590.439 8 -11061500.67447  22275001.567    22275011.5084
  20559868.692   -21307089.722 9 -16584395.76147  20559868.499    20559876.2724
  21900508.212   -16451079.000 8 -12798046.28647  21900508.233    21900516.8244
  23560958.410    -4737061.404 8  -3682050.16945  23560958.038    23560969.5874
  22013038.889   -15370980.066 8 -11946054.45146  22013038.470    22013046.6034
 00  9 14  2 39 30.0000000  0  7 13 08 02 27 19 10 31
  21555787.509   -18330798.951 9 -14264420.65247  21555787.789    21555795.0404
  20193228.920   -20426161.902 9 -15891916.27048  20193228.509    20193236.4894
  22264115.620   -14281799.079 8 -11106078.79647  22264115.074    22264125.0174
  20562514.243   -21293187.128 9 -16573562.55747  20562514.068    20562521.7974
  21912376.610   -16388710.825 8 -12749447.69346  21912376.558    21912385.0394
  23568690.041    -4696432.027 8  -3650390.97345  23568689.555    23568701.1924
  22020342.795   -15332597.813 8 -11916146.18246  22020342.414    22020350.5014
 00  9 14  2 40  0.0000000  0  7 13 08 02 27 19 10 31
  21569849.368   -18256903.288 9 -14206839.63747  21569849.674    21569856.9004
  20188644.167   -20450254.575 9 -15910689.74748  20188643.793    20188651.7354
  22253277.666   -14338752.914 8 -11150458.34847  22253277.087    22253287.0194
  20565217.864   -21278979.544 9 -16562491.70648  20565217.696    20565225.4074
  21924290.247   -16326103.584 8 -12700662.83546  21924290.290    21924298.8334
  23576508.731    -4655345.463 8  -3618375.50245  23576508.163    23576519.7184
  22027760.820   -15293615.397 8 -11885770.25746  22027760.489    22027768.5954
 00  9 14  2 40 30.0000000  0  7 13 08 02 27 19 10 31
  21583991.467   -18182585.987 9 -14148930.07647  21583991.833    21583999.0634
  20184116.073   -20474049.747 9 -15929231.39448  20184115.697    20184123.6294
  22242488.184   -14395451.614 8 -11194639.06947  22242487.636    22242497.5684
  20567979.598   -21264466.470 9 -16551182.79947  20567979.414    20567987.1304
  21936249.652   -16263257.367 8 -12651691.74746  21936249.580    21936258.0594
  23584413.800    -4613804.173 8  -3586005.68145  23584413.251    23584424.7534
  22035292.771   -15254034.488 8 -11854927.96046  22035292.474    22035300.5744
 00  9 14  2 41  0.0000000  0  7 13 08 02 27 19 10 31
  21598213.486   -18107848.722 9 -14090693.28047  21598213.858    21598221.0834
  20179644.761   -20497546.753 9 -15947540.72748  20179644.393    20179652.2644
  22231747.256   -14451895.061 8 -11238620.93147  22231746.722    22231756.7094
  20570799.598   -21249647.058 9 -16539635.19547  20570799.432    20570807.1784
  21948254.242   -16200172.220 8 -12602534.49746  21948254.239    21948262.6964
  23592405.033    -4571810.117 8  -3553283.02445  23592404.488    23592415.9354
  22042938.524   -15213856.214 8 -11823620.19646  22042938.122    22042946.1984
 00  9 14  2 41 30.0000000  0  7 13 08 02 27 19 10 31
  21612515.698   -18032689.907 9 -14032128.00047  21612516.106    21612523.3444
  20175230.852   -20520741.907 9 -15965614.84148  20175230.469    20175238.3304
  22221055.375   -14508080.843 8 -11282402.01447  22221054.884    22221064.8154
  20573678.527   -21234518.087 9 -16527846.36047  20573678.359    20573686.1364
  21960304.911   -16136846.087 8 -12553189.44446  21960304.837    21960313.2914
  23600482.595    -4529362.866 8  -3520207.21945  23600481.896    23600493.3884
  22050698.194   -15173079.360 8 -11791846.00546  22050697.680    22050705.7144
 00  9 14  2 42  0.0000000  0  7 13 08 02 27 19 10 31
  21626896.974   -17957116.046 9 -13973239.29447  21626897.340    21626904.5544
  20170873.688   -20543638.940 9 -15983456.66448  20170873.285    20170881.1254
  22210411.775   -14564013.200 8 -11325985.61047  22210411.262    22210421.1094
  20576615.599   -21219083.611 9 -16515819.47047  20576615.416    20576623.2234
  21972400.340   -16073283.462 8 -12503660.12846  21972400.354    21972408.8424
  23608644.945    -4486469.222 8  -3486783.57945  23608644.225    23608655.8124
  22058570.488   -15131710.045 8 -11759610.15746  22058569.980    22058577.9924
 00  9 14  2 42 30.0000000  0  7 13 08 02 27 19 10 31
  21641357.070   -17881127.840 9 -13914027.71647  21641357.430    21641364.6054
  20166573.649   -20566235.722 9 -16001064.52948  20166573.232    20166581.0594
  22199816.661   -14619690.641 8 -11369370.58247  22199816.217    22199826.0124
  20579611.136   -21203341.681 9 -16503553.01048  20579610.992    20579618.7814
  21984541.182   -16009483.393 8 -12453945.77546  21984541.139    21984549.5554
  23616891.973    -4443130.379 8  -3453013.05545  23616891.246    23616902.9134
  22066555.439   -15089748.528 8 -11726912.86146  22066554.962    22066562.9614
 00  9 14  2 43  0.0000000  0  7 13 08 02 27 19 10 31
  21655895.665   -17804726.972 9 -13854494.57847  21655896.035    21655903.2334
  20162330.933   -20588531.173 9 -16018437.57948  20162330.499    20162338.3244
  22189270.154   -14675112.887 8 -11412556.69347  22189269.688    22189279.4384
  20582665.419   -21187291.442 9 -16491046.30448  20582665.287    20582673.0254
  21996727.073   -15945445.499 8 -12404046.11746  21996727.073    21996735.6174
  23625223.471    -4399347.999 8  -3418896.92145  23625222.759    23625234.5044
  22074652.846   -15047195.596 8 -11693754.72446  22074652.436    22074660.4674
 00  9 14  2 43 30.0000000  0  7 13 08 02 27 19 10 31
  21670512.410   -17727915.635 9 -13794641.60447  21670512.707    21670519.9694
  20158145.622   -20610525.005 9 -16035575.59748  20158145.187    20158153.0054
  22178772.014   -14730280.235 8 -11455544.13547  22178771.566    22178781.3114
  20585778.418   -21170932.692 9 -16478299.19348  20585778.232    20585785.9734
  22008958.121   -15881170.771 8 -12353961.90446  22008958.126    22008966.6724
  23633638.826    -4355125.093 8  -3384437.53645  23633638.142    23633649.8884
  22082862.555   -15004053.762 8 -11660137.69046  22082862.053    22082870.0854
 00  9 14  2 44  0.0000000  0  7 13 08 02 27 19 10 31
  21685206.964   -17650694.936 9 -13734469.64147  21685207.313    21685214.5574
  20154017.999   -20632215.962 9 -16052477.60748  20154017.524    20154025.3144
  22168322.636   -14785192.424 8 -11498332.76747  22168322.100    22168331.8164
  20588950.255   -21154264.427 9 -16465310.91448  20588950.066    20588957.8354
  22021234.263   -15816658.817 8 -12303692.85246  22021234.257    22021242.9314
  23642137.634    -4310463.655 8  -3349636.44745  23642136.939    23642148.7574
  22091183.914   -14960323.930 8 -11626062.48146  22091183.542    22091191.5554
 00  9 14  2 44 30.0000000  0  7 13 08 02 27 19 10 31
  21699978.388   -17573070.421 9 -13673983.02047  21699978.708    21699986.0504
  20149947.419   -20653606.464 9 -16069145.49148  20149947.012    20149954.8094
  22157921.111   -14839852.745 8 -11540925.13647  22157920.521    22157930.2564
  20592180.504   -21137289.175 9 -16452083.40948  20592180.320    20592188.1024
  22033554.974   -15751913.324 8 -12253241.80446  22033554.938    22033563.6174
  23650718.808    -4265369.254 8  -3314497.96145  23650718.219    23650729.8944
  22099616.497   -14916010.864 8 -11591532.79946  22099616.025    22099624.0114
 00  9 14  2 45  0.0000000  0  7 13 08 02 27 19 10 31
  21714827.859   -17495035.810 9 -13613176.87647  21714828.187    21714835.5484
  20145935.812   -20674687.495 9 -16085572.24548  20145935.389    20145943.1894
  22147568.900   -14894252.926 8 -11583314.85247  22147568.378    22147578.1134
  20595470.813   -21119998.319 9 -16438609.99848  20595470.632    20595478.3894
  22045921.715   -15686925.949 8 -12202602.29846  22045921.616    22045930.2484
  23659383.453    -4219836.009 8  -3279017.60045  23659382.920    23659394.6504
  22108161.161   -14871108.207 8 -11556543.71446  22108160.729    22108168.6774
 00  9 14  2 45 30.0000000  0  7 13 08 02 27 19 10 31
  21729754.020   -17416598.315 8 -13552056.78047  21729754.394    21729761.7474
  20141982.150   -20695464.104 9 -16101761.78348  20141981.736    20141989.4864
  22137265.359   -14948398.464 8 -11625506.10347  22137264.820    22137274.4704
  20598820.270   -21102396.905 9 -16424894.58448  20598820.084    20598827.8154
  22058333.280   -15621702.692 8 -12151778.98746  22058333.263    22058341.8364
  23668130.210    -4173871.914 8  -3243201.54745  23668129.615    23668141.2894
  22116816.690   -14825623.234 8 -11521100.86246  22116816.247    22116824.1934
 00  9 14  2 46  0.0000000  0  7 13 08 02 27 19 10 31
  21744756.649   -17337759.312 9 -13490623.83347  21744756.998    21744764.3144
  20138086.689   -20715934.741 9 -16117712.90148  20138086.263    20138094.0214
  22127010.241   -15002288.991 8 -11667498.67347  22127009.690    22127019.3734
  20602229.090   -21084483.556 9 -16410936.11048  20602228.874    20602236.5784
  22070789.871   -15556243.336 8 -12100771.70946  22070789.780    22070798.2824
  23676958.655    -4127478.393 8  -3207050.83945  23676957.933    23676969.6494
  22125582.697   -14779556.843 8 -11485204.97746  22125582.378    22125590.3014
 00  9 14  2 46 30.0000000  0  7 13 08 02 27 19 10 31
  21759835.231   -17258521.181 8 -13428879.85647  21759835.549    21759842.7984
  20134249.569   -20736098.797 9 -16133425.11648  20134249.150    20134256.9004
  22116803.670   -15055924.649 8 -11709292.65047  22116803.146    22116812.8004
  20605697.261   -21066258.190 9 -16396734.49448  20605697.033    20605704.7674
  22083291.209   -15490548.345 8 -12049580.81546  22083291.125    22083299.5864
  23685868.213    -4080658.642 8  -3170568.03445  23685867.555    23685879.1954
  22134459.140   -14732910.999 8 -11448857.54946  22134458.763    22134466.7214
 00  9 14  2 47  0.0000000  0  7 13 08 02 27 19 10 31
  21774989.488   -17178885.266 9 -13366825.93047  21774989.788    21774997.0714
  20130471.006   -20755955.103 9 -16148897.53448  20130470.575    20130478.3214
  22106645.629   -15109304.989 8 -11750887.67347  22106645.158    22106654.8304
  20609224.973   -21047719.699 9 -16382288.89448  20609224.741    20609232.4904
  22095837.425   -15424617.638 8 -11998206.23346  22095837.340    22095845.8184
  23694858.524    -4033414.316 8  -3133754.33045  23694857.900    23694869.7464
  22143445.495   -14685686.999 8 -11412059.62546  22143445.172    22143453.1684
 00  9 14  2 47 30.0000000  0  7 13 08 02 27 19 10 31
  21790219.180   -17098853.293 8 -13304463.37147  21790219.435    21790226.6654
  20126751.175   -20775502.942 9 -16164129.57348  20126750.730    20126758.4584
  22096536.198   -15162430.170 8 -11792283.85547  22096535.717    22096545.3804
  20612812.350   -21028867.539 9 -16367598.87348  20612812.157    20612819.9034
  22108428.482   -15358451.340 8 -11946648.10246  22108428.323    22108436.8834
  23703929.251    -3985748.001 7  -3096611.79745  23703928.462    23703940.5064
  22152541.698   -14637886.425 8 -11374812.41746  22152541.305    22152549.3454
 00  9 14  2 48  0.0000000  0  7 13 08 02 27 19 10 31
  21805523.771   -17018427.006 9 -13241793.55647  21805524.060    21805531.2774
  20123090.232   -20794741.002 9 -16179120.22248  20123089.805    20123097.5584
  22086475.359   -15215299.948 8 -11833481.01547  22086474.882    22086484.5194
  20616459.635   -21009700.764 9 -16352663.70448  20616459.452    20616467.2034
  22121064.280   -15292049.334 8 -11894906.29146  22121064.176    22121072.7954
  23713079.645    -3937661.726 8  -3059142.07045  23713079.007    23713091.0324
  22161747.226   -14589510.948 8 -11337117.23146  22161746.862    22161754.8704
 00  9 14  2 48 30.0000000  0  7 13 08 02 27 19 10 31
  21820902.844   -16937609.142 8 -13178818.62447  21820903.173    21820910.4284
  20119488.282   -20813668.997 9 -16193869.26248  20119487.869    20119495.6304
  22076463.169   -15267914.157 8 -11874479.04647  22076462.673    22076472.2764
  20620166.870   -20990219.056 9 -16337483.12647  20620166.656    20620174.4164
  22133744.904   -15225412.108 8 -11842981.19246  22133744.807    22133753.4604
  23722309.676    -3889158.234 8  -3021347.22545  23722309.047    23722320.9364
  22171061.770   -14540562.666 8 -11298975.71746  22171061.424    22171069.4244
 00  9 14  2 49  0.0000000  0  7 13 08 02 27 19 10 31
  21836356.107   -16856401.681 8 -13115540.10147  21836356.445    21836363.7544
  20115945.484   -20832286.190 9 -16208376.11148  20115945.091    20115952.8674
  22066499.474   -15320273.381 8 -11915278.36747  22066498.961    22066508.6194
  20623933.934   -20970422.469 9 -16322057.18547  20623933.768    20623941.5234
  22146470.205   -15158540.570 8 -11790873.51146  22146470.038    22146478.7464
  23731618.564    -3840240.715 8  -2983229.77845  23731617.803    23731629.6294
  22180484.783   -14491043.696 8 -11260389.50446  22180484.560    22180492.5774
 00  9 14  2 49 30.0000000  0  7 13 08 02 27 19 10 31
  21851883.462   -16774805.170 8 -13051958.42447  21851883.735    21851891.0834
  20112462.257   -20850590.545 9 -16222639.19648  20112461.832    20112469.6164
  22056584.559   -15372376.300 8 -11955877.97447  22056584.065    22056593.7194
  20627761.435   -20950308.812 9 -16306384.18547  20627761.278    20627769.0144
  22159240.168   -15091433.454 8 -11738582.26446  22159240.117    22159248.7684
  23741005.880    -3790909.904 8  -2944790.25145  23741005.124    23741017.0704
  22190016.515   -14440954.408 8 -11221358.89046  22190016.191    22190024.2664
 00  9 14  2 50  0.0000000  0  7 13 08 02 27 19 10 31
  21867484.302   -16692822.459 8 -12988075.80747  21867484.536    21867491.9574
  20109038.548   -20868582.128 9 -16236658.56048  20109038.103    20109045.8844
  22046718.178   -15424224.131 8 -11996278.79547  22046717.695    22046727.3334
  20631649.157   -20929878.600 9 -16290464.52247  20631649.007    20631656.6794
  22172054.889   -15024091.980 8 -11686108.41046  22172054.766    22172063.4074
  23750471.312    -3741169.360 8  -2906031.51545  23750470.492    23750482.3824
  22199656.119   -14390297.755 8 -11181886.16846  22199655.808    22199663.9204
 00  9 14  2 50 30.0000000  0  7 13 08 02 27 19 10 31
  21883158.141   -16610455.885 8 -12923894.09447  21883158.415    21883165.8884
  20105674.498   -20886260.153 9 -16250433.60348  20105674.091    20105681.8614
  22036900.451   -15475816.572 8 -12036480.65447  22036899.972    22036909.5824
  20635597.312   -20909131.136 9 -16274297.65447  20635597.113    20635604.7634
  22184914.192   -14956516.273 8 -11633452.02246  22184914.003    22184922.6724
  23760014.283    -3691021.351 7  -2866955.22045  23760013.395    23760025.2764
  22209403.503   -14339075.265 8 -11141972.53546  22209403.160    22209411.2174
 00  9 14  2 51  0.0000000  0  7 13 08 02 27 19 10 31
  21898904.702   -16527707.343 8 -12859414.74347  21898904.974    21898912.3784
  20102370.241   -20903623.905 9 -16263963.75248  20102369.829    20102377.5814
  22027131.182   -15527153.844 8 -12076483.61847  22027130.715    22027140.3024
  20639605.828   -20888065.977 9 -16257883.22547  20639605.648    20639613.2934
  22197817.793   -14888706.927 8 -11580613.58746  22197817.700    22197826.3514
  23769634.042    -3640468.890 8  -2827563.80645  23769633.245    23769645.0794
  22219258.134   -14287288.727 8 -11101619.39246  22219257.828    22219265.8634
 00  9 14  2 51 30.0000000  0  7 13 08 02 27 19 10 31
  21914723.661   -16444578.276 8 -12794638.87647  21914723.952    21914731.3034
  20099126.035   -20920672.047 9 -16277247.96648  20099125.665    20099133.3944
  22017410.660   -15578235.410 8 -12116287.33847  22017410.164    22017419.6834
  20643675.054   -20866681.853 9 -16241220.24547  20643674.881    20643682.5444
  22210766.097   -14820663.416 8 -11527592.67546  22210765.957    22210774.6144
  23779330.583    -3589513.465 8  -2787858.37645  23779329.784    23779341.7874
  22229219.829   -14234939.728 8 -11060827.94846  22229219.541    22229227.5224
 00  9 14  2 52  0.0000000  0  7 13 08 02 27 19 10 31
  21930614.659   -16361070.571 8 -12729567.95447  21930614.981    21930622.2784
  20095942.051   -20937403.720 9 -16290285.59148  20095941.679    20095949.3994
  22007738.824   -15629061.235 8 -12155891.79947  22007738.280    22007747.7634
  20647805.056   -20844978.413 9 -16224308.46147  20647804.882    20647812.5844
  22223758.890   -14752386.163 8 -11474389.65946  22223758.801    22223767.3684
  23789103.302    -3538157.704 8  -2747840.99345  23789102.626    23789114.4634
  22239288.079   -14182030.362 8 -11019599.87046  22239287.801    22239295.8294
 00  9 14  2 52 30.0000000  0  7 13 08 02 27 19 10 31
  21946577.240   -16277187.052 9 -12664204.18847  21946577.540    21946584.7044
  20092818.312   -20953818.898 9 -16303076.58948  20092817.942    20092825.6384
  21998115.338   -15679632.417 8 -12195297.83047  21998114.852    21998124.2794
  20651995.724   -20822956.074 9 -16207148.18047  20651995.561    20652003.2764
  22236795.887   -14683876.476 8 -11421005.50046  22236795.847    22236804.3494
  23798951.526    -3486405.286 8  -2707514.53445  23798950.799    23798962.7994
  22249462.499   -14128563.576 8 -10977937.43846  22249462.118    22249470.2334
 00  9 14  2 53  0.0000000  0  7 13 08 02 27 19 10 31
  21962610.963   -16192929.018 8 -12598548.59447  21962611.281    21962618.4224
  20089755.167   -20969915.876 9 -16315619.64448  20089754.752    20089762.4174
  21988540.486   -15729948.061 8 -12234504.77647  21988540.041    21988549.4204
  20656247.455   -20800613.135 9 -16189738.08647  20656247.298    20656254.9814
  22249877.303   -14615133.400 8 -11367439.50246  22249877.260    22249885.7104
  23808875.032    -3434257.833 8  -2666880.24145  23808874.290    23808886.1924
  22259742.800   -14074540.145 8 -10935841.24346  22259742.381    22259750.4934
 00  9 14  2 53 30.0000000  0  7 13 08 02 27 19 10 31
  21978715.630   -16108298.826 8 -12532602.99947  21978715.921    21978723.0484
  20086752.680   -20985693.918 9 -16327914.17248  20086752.221    20086759.8784
  21979014.326   -15780008.231 8 -12273512.64347  21979013.836    21979023.1754
  20660560.273   -20777949.234 9 -16172077.88547  20660560.092    20660567.6994
  22263003.049   -14546157.157 8 -11313691.77546  22263003.004    22263011.4044
  23818873.100    -3381717.864 8  -2625940.10645  23818872.428    23818884.3274
  22270128.585   -14019962.027 8 -10893312.82646  22270128.231    22270136.3014
 00  9 14  2 54  0.0000000  0  7 13 08 02 27 19 10 31
  21994890.593   -16023298.602 8 -12466369.07847  21994890.915    21994898.0504
  20083811.015   -21001152.143 9 -16339959.50848  20083810.567    20083818.2154
  21969536.653   -15829812.850 8 -12312321.33947  21969536.237    21969545.6274
  20664934.315   -20754963.694 9 -16154167.06547  20664934.114    20664941.6514
  22276173.059   -14476948.321 8 -11259762.82746  22276173.046    22276181.4494
  23828945.414    -3328787.933 8  -2584696.05345  23828944.814    23828956.7164
  22280619.650   -13964831.130 8 -10850353.67746  22280619.288    22280627.3434
 00  9 14  2 54 30.0000000  0  7 13 08 02 27 19 10 31
  22011135.400   -15937931.190 8 -12399849.02347  22011135.768    22011142.9734
  20080930.257   -21016290.604 9 -16351755.67648  20080929.772    20080937.4304
  21960107.430   -15879363.247 8 -12350931.95847  21960107.054    21960116.4574
  20669369.400   -20731656.959 9 -16136005.95547  20669369.233    20669376.7484
  22289387.148   -14407507.822 8 -11205653.36146  22289387.108    22289395.4884
  23839091.244    -3275471.533 8  -2543150.89645  23839090.621    23839102.6824
  22291215.307   -13909150.456 8 -10806966.13046  22291214.923    22291223.0214
 00  9 14  2 55  0.0000000  0  7 13 08 02 27 19 10 31
  22027449.902   -15852197.816 8 -12333043.81347  22027450.244    22027457.5564
  20078110.580   -21031107.742 9 -16363301.45748  20078110.114    20078117.7794
  21950726.865   -15928658.617 8 -12389343.85847  21950726.428    21950735.8204
  20673865.908   -20708027.682 9 -16117593.51547  20673865.711    20673873.2434
  22302645.525   -14337835.342 8 -11151363.11646  22302645.340    22302653.8074
  23849310.349    -3221770.363 8  -2501305.91845  23849309.566    23849321.6024
  22301915.489   -13852920.958 8 -10763150.91446  22301915.095    22301923.1294
 00  9 14  2 55 30.0000000  0  7 13 08 02 27 19 10 31
  22043833.542   -15766100.842 8 -12265955.28547  22043833.951    22043841.2424
  20075352.129   -21045603.234 9 -16374596.61248  20075351.683    20075359.3684
  21941394.589   -15977699.544 8 -12427557.45547  21941394.149    21941403.5964
  20678423.808   -20684075.859 9 -16098929.74447  20678423.605    20678431.1204
  22315947.575   -14267931.636 8 -11096892.70046  22315947.521    22315956.0344
  23859602.054    -3167687.846 8  -2459163.75745  23859601.322    23859613.3594
  22312719.604   -13796145.283 8 -10718910.11946  22312719.136    22312727.1664
 00  9 14  2 56  0.0000000  0  7 13 08 02 27 19 10 31
  22060286.236   -15679642.143 8 -12198584.87447  22060286.512    22060293.8204
  20072655.144   -21059775.863 9 -16385640.18548  20072654.660    20072662.3384
  21932110.826   -16026485.669 8 -12465572.50847  21932110.416    21932119.8664
  20683043.197   -20659800.637 9 -16080013.97147  20683043.007    20683050.4854
  22329293.802   -14197796.408 8 -11042241.88346  22329293.712    22329302.3484
  23869965.781    -3113226.149 8  -2416726.14245  23869965.087    23869977.0204
  22323627.297   -13738825.288 8 -10674245.17046  22323626.785    22323634.7784
 00  9 14  2 56 30.0000000  0  7 13 08 02 27 19 10 31
  22076807.159   -15592824.324 8 -12130934.63747  22076807.424    22076814.7024
  20070019.694   -21073625.039 9 -16396431.71548  20070019.215    20070026.8684
  21922875.463   -16075017.318 8 -12503389.25947  21922875.050    21922884.4904
  20687724.223   -20635201.650 9 -16060845.90947  20687724.027    20687731.5154
  22342683.993   -14127430.288 8 -10987411.13646  22342683.962    22342692.6094
  23880401.231    -3058388.107 8  -2373995.24045  23880400.493    23880412.4584
  22334637.958   -13680963.323 8 -10629157.91146  22334637.532    22334645.5234
 00  9 14  2 57  0.0000000  0  7 13 08 02 27 19 10 31
  22093396.194   -15505648.260 8 -12063005.23947  22093396.510    22093403.8174
  20067446.063   -21087149.150 9 -16406969.94648  20067445.627    20067453.2654
  21913688.705   -16123293.738 9 -12541007.14047  21913688.289    21913697.6764
  20692467.080   -20610277.583 9 -16041424.54147  20692466.893    20692474.3884
  22356118.243   -14056833.007 8 -10932400.27146  22356118.211    22356126.8484
  23890907.760    -3003175.831 8  -2330972.77245  23890907.128    23890919.0004
  22345751.571   -13622560.731 8 -10583649.37846  22345751.198    22345759.1694
 00  9 14  2 57 30.0000000  0  7 13 08 02 27 19 10 31
  22110052.929   -15418116.757 8 -11994798.89347  22110053.189    22110060.5034
  20064934.418   -21100347.735 9 -16417254.53048  20064934.015    20064941.6354
  21904550.334   -16171315.367 8 -12578426.49647  21904549.986    21904559.3264
  20697271.892   -20585028.238 9 -16021749.71547  20697271.677    20697279.1934
  22369596.393   -13986005.177 8 -10877209.76446  22369596.311    22369604.8804
  23901485.070    -2947592.166 8  -2287660.86745  23901484.386    23901496.2054
  22356967.769   -13563619.472 8 -10537721.10546  22356967.383    22356975.3054
 00  9 14  2 58  0.0000000  0  7 13 08 02 27 19 10 31
  22126776.720   -15330232.675 8 -11926317.81847  22126777.021    22126784.2824
  20062484.794   -21113220.488 9 -16427285.22048  20062484.391    20062491.9964
  21895460.355   -16219083.112 8 -12615648.02847  21895460.009    21895469.3274
  20702138.544   -20559453.780 9 -16001821.55747  20702138.308    20702145.8004
  22383118.147   -13914947.916 8 -10821840.46946  22383118.040    22383126.5654
  23912132.441    -2891640.337 8  -2244062.08945  23912131.626    23912143.5814
  22368285.941   -13504142.450 8 -10491375.36946  22368285.528    22368293.4014
 00  9 14  2 58 30.0000000  0  7 13 08 02 27 19 10 31
  22143567.449   -15241997.318 8 -11857563.01847  22143567.747    22143574.9324
  20060097.433   -21125766.111 9 -16437060.99948  20060097.014    20060104.6164
  21886418.742   -16266596.317 8 -12652671.17847  21886418.418    21886427.7534
  20707067.292   -20533552.933 9 -15981639.07047  20707067.076    20707074.5204
  22396683.600   -13843660.695 8 -10766291.98946  22396683.568    22396692.0744
  23922849.390    -2835322.263 8  -2200177.92645  23922848.656    23922860.5464
  22379705.664   -13444131.231 8 -10444613.37546  22379705.282    22379713.1414
 00  9 14  2 59  0.0000000  0  7 13 08 02 27 19 10 31
  22160424.414   -15153413.477 8 -11788536.65747  22160424.677    22160431.8734
  20057772.447   -21137983.920 9 -16446581.33348  20057772.014    20057779.6164
  21877425.620   -16313855.553 8 -12689496.45347  21877425.214    21877434.4964
  20712058.190   -20507325.548 9 -15961202.12747  20712057.961    20712065.3944
  22410292.655   -13772144.311 8 -10710564.93246  22410292.658    22410301.2574
  23933635.438    -2778641.026 8  -2156010.79445  23933634.680    23933646.7104
  22391226.499   -13383588.628 8 -10397437.30046  22391226.117    22391234.0154
 00  9 14  2 59 30.0000000  0  7 13 08 02 27 19 10 31
  22177347.417   -15064482.271 8 -11719239.62846  22177347.781    22177354.9274
  20055510.145   -21149872.350 9 -16455845.02548  20055509.720    20055517.2974
  21868480.998   -16360859.890 9 -12726123.11547  21868480.576    21868489.7814
  20717111.521   -20480770.122 9 -15940509.58147  20717111.282    20717118.7474
  22423945.455   -13700398.096 8 -10654658.80746  22423945.466    22423954.1784
  23944490.238    -2721598.716 8  -2111562.26245  23944489.585    23944501.6694
  22402848.205   -13322515.505 8 -10349847.85146  22402847.901    22402855.8824
 00  9 14  3  0  0.0000000  0  7 13 08 02 27 19 10 31
  22194335.996   -14975207.198 8 -11649674.64046  22194336.291    22194343.4154
  20053310.384   -21161432.000 9 -16464852.51148  20053309.963    20053317.5074
  21859584.484   -16407611.154 9 -12762552.57847  21859584.025    21859593.2114
  20722226.976   -20453887.716 9 -15919562.22347  20722226.781    20722234.2774
  22437641.798   -13628423.750 8 -10598574.90946  22437641.704    22437650.4394
  23955413.171    -2664199.087 8  -2066835.31645  23955412.403    23955424.6414
  22414570.290   -13260915.639 8 -10301847.94546  22414569.917    22414577.8684
 00  9 14  3  0 30.0000000  0  7 13 08 02 27 19 10 31
  22211389.653   -14885589.227 8 -11579842.47046  22211390.045    22211397.1854
  20051173.587   -21172660.790 9 -16473602.19348  20051173.182    20051180.7564
  21850736.293   -16454108.202 8 -12798783.96847  21850735.841    21850745.0524
  20727405.039   -20426676.731 9 -15898358.84547  20727404.856    20727412.3424
  22451381.614   -13556220.585 8 -10542312.70546  22451381.532    22451390.2104
  23966403.571    -2606444.067 8  -2021831.44145  23966402.834    23966415.0154
  22426392.225   -13198790.361 8 -10253438.63646  22426391.922    22426399.8694
 00  9 14  3  1  0.0000000  0  7 13 08 02 27 19 10 31
  22228507.999   -14795631.629 8 -11509745.63346  22228508.404    22228515.5294
  20049099.741   -21183558.705 9 -16482094.05248  20049099.327    20049106.9124
  21841936.358   -16500351.765 9 -12834817.83247  21841935.912    21841945.0754
  20732645.617   -20399137.412 9 -15876899.62547  20732645.428    20732652.9104
  22465164.650   -13483789.799 8 -10485873.15146  22465164.631    22465173.4164
  23977461.024    -2548337.350 8  -1976553.54245  23977460.150    23977472.3964
  22438313.799   -13136142.108 8 -10204621.81546  22438313.489    22438321.4354
 00  9 14  3  1 30.0000000  0  7 13 08 02 27 19 10 31
  22245690.752   -14705335.663 8 -11439385.13346  22245691.099    22245698.3344
  20047089.171   -21194124.091 9 -16490326.78848  20047088.759    20047096.3374
  21833184.823   -16546341.166 8 -12870653.62147  21833184.391    21833193.4774
  20737948.888   -20371268.231 9 -15855183.36547  20737948.717    20737956.2094
  22478991.228   -13411130.822 8 -10429255.77146  22478991.138    22478999.9364
  23988584.877    -2489880.339 8  -1931002.66045  23988584.188    23988596.4554
  22450334.683   -13072972.265 8 -10155398.54846  22450334.277    22450342.2444
 00  9 14  3  2  0.0000000  0  7 13 08 02 27 19 10 31
  22262937.276   -14614704.659 8 -11368763.56446  22262937.559    22262944.8584
  20045141.841   -21204357.328 9 -16498300.71648  20045141.397    20045148.9804
  21824481.380   -16592077.782 9 -12906292.46647  21824480.936    21824489.9794
  20743314.803   -20343070.045 9 -15833210.74247  20743314.652    20743322.1514
  22492860.996   -13338244.989 8 -10372461.61046  22492860.806    22492869.6084
  23999774.837    -2431077.008 8  -1885181.93945  23999774.242    23999786.4094
  22462454.059   -13009284.311 8 -10105771.56146  22462453.717    22462461.6354
 00  9 14  3  2 30.0000000  0  7 13 08 02 27 19 10 31
  22280247.224   -14523740.195 8 -11297882.16046  22280247.476    22280254.8184
  20043257.900   -21214257.221 9 -16506014.88648  20043257.492    20043265.0574
  21815826.072   -16637561.305 9 -12941734.06847  21815825.648    21815834.6984
  20748743.469   -20314542.177 9 -15810981.21147  20748743.304    20748750.7834
  22506773.690   -13265132.588 8 -10315490.90746  22506773.595    22506782.4754
  24011030.154    -2371929.865 7  -1839093.29545  24011029.640    24011041.6984
  22474671.619   -12945080.334 8 -10055742.48746  22474671.289    22474679.2664
 00  9 14  3  3  0.0000000  0  7 13 08 02 27 19 10 31
  22297620.164   -14432444.367 8 -11226742.57046  22297620.468    22297627.8244
  20041437.751   -21223821.837 9 -16513467.81248  20041437.352    20041444.9244
  21807219.148   -16682790.797 9 -12976977.73147  21807218.717    21807227.6964
  20754235.193   -20285682.939 9 -15788493.48947  20754234.992    20754242.4704
  22520729.885   -13191792.711 8 -10258342.95246  22520729.723    22520738.5444
  24022350.478    -2312440.507 8  -1792738.00545  24022350.053    24022362.1554
  22486987.285   -12880361.548 8 -10005312.25646  22486986.863    22486994.8424
 00  9 14  3  3 30.0000000  0  7 13 08 02 27 19 10 31
  22315055.666   -14340820.247 8 -11155347.15446  22315055.968    22315063.2134
  20039681.326   -21233051.943 9 -16520660.06148  20039680.938    20039688.5024
  21798660.156   -16727768.219 9 -13012024.98747  21798659.702    21798668.6484
  20759789.716   -20256493.592 9 -15765748.53447  20759789.547    20759797.0234
  22534728.964   -13118227.240 8 -10201019.21146  22534728.851    22534737.6214
  24033735.334    -2252613.545 8  -1746119.63645  24033734.752    24033746.8534
  22499400.016   -12815131.874 8  -9954483.94446  22499399.630    22499407.6614
 00  9 14  3  4  0.0000000  0  8 13 08 02 27 19 07 10 31
  22332553.216   -14248869.580 8 -11083697.31246  22332553.625    22332560.7854
  20037988.877   -21241946.019 9 -16527590.48248  20037988.439    20037995.9824
  21790149.275   -16772492.825 9 -13046875.27247  21790148.864    21790157.7544
  20765407.405   -20226972.726 9 -15742745.25047  20765407.188    20765414.6394
  22548771.101   -13044435.652 8 -10143519.28946  22548771.020    22548779.7494
  24335849.063     -307454.98344                  24335845.575    24335861.4984
  24045183.932    -2192451.009 8  -1699239.79245  24045183.396    24045195.4184
  22511909.623   -12749392.456 8  -9903258.42946  22511909.289    22511917.3994
 00  9 14  3  4 30.0000000  0  8 13 08 02 27 19 07 10 31
  22350112.697   -14156594.261 8 -11011794.48446  22350113.079    22350120.1524
  20036360.348   -21250503.580 9 -16534258.67648  20036359.957    20036367.4874
  21781686.428   -16816965.265 9 -13081529.04547  21781685.983    21781694.8624
  20771088.079   -20197120.249 9 -15719483.56647  20771087.905    20771095.3544
  22562856.094   -12970418.763 8 -10085843.80646  22562856.060    22562864.7624
  24315640.571     -517627.049 7   -390209.80744  24315638.933    24315650.9394
  24056695.811    -2131955.897 8  -1652100.79445  24056695.217    24056707.4604
  22524515.799   -12683145.977 8  -9851637.78246  22524515.502    22524523.7454
 00  9 14  3  5  0.0000000  0  8 13 08 02 27 19 07 10 31
  22367733.152   -14063998.467 8 -10939641.92046  22367733.530    22367740.4594
  20034795.958   -21258724.593 9 -16540664.63348  20034795.530    20034803.0284
  21773271.311   -16861186.643 9 -13115987.20747  21773270.868    21773279.7404
  20776831.795   -20166936.769 9 -15695963.95747  20776831.639    20776839.0514
  22576983.651   -12896177.928 8 -10027993.81146  22576983.649    22576992.2904
  24295439.099     -623780.720 7   -472926.53744  24295438.648    24295450.8934
  24068270.244    -2071132.004 8  -1604705.61145  24068269.753    24068281.7564
  22537217.844   -12616395.981 8  -9799624.78246  22537217.569    22537225.8484
 00  9 14  3  5 30.0000000  0  8 13 08 02 27 19 07 10 31
  22385414.246   -13971083.545 8 -10867240.70646  22385414.610    22385421.5744
  20033295.799   -21266608.001 9 -16546807.52048  20033295.358    20033302.8454
  21764903.983   -16905156.736 9 -13150249.57147  21764903.541    21764912.4124
  20782638.686   -20136421.314 9 -15672185.67247  20782638.499    20782645.9234
  22591153.677   -12821713.495 8  -9969969.59346  22591153.740    22591162.4734
  24275248.121     -729882.819 7   -555603.15044  24275245.556    24275260.0104
  24079906.701    -2009981.732 7  -1557056.08045  24079906.139    24079918.4424
  22550015.480   -12549144.478 8  -9747221.01846  22550015.149    22550023.3904
 00  9 14  3  6  0.0000000  0  8 13 08 02 27 19 07 10 31
  22403155.850   -13877850.203 8 -10794591.35646  22403156.278    22403163.2844
  20031860.346   -21274151.262 9 -16552685.35848  20031859.892    20031867.3684
  21756584.747   -16948873.935 9 -13184314.88447  21756584.360    21756593.1754
  20788509.191   -20105571.650 9 -15648146.96247  20788508.965    20788516.3914
  22605366.456   -12747023.970 8  -9911769.96646  22605366.620    22605375.3204
  24255067.918     -835929.174 7   -638236.27045  24255066.608    24255079.8804
  24091605.214    -1948506.061 8  -1509153.03245  24091604.759    24091616.9104
  22562908.330   -12481391.951 8  -9694426.82546  22562908.024    22562916.1744
 00  9 14  3  6 30.0000000  0  8 13 08 02 27 19 07 10 31
  22420957.446   -13784302.281 8 -10721696.87746  22420957.784    22420964.8454
  20030489.453   -21281355.165 9 -16558298.75348  20030489.001    20030496.4814
  21748313.396   -16992339.920 9 -13218184.39247  21748312.966    21748321.8344
  20794442.957   -20074389.139 9 -15623848.88947  20794442.797    20794450.2384
  22619621.881   -12672111.157 8  -9853396.36046  22619622.071    22619630.7684
  24234898.614     -941919.029 7   -720825.38344  24234897.239    24234910.3964
  24103364.753    -1886709.356 8  -1460999.80345  24103364.318    24103376.3534
  22575895.712   -12413142.463 8  -9641245.39446  22575895.402    22575903.4944
 00  9 14  3  7  0.0000000  0  8 13 08 02 27 19 07 10 31
  22438818.789   -13690440.557 8 -10648557.87446  22438819.069    22438826.2524
  20029183.467   -21288217.570 9 -16563646.05048  20029183.085    20029190.5874
  21740090.041   -17035553.576 9 -13251857.28647  21740089.630    21740098.4844
  20800440.513   -20042871.791 9 -15599289.89847  20800440.345    20800447.7724
  22633919.933   -12596973.900 8  -9794847.86746  22633920.122    22633928.8544
  24214740.503    -1047848.678 6   -803367.62844  24214739.565    24214751.9954
  24115185.151    -1824593.268 8  -1412597.67845  24115184.705    24115196.7654
  22588977.496   -12344396.950 8  -9587677.45546  22588977.197    22588985.1694
 00  9 14  3  7 30.0000000  0  8 13 08 02 27 19 07 10 31
  22456739.351   -13596267.195 8 -10575176.04546  22456739.602    22456746.9004
  20027942.773   -21294737.212 9 -16568726.26648  20027942.414    20027949.9194
  21731914.723   -17078514.839 9 -13285333.54447  21731914.299    21731923.1134
  20806501.952   -20011018.834 9 -15574469.39947  20806501.768    20806509.1714
  22648260.902   -12521612.376 8  -9736124.59546  22648261.025    22648269.7124
  24194593.635    -1153715.367 7   -885860.70744  24194593.422    24194605.9464
  24127065.801    -1762160.326 8  -1363948.70245  24127065.340    24127077.3094
  22602153.097   -12275157.661 8  -9533724.75546  22602152.975    22602160.9024
 00  9 14  3  8  0.0000000  0  8 13 08 02 27 19 07 10 31
  22474718.678   -13501785.232 8 -10501553.75246  22474718.926    22474726.2794
  20026767.362   -21300913.891 9 -16573539.23248  20026766.998    20026774.4974
  21723787.299   -17121224.413 9 -13318613.68347  21723786.905    21723795.6454
  20812627.208   -19978830.483 9 -15549387.54747  20812627.018    20812634.3844
  22662644.187   -12446027.871 8  -9677227.57946  22662644.268    22662652.9784
  24174460.237    -1259517.275 6   -968303.39044  24174459.834    24174472.6324
  24139006.166    -1699413.952 8  -1315055.44645  24139005.634    24139017.5214
  22615422.513   -12205427.387 8  -9479389.45846  22615422.269    22615430.1704
 00  9 14  3  8 30.0000000  0  8 13 08 02 27 19 07 10 31
  22492755.988   -13406998.432 8 -10427693.93446  22492756.309    22492763.6124
  20025657.115   -21306748.399 9 -16578085.57648  20025656.776    20025664.2334
  21715707.491   -17163683.928 8 -13351698.96147  21715707.079    21715715.7274
  20818816.115   -19946307.738 9 -15524045.12747  20818815.904    20818823.2454
  22677069.513   -12370222.052 8  -9618158.11846  22677069.582    22677078.3354
  24154339.013    -1365253.665 7  -1050695.01544  24154338.359    24154351.0284
  24151005.178    -1636358.282 7  -1265921.25145  24151004.537    24151016.5584
  22628784.577   -12135210.070 8  -9424674.65146  22628784.219    22628792.1654
